<?xml version="1.0" encoding="UTF-8" standalone="no" ?>
<gpx xmlns="http://www.topografix.com/GPX/1/1" xmlns:xsi="http://www.w3.org/2001/XMLSchema-instance" xsi:schemaLocation="http://www.topografix.com/GPX/1/1 http://www.topografix.com/GPX/1/1/gpx.xsd" version="1.1" creator="VisuGPX - https://www.visugpx.com">
  <metadata>
    <name>Ski Rando - Couillade de la Llause</name>
    <desc><![CDATA[Avec Patrick - Jean-Louis et Jean
Très belle journée pour une rando à ski dans la Jasse de Parau pour arriver à la Couillade de la Lause 2371m en passant par la Couillade de de Pinet.
Départ des Forges d\'Orlu en suivant la route qui au parking de la Vallée d\'en Beys. Au pont de Bisp 1114m départ de la montée en forêt raide.
Très belle Vallée sauvage .]]></desc>
  </metadata>
  <trk>
    <name><![CDATA[23-DEC-13 17:01:28]]></name>
    <trkseg>
      <trkpt lat="42.68758" lon="1.91591">
        <ele>927.81</ele>
        <time>2013-12-23T08:38:35Z</time>
      </trkpt>
      <trkpt lat="42.68757" lon="1.91594">
        <ele>930.21</ele>
        <time>2013-12-23T08:38:56Z</time>
      </trkpt>
      <trkpt lat="42.68756" lon="1.91592">
        <ele>930.69</ele>
        <time>2013-12-23T08:39:29Z</time>
      </trkpt>
      <trkpt lat="42.68757" lon="1.91589">
        <ele>926.85</ele>
        <time>2013-12-23T08:40:00Z</time>
      </trkpt>
      <trkpt lat="42.68756" lon="1.9159">
        <ele>925.89</ele>
        <time>2013-12-23T08:40:28Z</time>
      </trkpt>
      <trkpt lat="42.68755" lon="1.9159">
        <ele>926.37</ele>
        <time>2013-12-23T08:40:59Z</time>
      </trkpt>
      <trkpt lat="42.68757" lon="1.91591">
        <ele>925.89</ele>
        <time>2013-12-23T08:41:18Z</time>
      </trkpt>
      <trkpt lat="42.6876" lon="1.91595">
        <ele>926.37</ele>
        <time>2013-12-23T08:41:37Z</time>
      </trkpt>
      <trkpt lat="42.68762" lon="1.91595">
        <ele>925.89</ele>
        <time>2013-12-23T08:41:52Z</time>
      </trkpt>
      <trkpt lat="42.68766" lon="1.91595">
        <ele>925.89</ele>
        <time>2013-12-23T08:42:14Z</time>
      </trkpt>
      <trkpt lat="42.68765" lon="1.91593">
        <ele>925.41</ele>
        <time>2013-12-23T08:42:18Z</time>
      </trkpt>
      <trkpt lat="42.68763" lon="1.91592">
        <ele>923</ele>
        <time>2013-12-23T08:42:30Z</time>
      </trkpt>
      <trkpt lat="42.68761" lon="1.9159">
        <ele>922.04</ele>
        <time>2013-12-23T08:42:47Z</time>
      </trkpt>
      <trkpt lat="42.68763" lon="1.91588">
        <ele>921.56</ele>
        <time>2013-12-23T08:42:50Z</time>
      </trkpt>
      <trkpt lat="42.68775" lon="1.91575">
        <ele>924.45</ele>
        <time>2013-12-23T08:43:06Z</time>
      </trkpt>
      <trkpt lat="42.68774" lon="1.91572">
        <ele>926.85</ele>
        <time>2013-12-23T08:43:19Z</time>
      </trkpt>
      <trkpt lat="42.68776" lon="1.91571">
        <ele>926.37</ele>
        <time>2013-12-23T08:43:36Z</time>
      </trkpt>
      <trkpt lat="42.68776" lon="1.91571">
        <ele>927.33</ele>
        <time>2013-12-23T08:43:52Z</time>
      </trkpt>
      <trkpt lat="42.68783" lon="1.91561">
        <ele>926.85</ele>
        <time>2013-12-23T08:44:06Z</time>
      </trkpt>
      <trkpt lat="42.68793" lon="1.91543">
        <ele>925.89</ele>
        <time>2013-12-23T08:44:24Z</time>
      </trkpt>
      <trkpt lat="42.688" lon="1.91527">
        <ele>924.93</ele>
        <time>2013-12-23T08:44:39Z</time>
      </trkpt>
      <trkpt lat="42.68808" lon="1.91513">
        <ele>922.52</ele>
        <time>2013-12-23T08:44:56Z</time>
      </trkpt>
      <trkpt lat="42.68817" lon="1.91499">
        <ele>920.12</ele>
        <time>2013-12-23T08:45:11Z</time>
      </trkpt>
      <trkpt lat="42.68826" lon="1.91494">
        <ele>920.12</ele>
        <time>2013-12-23T08:45:25Z</time>
      </trkpt>
      <trkpt lat="42.68827" lon="1.91495">
        <ele>920.12</ele>
        <time>2013-12-23T08:45:39Z</time>
      </trkpt>
      <trkpt lat="42.68829" lon="1.91496">
        <ele>923.96</ele>
        <time>2013-12-23T08:45:53Z</time>
      </trkpt>
      <trkpt lat="42.68835" lon="1.91494">
        <ele>924.45</ele>
        <time>2013-12-23T08:46:14Z</time>
      </trkpt>
      <trkpt lat="42.68834" lon="1.91497">
        <ele>926.85</ele>
        <time>2013-12-23T08:46:31Z</time>
      </trkpt>
      <trkpt lat="42.68835" lon="1.91497">
        <ele>925.41</ele>
        <time>2013-12-23T08:46:47Z</time>
      </trkpt>
      <trkpt lat="42.68835" lon="1.91496">
        <ele>924.45</ele>
        <time>2013-12-23T08:47:07Z</time>
      </trkpt>
      <trkpt lat="42.68838" lon="1.91498">
        <ele>924.45</ele>
        <time>2013-12-23T08:47:25Z</time>
      </trkpt>
      <trkpt lat="42.68843" lon="1.91501">
        <ele>923</ele>
        <time>2013-12-23T08:47:34Z</time>
      </trkpt>
      <trkpt lat="42.68849" lon="1.91502">
        <ele>921.56</ele>
        <time>2013-12-23T08:47:47Z</time>
      </trkpt>
      <trkpt lat="42.68859" lon="1.915">
        <ele>921.56</ele>
        <time>2013-12-23T08:48:02Z</time>
      </trkpt>
      <trkpt lat="42.68868" lon="1.91497">
        <ele>921.08</ele>
        <time>2013-12-23T08:48:16Z</time>
      </trkpt>
      <trkpt lat="42.68879" lon="1.91493">
        <ele>919.64</ele>
        <time>2013-12-23T08:48:31Z</time>
      </trkpt>
      <trkpt lat="42.68893" lon="1.91485">
        <ele>923.96</ele>
        <time>2013-12-23T08:48:46Z</time>
      </trkpt>
      <trkpt lat="42.68906" lon="1.91485">
        <ele>923.48</ele>
        <time>2013-12-23T08:49:01Z</time>
      </trkpt>
      <trkpt lat="42.68912" lon="1.91481">
        <ele>923.96</ele>
        <time>2013-12-23T08:49:15Z</time>
      </trkpt>
      <trkpt lat="42.68923" lon="1.91485">
        <ele>924.45</ele>
        <time>2013-12-23T08:49:31Z</time>
      </trkpt>
      <trkpt lat="42.68936" lon="1.91486">
        <ele>925.89</ele>
        <time>2013-12-23T08:49:46Z</time>
      </trkpt>
      <trkpt lat="42.68945" lon="1.91488">
        <ele>925.89</ele>
        <time>2013-12-23T08:50:01Z</time>
      </trkpt>
      <trkpt lat="42.68954" lon="1.91491">
        <ele>924.93</ele>
        <time>2013-12-23T08:50:17Z</time>
      </trkpt>
      <trkpt lat="42.68965" lon="1.91491">
        <ele>925.41</ele>
        <time>2013-12-23T08:50:33Z</time>
      </trkpt>
      <trkpt lat="42.68979" lon="1.91488">
        <ele>925.89</ele>
        <time>2013-12-23T08:50:48Z</time>
      </trkpt>
      <trkpt lat="42.68989" lon="1.91482">
        <ele>925.89</ele>
        <time>2013-12-23T08:51:04Z</time>
      </trkpt>
      <trkpt lat="42.68999" lon="1.91469">
        <ele>928.77</ele>
        <time>2013-12-23T08:51:20Z</time>
      </trkpt>
      <trkpt lat="42.69005" lon="1.91459">
        <ele>926.37</ele>
        <time>2013-12-23T08:51:35Z</time>
      </trkpt>
      <trkpt lat="42.6901" lon="1.91442">
        <ele>925.89</ele>
        <time>2013-12-23T08:51:51Z</time>
      </trkpt>
      <trkpt lat="42.69013" lon="1.91429">
        <ele>923.48</ele>
        <time>2013-12-23T08:52:05Z</time>
      </trkpt>
      <trkpt lat="42.69023" lon="1.91425">
        <ele>922.52</ele>
        <time>2013-12-23T08:52:20Z</time>
      </trkpt>
      <trkpt lat="42.69032" lon="1.91431">
        <ele>926.37</ele>
        <time>2013-12-23T08:52:27Z</time>
      </trkpt>
      <trkpt lat="42.69027" lon="1.91446">
        <ele>928.29</ele>
        <time>2013-12-23T08:52:41Z</time>
      </trkpt>
      <trkpt lat="42.69023" lon="1.91459">
        <ele>931.65</ele>
        <time>2013-12-23T08:52:54Z</time>
      </trkpt>
      <trkpt lat="42.69022" lon="1.91468">
        <ele>932.14</ele>
        <time>2013-12-23T08:53:06Z</time>
      </trkpt>
      <trkpt lat="42.69018" lon="1.91476">
        <ele>933.1</ele>
        <time>2013-12-23T08:53:20Z</time>
      </trkpt>
      <trkpt lat="42.69009" lon="1.9149">
        <ele>935.5</ele>
        <time>2013-12-23T08:53:33Z</time>
      </trkpt>
      <trkpt lat="42.69004" lon="1.91502">
        <ele>939.35</ele>
        <time>2013-12-23T08:53:48Z</time>
      </trkpt>
      <trkpt lat="42.68997" lon="1.91511">
        <ele>940.79</ele>
        <time>2013-12-23T08:54:00Z</time>
      </trkpt>
      <trkpt lat="42.68993" lon="1.91524">
        <ele>940.79</ele>
        <time>2013-12-23T08:54:12Z</time>
      </trkpt>
      <trkpt lat="42.68985" lon="1.91534">
        <ele>941.75</ele>
        <time>2013-12-23T08:54:23Z</time>
      </trkpt>
      <trkpt lat="42.68983" lon="1.91546">
        <ele>941.27</ele>
        <time>2013-12-23T08:54:38Z</time>
      </trkpt>
      <trkpt lat="42.68971" lon="1.91555">
        <ele>938.86</ele>
        <time>2013-12-23T08:54:53Z</time>
      </trkpt>
      <trkpt lat="42.68966" lon="1.91561">
        <ele>938.86</ele>
        <time>2013-12-23T08:55:02Z</time>
      </trkpt>
      <trkpt lat="42.68958" lon="1.91575">
        <ele>941.75</ele>
        <time>2013-12-23T08:55:16Z</time>
      </trkpt>
      <trkpt lat="42.68954" lon="1.91582">
        <ele>943.19</ele>
        <time>2013-12-23T08:55:24Z</time>
      </trkpt>
      <trkpt lat="42.68946" lon="1.91594">
        <ele>945.11</ele>
        <time>2013-12-23T08:55:38Z</time>
      </trkpt>
      <trkpt lat="42.68937" lon="1.91602">
        <ele>945.11</ele>
        <time>2013-12-23T08:55:52Z</time>
      </trkpt>
      <trkpt lat="42.68928" lon="1.9161">
        <ele>947.04</ele>
        <time>2013-12-23T08:56:03Z</time>
      </trkpt>
      <trkpt lat="42.68927" lon="1.91611">
        <ele>947.04</ele>
        <time>2013-12-23T08:56:06Z</time>
      </trkpt>
      <trkpt lat="42.68921" lon="1.91627">
        <ele>948.96</ele>
        <time>2013-12-23T08:56:21Z</time>
      </trkpt>
      <trkpt lat="42.68915" lon="1.91637">
        <ele>951.84</ele>
        <time>2013-12-23T08:56:33Z</time>
      </trkpt>
      <trkpt lat="42.68908" lon="1.91652">
        <ele>953.28</ele>
        <time>2013-12-23T08:56:49Z</time>
      </trkpt>
      <trkpt lat="42.68903" lon="1.91661">
        <ele>953.77</ele>
        <time>2013-12-23T08:57:01Z</time>
      </trkpt>
      <trkpt lat="42.68897" lon="1.91673">
        <ele>954.73</ele>
        <time>2013-12-23T08:57:16Z</time>
      </trkpt>
      <trkpt lat="42.68897" lon="1.91686">
        <ele>954.25</ele>
        <time>2013-12-23T08:57:29Z</time>
      </trkpt>
      <trkpt lat="42.68892" lon="1.91697">
        <ele>952.8</ele>
        <time>2013-12-23T08:57:40Z</time>
      </trkpt>
      <trkpt lat="42.68887" lon="1.91711">
        <ele>953.28</ele>
        <time>2013-12-23T08:57:53Z</time>
      </trkpt>
      <trkpt lat="42.68881" lon="1.91722">
        <ele>955.21</ele>
        <time>2013-12-23T08:58:05Z</time>
      </trkpt>
      <trkpt lat="42.68876" lon="1.91736">
        <ele>957.13</ele>
        <time>2013-12-23T08:58:18Z</time>
      </trkpt>
      <trkpt lat="42.68874" lon="1.91753">
        <ele>958.57</ele>
        <time>2013-12-23T08:58:31Z</time>
      </trkpt>
      <trkpt lat="42.68872" lon="1.9176">
        <ele>960.98</ele>
        <time>2013-12-23T08:58:44Z</time>
      </trkpt>
      <trkpt lat="42.68868" lon="1.91766">
        <ele>962.9</ele>
        <time>2013-12-23T08:59:04Z</time>
      </trkpt>
      <trkpt lat="42.68864" lon="1.9178">
        <ele>962.9</ele>
        <time>2013-12-23T08:59:19Z</time>
      </trkpt>
      <trkpt lat="42.68865" lon="1.91799">
        <ele>963.38</ele>
        <time>2013-12-23T08:59:33Z</time>
      </trkpt>
      <trkpt lat="42.68864" lon="1.91816">
        <ele>965.78</ele>
        <time>2013-12-23T08:59:48Z</time>
      </trkpt>
      <trkpt lat="42.68863" lon="1.91832">
        <ele>964.82</ele>
        <time>2013-12-23T09:00:02Z</time>
      </trkpt>
      <trkpt lat="42.68863" lon="1.91848">
        <ele>965.78</ele>
        <time>2013-12-23T09:00:16Z</time>
      </trkpt>
      <trkpt lat="42.68859" lon="1.91861">
        <ele>967.7</ele>
        <time>2013-12-23T09:00:29Z</time>
      </trkpt>
      <trkpt lat="42.68854" lon="1.91872">
        <ele>967.7</ele>
        <time>2013-12-23T09:00:41Z</time>
      </trkpt>
      <trkpt lat="42.68845" lon="1.91889">
        <ele>969.15</ele>
        <time>2013-12-23T09:00:56Z</time>
      </trkpt>
      <trkpt lat="42.68837" lon="1.91899">
        <ele>968.18</ele>
        <time>2013-12-23T09:01:10Z</time>
      </trkpt>
      <trkpt lat="42.68826" lon="1.91906">
        <ele>968.67</ele>
        <time>2013-12-23T09:01:24Z</time>
      </trkpt>
      <trkpt lat="42.68814" lon="1.91913">
        <ele>965.78</ele>
        <time>2013-12-23T09:01:38Z</time>
      </trkpt>
      <trkpt lat="42.68805" lon="1.91917">
        <ele>963.38</ele>
        <time>2013-12-23T09:01:51Z</time>
      </trkpt>
      <trkpt lat="42.68798" lon="1.91932">
        <ele>966.74</ele>
        <time>2013-12-23T09:02:05Z</time>
      </trkpt>
      <trkpt lat="42.6879" lon="1.91944">
        <ele>968.18</ele>
        <time>2013-12-23T09:02:21Z</time>
      </trkpt>
      <trkpt lat="42.68781" lon="1.91952">
        <ele>969.15</ele>
        <time>2013-12-23T09:02:35Z</time>
      </trkpt>
      <trkpt lat="42.68778" lon="1.91954">
        <ele>968.67</ele>
        <time>2013-12-23T09:02:40Z</time>
      </trkpt>
      <trkpt lat="42.6877" lon="1.91967">
        <ele>970.59</ele>
        <time>2013-12-23T09:02:54Z</time>
      </trkpt>
      <trkpt lat="42.68763" lon="1.91972">
        <ele>971.55</ele>
        <time>2013-12-23T09:03:06Z</time>
      </trkpt>
      <trkpt lat="42.68755" lon="1.91979">
        <ele>972.03</ele>
        <time>2013-12-23T09:03:19Z</time>
      </trkpt>
      <trkpt lat="42.68752" lon="1.91998">
        <ele>978.76</ele>
        <time>2013-12-23T09:03:33Z</time>
      </trkpt>
      <trkpt lat="42.68755" lon="1.92014">
        <ele>982.12</ele>
        <time>2013-12-23T09:03:43Z</time>
      </trkpt>
      <trkpt lat="42.68756" lon="1.92029">
        <ele>983.09</ele>
        <time>2013-12-23T09:03:55Z</time>
      </trkpt>
      <trkpt lat="42.6875" lon="1.92039">
        <ele>979.72</ele>
        <time>2013-12-23T09:04:09Z</time>
      </trkpt>
      <trkpt lat="42.68744" lon="1.92048">
        <ele>977.8</ele>
        <time>2013-12-23T09:04:22Z</time>
      </trkpt>
      <trkpt lat="42.68739" lon="1.92066">
        <ele>980.2</ele>
        <time>2013-12-23T09:04:35Z</time>
      </trkpt>
      <trkpt lat="42.68733" lon="1.9208">
        <ele>979.24</ele>
        <time>2013-12-23T09:04:50Z</time>
      </trkpt>
      <trkpt lat="42.68728" lon="1.92097">
        <ele>981.64</ele>
        <time>2013-12-23T09:05:03Z</time>
      </trkpt>
      <trkpt lat="42.68722" lon="1.92111">
        <ele>986.93</ele>
        <time>2013-12-23T09:05:16Z</time>
      </trkpt>
      <trkpt lat="42.68714" lon="1.92115">
        <ele>988.37</ele>
        <time>2013-12-23T09:05:27Z</time>
      </trkpt>
      <trkpt lat="42.68714" lon="1.92117">
        <ele>989.33</ele>
        <time>2013-12-23T09:05:29Z</time>
      </trkpt>
      <trkpt lat="42.68703" lon="1.92123">
        <ele>991.26</ele>
        <time>2013-12-23T09:05:41Z</time>
      </trkpt>
      <trkpt lat="42.68696" lon="1.92135">
        <ele>993.66</ele>
        <time>2013-12-23T09:05:55Z</time>
      </trkpt>
      <trkpt lat="42.68689" lon="1.92148">
        <ele>998.95</ele>
        <time>2013-12-23T09:06:10Z</time>
      </trkpt>
      <trkpt lat="42.6868" lon="1.92162">
        <ele>1000.87</ele>
        <time>2013-12-23T09:06:26Z</time>
      </trkpt>
      <trkpt lat="42.68677" lon="1.92177">
        <ele>1004.23</ele>
        <time>2013-12-23T09:06:38Z</time>
      </trkpt>
      <trkpt lat="42.68672" lon="1.92192">
        <ele>1005.2</ele>
        <time>2013-12-23T09:06:52Z</time>
      </trkpt>
      <trkpt lat="42.6867" lon="1.92208">
        <ele>1003.75</ele>
        <time>2013-12-23T09:07:06Z</time>
      </trkpt>
      <trkpt lat="42.68667" lon="1.92226">
        <ele>1004.23</ele>
        <time>2013-12-23T09:07:23Z</time>
      </trkpt>
      <trkpt lat="42.68664" lon="1.92239">
        <ele>1005.2</ele>
        <time>2013-12-23T09:07:38Z</time>
      </trkpt>
      <trkpt lat="42.68661" lon="1.92252">
        <ele>1005.68</ele>
        <time>2013-12-23T09:07:52Z</time>
      </trkpt>
      <trkpt lat="42.6866" lon="1.92255">
        <ele>1006.16</ele>
        <time>2013-12-23T09:07:55Z</time>
      </trkpt>
      <trkpt lat="42.68655" lon="1.92265">
        <ele>1006.64</ele>
        <time>2013-12-23T09:08:06Z</time>
      </trkpt>
      <trkpt lat="42.68651" lon="1.92277">
        <ele>1006.64</ele>
        <time>2013-12-23T09:08:18Z</time>
      </trkpt>
      <trkpt lat="42.68647" lon="1.9229">
        <ele>1005.68</ele>
        <time>2013-12-23T09:08:31Z</time>
      </trkpt>
      <trkpt lat="42.68641" lon="1.92305">
        <ele>1007.6</ele>
        <time>2013-12-23T09:08:44Z</time>
      </trkpt>
      <trkpt lat="42.6864" lon="1.92309">
        <ele>1008.08</ele>
        <time>2013-12-23T09:08:48Z</time>
      </trkpt>
      <trkpt lat="42.68633" lon="1.92321">
        <ele>1010.96</ele>
        <time>2013-12-23T09:09:02Z</time>
      </trkpt>
      <trkpt lat="42.68626" lon="1.92336">
        <ele>1012.89</ele>
        <time>2013-12-23T09:09:17Z</time>
      </trkpt>
      <trkpt lat="42.68618" lon="1.92349">
        <ele>1015.29</ele>
        <time>2013-12-23T09:09:34Z</time>
      </trkpt>
      <trkpt lat="42.68613" lon="1.9236">
        <ele>1012.41</ele>
        <time>2013-12-23T09:09:50Z</time>
      </trkpt>
      <trkpt lat="42.68612" lon="1.92376">
        <ele>1013.37</ele>
        <time>2013-12-23T09:10:05Z</time>
      </trkpt>
      <trkpt lat="42.68607" lon="1.92392">
        <ele>1015.77</ele>
        <time>2013-12-23T09:10:19Z</time>
      </trkpt>
      <trkpt lat="42.68603" lon="1.92404">
        <ele>1015.77</ele>
        <time>2013-12-23T09:10:33Z</time>
      </trkpt>
      <trkpt lat="42.68592" lon="1.92414">
        <ele>1013.85</ele>
        <time>2013-12-23T09:10:47Z</time>
      </trkpt>
      <trkpt lat="42.68585" lon="1.92424">
        <ele>1016.25</ele>
        <time>2013-12-23T09:10:59Z</time>
      </trkpt>
      <trkpt lat="42.68582" lon="1.9244">
        <ele>1019.13</ele>
        <time>2013-12-23T09:11:11Z</time>
      </trkpt>
      <trkpt lat="42.68581" lon="1.92457">
        <ele>1020.1</ele>
        <time>2013-12-23T09:11:26Z</time>
      </trkpt>
      <trkpt lat="42.68581" lon="1.92473">
        <ele>1018.17</ele>
        <time>2013-12-23T09:11:40Z</time>
      </trkpt>
      <trkpt lat="42.6858" lon="1.92487">
        <ele>1020.1</ele>
        <time>2013-12-23T09:11:51Z</time>
      </trkpt>
      <trkpt lat="42.68576" lon="1.92502">
        <ele>1021.54</ele>
        <time>2013-12-23T09:12:05Z</time>
      </trkpt>
      <trkpt lat="42.68575" lon="1.9252">
        <ele>1026.34</ele>
        <time>2013-12-23T09:12:17Z</time>
      </trkpt>
      <trkpt lat="42.68572" lon="1.92531">
        <ele>1028.27</ele>
        <time>2013-12-23T09:12:30Z</time>
      </trkpt>
      <trkpt lat="42.68569" lon="1.92544">
        <ele>1030.19</ele>
        <time>2013-12-23T09:12:42Z</time>
      </trkpt>
      <trkpt lat="42.68569" lon="1.92546">
        <ele>1029.71</ele>
        <time>2013-12-23T09:12:44Z</time>
      </trkpt>
      <trkpt lat="42.68565" lon="1.92562">
        <ele>1029.23</ele>
        <time>2013-12-23T09:12:58Z</time>
      </trkpt>
      <trkpt lat="42.6856" lon="1.92577">
        <ele>1028.27</ele>
        <time>2013-12-23T09:13:12Z</time>
      </trkpt>
      <trkpt lat="42.6856" lon="1.92577">
        <ele>1028.27</ele>
        <time>2013-12-23T09:13:13Z</time>
      </trkpt>
      <trkpt lat="42.68557" lon="1.9258">
        <ele>1027.79</ele>
        <time>2013-12-23T09:13:17Z</time>
      </trkpt>
      <trkpt lat="42.68555" lon="1.92603">
        <ele>1028.75</ele>
        <time>2013-12-23T09:13:33Z</time>
      </trkpt>
      <trkpt lat="42.68551" lon="1.92617">
        <ele>1031.15</ele>
        <time>2013-12-23T09:13:47Z</time>
      </trkpt>
      <trkpt lat="42.68549" lon="1.92622">
        <ele>1032.11</ele>
        <time>2013-12-23T09:13:52Z</time>
      </trkpt>
      <trkpt lat="42.68551" lon="1.9264">
        <ele>1031.63</ele>
        <time>2013-12-23T09:14:05Z</time>
      </trkpt>
      <trkpt lat="42.68559" lon="1.92663">
        <ele>1030.67</ele>
        <time>2013-12-23T09:14:20Z</time>
      </trkpt>
      <trkpt lat="42.68559" lon="1.92665">
        <ele>1030.19</ele>
        <time>2013-12-23T09:14:22Z</time>
      </trkpt>
      <trkpt lat="42.68555" lon="1.92684">
        <ele>1030.67</ele>
        <time>2013-12-23T09:14:38Z</time>
      </trkpt>
      <trkpt lat="42.68555" lon="1.92702">
        <ele>1031.15</ele>
        <time>2013-12-23T09:14:52Z</time>
      </trkpt>
      <trkpt lat="42.68555" lon="1.92704">
        <ele>1032.11</ele>
        <time>2013-12-23T09:14:59Z</time>
      </trkpt>
      <trkpt lat="42.68556" lon="1.92706">
        <ele>1032.59</ele>
        <time>2013-12-23T09:15:01Z</time>
      </trkpt>
      <trkpt lat="42.68551" lon="1.92726">
        <ele>1033.07</ele>
        <time>2013-12-23T09:15:16Z</time>
      </trkpt>
      <trkpt lat="42.68546" lon="1.92735">
        <ele>1033.07</ele>
        <time>2013-12-23T09:15:23Z</time>
      </trkpt>
      <trkpt lat="42.68535" lon="1.92752">
        <ele>1033.07</ele>
        <time>2013-12-23T09:15:35Z</time>
      </trkpt>
      <trkpt lat="42.68527" lon="1.92759">
        <ele>1033.55</ele>
        <time>2013-12-23T09:15:46Z</time>
      </trkpt>
      <trkpt lat="42.68525" lon="1.92763">
        <ele>1034.04</ele>
        <time>2013-12-23T09:15:49Z</time>
      </trkpt>
      <trkpt lat="42.68519" lon="1.92777">
        <ele>1034.04</ele>
        <time>2013-12-23T09:16:01Z</time>
      </trkpt>
      <trkpt lat="42.68513" lon="1.92795">
        <ele>1035.48</ele>
        <time>2013-12-23T09:16:15Z</time>
      </trkpt>
      <trkpt lat="42.68509" lon="1.92804">
        <ele>1035.96</ele>
        <time>2013-12-23T09:16:22Z</time>
      </trkpt>
      <trkpt lat="42.68508" lon="1.92808">
        <ele>1036.44</ele>
        <time>2013-12-23T09:16:26Z</time>
      </trkpt>
      <trkpt lat="42.68506" lon="1.92818">
        <ele>1035.96</ele>
        <time>2013-12-23T09:16:33Z</time>
      </trkpt>
      <trkpt lat="42.68499" lon="1.92831">
        <ele>1035.96</ele>
        <time>2013-12-23T09:16:45Z</time>
      </trkpt>
      <trkpt lat="42.68494" lon="1.92839">
        <ele>1037.4</ele>
        <time>2013-12-23T09:16:56Z</time>
      </trkpt>
      <trkpt lat="42.68491" lon="1.92848">
        <ele>1038.84</ele>
        <time>2013-12-23T09:17:03Z</time>
      </trkpt>
      <trkpt lat="42.68486" lon="1.92857">
        <ele>1039.32</ele>
        <time>2013-12-23T09:17:11Z</time>
      </trkpt>
      <trkpt lat="42.68483" lon="1.92864">
        <ele>1039.8</ele>
        <time>2013-12-23T09:17:17Z</time>
      </trkpt>
      <trkpt lat="42.68482" lon="1.92866">
        <ele>1040.28</ele>
        <time>2013-12-23T09:17:19Z</time>
      </trkpt>
      <trkpt lat="42.68476" lon="1.9288">
        <ele>1041.25</ele>
        <time>2013-12-23T09:17:33Z</time>
      </trkpt>
      <trkpt lat="42.68476" lon="1.92896">
        <ele>1037.4</ele>
        <time>2013-12-23T09:17:48Z</time>
      </trkpt>
      <trkpt lat="42.68478" lon="1.92913">
        <ele>1036.92</ele>
        <time>2013-12-23T09:18:03Z</time>
      </trkpt>
      <trkpt lat="42.68477" lon="1.92919">
        <ele>1036.44</ele>
        <time>2013-12-23T09:18:09Z</time>
      </trkpt>
      <trkpt lat="42.68482" lon="1.92937">
        <ele>1036.92</ele>
        <time>2013-12-23T09:18:23Z</time>
      </trkpt>
      <trkpt lat="42.68483" lon="1.92944">
        <ele>1036.92</ele>
        <time>2013-12-23T09:18:28Z</time>
      </trkpt>
      <trkpt lat="42.68483" lon="1.9296">
        <ele>1036.92</ele>
        <time>2013-12-23T09:18:39Z</time>
      </trkpt>
      <trkpt lat="42.68482" lon="1.92973">
        <ele>1035.96</ele>
        <time>2013-12-23T09:18:50Z</time>
      </trkpt>
      <trkpt lat="42.68485" lon="1.92988">
        <ele>1035.48</ele>
        <time>2013-12-23T09:19:01Z</time>
      </trkpt>
      <trkpt lat="42.68486" lon="1.92999">
        <ele>1035.96</ele>
        <time>2013-12-23T09:19:12Z</time>
      </trkpt>
      <trkpt lat="42.68487" lon="1.93001">
        <ele>1035.96</ele>
        <time>2013-12-23T09:19:14Z</time>
      </trkpt>
      <trkpt lat="42.68495" lon="1.93016">
        <ele>1035.48</ele>
        <time>2013-12-23T09:19:27Z</time>
      </trkpt>
      <trkpt lat="42.68497" lon="1.9303">
        <ele>1034.52</ele>
        <time>2013-12-23T09:19:40Z</time>
      </trkpt>
      <trkpt lat="42.685" lon="1.93046">
        <ele>1036.44</ele>
        <time>2013-12-23T09:19:53Z</time>
      </trkpt>
      <trkpt lat="42.68504" lon="1.9306">
        <ele>1036.44</ele>
        <time>2013-12-23T09:20:05Z</time>
      </trkpt>
      <trkpt lat="42.68503" lon="1.93078">
        <ele>1037.88</ele>
        <time>2013-12-23T09:20:19Z</time>
      </trkpt>
      <trkpt lat="42.68506" lon="1.93093">
        <ele>1038.84</ele>
        <time>2013-12-23T09:20:30Z</time>
      </trkpt>
      <trkpt lat="42.68507" lon="1.93109">
        <ele>1040.28</ele>
        <time>2013-12-23T09:20:44Z</time>
      </trkpt>
      <trkpt lat="42.68506" lon="1.93128">
        <ele>1040.76</ele>
        <time>2013-12-23T09:20:56Z</time>
      </trkpt>
      <trkpt lat="42.68499" lon="1.93135">
        <ele>1039.8</ele>
        <time>2013-12-23T09:21:06Z</time>
      </trkpt>
      <trkpt lat="42.68497" lon="1.93142">
        <ele>1040.28</ele>
        <time>2013-12-23T09:21:11Z</time>
      </trkpt>
      <trkpt lat="42.68495" lon="1.93148">
        <ele>1041.25</ele>
        <time>2013-12-23T09:21:16Z</time>
      </trkpt>
      <trkpt lat="42.6849" lon="1.93165">
        <ele>1044.13</ele>
        <time>2013-12-23T09:21:28Z</time>
      </trkpt>
      <trkpt lat="42.68487" lon="1.93177">
        <ele>1043.65</ele>
        <time>2013-12-23T09:21:41Z</time>
      </trkpt>
      <trkpt lat="42.68485" lon="1.93194">
        <ele>1044.61</ele>
        <time>2013-12-23T09:21:52Z</time>
      </trkpt>
      <trkpt lat="42.68485" lon="1.93196">
        <ele>1044.61</ele>
        <time>2013-12-23T09:21:53Z</time>
      </trkpt>
      <trkpt lat="42.68484" lon="1.93201">
        <ele>1045.09</ele>
        <time>2013-12-23T09:21:56Z</time>
      </trkpt>
      <trkpt lat="42.68482" lon="1.93204">
        <ele>1045.57</ele>
        <time>2013-12-23T09:21:58Z</time>
      </trkpt>
      <trkpt lat="42.68478" lon="1.93209">
        <ele>1046.05</ele>
        <time>2013-12-23T09:22:04Z</time>
      </trkpt>
      <trkpt lat="42.68469" lon="1.93219">
        <ele>1047.97</ele>
        <time>2013-12-23T09:22:16Z</time>
      </trkpt>
      <trkpt lat="42.68464" lon="1.93232">
        <ele>1048.94</ele>
        <time>2013-12-23T09:22:27Z</time>
      </trkpt>
      <trkpt lat="42.68458" lon="1.93245">
        <ele>1047.49</ele>
        <time>2013-12-23T09:22:38Z</time>
      </trkpt>
      <trkpt lat="42.68451" lon="1.93256">
        <ele>1048.45</ele>
        <time>2013-12-23T09:22:50Z</time>
      </trkpt>
      <trkpt lat="42.6845" lon="1.93259">
        <ele>1047.97</ele>
        <time>2013-12-23T09:22:52Z</time>
      </trkpt>
      <trkpt lat="42.68446" lon="1.93266">
        <ele>1047.97</ele>
        <time>2013-12-23T09:22:57Z</time>
      </trkpt>
      <trkpt lat="42.68442" lon="1.93279">
        <ele>1050.86</ele>
        <time>2013-12-23T09:23:08Z</time>
      </trkpt>
      <trkpt lat="42.68441" lon="1.93282">
        <ele>1050.86</ele>
        <time>2013-12-23T09:23:10Z</time>
      </trkpt>
      <trkpt lat="42.6844" lon="1.93293">
        <ele>1051.82</ele>
        <time>2013-12-23T09:23:18Z</time>
      </trkpt>
      <trkpt lat="42.68434" lon="1.93298">
        <ele>1053.26</ele>
        <time>2013-12-23T09:23:23Z</time>
      </trkpt>
      <trkpt lat="42.68433" lon="1.93311">
        <ele>1054.22</ele>
        <time>2013-12-23T09:23:33Z</time>
      </trkpt>
      <trkpt lat="42.68424" lon="1.93319">
        <ele>1056.15</ele>
        <time>2013-12-23T09:23:44Z</time>
      </trkpt>
      <trkpt lat="42.68417" lon="1.93328">
        <ele>1055.18</ele>
        <time>2013-12-23T09:23:57Z</time>
      </trkpt>
      <trkpt lat="42.68407" lon="1.93337">
        <ele>1055.18</ele>
        <time>2013-12-23T09:24:11Z</time>
      </trkpt>
      <trkpt lat="42.68406" lon="1.9334">
        <ele>1055.67</ele>
        <time>2013-12-23T09:24:13Z</time>
      </trkpt>
      <trkpt lat="42.68397" lon="1.93353">
        <ele>1054.7</ele>
        <time>2013-12-23T09:24:28Z</time>
      </trkpt>
      <trkpt lat="42.68387" lon="1.93364">
        <ele>1056.63</ele>
        <time>2013-12-23T09:24:40Z</time>
      </trkpt>
      <trkpt lat="42.68379" lon="1.93375">
        <ele>1057.11</ele>
        <time>2013-12-23T09:24:52Z</time>
      </trkpt>
      <trkpt lat="42.68368" lon="1.93384">
        <ele>1058.55</ele>
        <time>2013-12-23T09:25:04Z</time>
      </trkpt>
      <trkpt lat="42.68362" lon="1.93388">
        <ele>1059.03</ele>
        <time>2013-12-23T09:25:10Z</time>
      </trkpt>
      <trkpt lat="42.68354" lon="1.93393">
        <ele>1060.47</ele>
        <time>2013-12-23T09:25:18Z</time>
      </trkpt>
      <trkpt lat="42.68354" lon="1.93404">
        <ele>1058.55</ele>
        <time>2013-12-23T09:25:27Z</time>
      </trkpt>
      <trkpt lat="42.68347" lon="1.93406">
        <ele>1058.07</ele>
        <time>2013-12-23T09:25:36Z</time>
      </trkpt>
      <trkpt lat="42.6834" lon="1.93407">
        <ele>1057.11</ele>
        <time>2013-12-23T09:25:43Z</time>
      </trkpt>
      <trkpt lat="42.68334" lon="1.9341">
        <ele>1057.11</ele>
        <time>2013-12-23T09:25:51Z</time>
      </trkpt>
      <trkpt lat="42.68328" lon="1.93416">
        <ele>1056.63</ele>
        <time>2013-12-23T09:25:59Z</time>
      </trkpt>
      <trkpt lat="42.68325" lon="1.93419">
        <ele>1056.63</ele>
        <time>2013-12-23T09:26:02Z</time>
      </trkpt>
      <trkpt lat="42.68323" lon="1.9342">
        <ele>1056.15</ele>
        <time>2013-12-23T09:26:04Z</time>
      </trkpt>
      <trkpt lat="42.68321" lon="1.93423">
        <ele>1054.7</ele>
        <time>2013-12-23T09:26:08Z</time>
      </trkpt>
      <trkpt lat="42.68319" lon="1.93424">
        <ele>1054.22</ele>
        <time>2013-12-23T09:26:09Z</time>
      </trkpt>
      <trkpt lat="42.68315" lon="1.9343">
        <ele>1051.34</ele>
        <time>2013-12-23T09:26:20Z</time>
      </trkpt>
      <trkpt lat="42.68313" lon="1.93445">
        <ele>1051.34</ele>
        <time>2013-12-23T09:26:32Z</time>
      </trkpt>
      <trkpt lat="42.6831" lon="1.93461">
        <ele>1054.7</ele>
        <time>2013-12-23T09:26:46Z</time>
      </trkpt>
      <trkpt lat="42.68307" lon="1.93477">
        <ele>1057.11</ele>
        <time>2013-12-23T09:26:58Z</time>
      </trkpt>
      <trkpt lat="42.68307" lon="1.93479">
        <ele>1057.11</ele>
        <time>2013-12-23T09:27:00Z</time>
      </trkpt>
      <trkpt lat="42.68303" lon="1.93492">
        <ele>1059.51</ele>
        <time>2013-12-23T09:27:12Z</time>
      </trkpt>
      <trkpt lat="42.68301" lon="1.93499">
        <ele>1059.99</ele>
        <time>2013-12-23T09:27:18Z</time>
      </trkpt>
      <trkpt lat="42.68297" lon="1.93515">
        <ele>1063.84</ele>
        <time>2013-12-23T09:27:30Z</time>
      </trkpt>
      <trkpt lat="42.68293" lon="1.93533">
        <ele>1065.76</ele>
        <time>2013-12-23T09:27:45Z</time>
      </trkpt>
      <trkpt lat="42.68292" lon="1.93554">
        <ele>1068.64</ele>
        <time>2013-12-23T09:28:01Z</time>
      </trkpt>
      <trkpt lat="42.6829" lon="1.93568">
        <ele>1068.64</ele>
        <time>2013-12-23T09:28:15Z</time>
      </trkpt>
      <trkpt lat="42.6829" lon="1.93581">
        <ele>1069.12</ele>
        <time>2013-12-23T09:28:27Z</time>
      </trkpt>
      <trkpt lat="42.68288" lon="1.93593">
        <ele>1070.08</ele>
        <time>2013-12-23T09:28:38Z</time>
      </trkpt>
      <trkpt lat="42.68286" lon="1.93608">
        <ele>1072.49</ele>
        <time>2013-12-23T09:28:48Z</time>
      </trkpt>
      <trkpt lat="42.68285" lon="1.93618">
        <ele>1070.57</ele>
        <time>2013-12-23T09:28:59Z</time>
      </trkpt>
      <trkpt lat="42.68283" lon="1.93627">
        <ele>1070.57</ele>
        <time>2013-12-23T09:29:09Z</time>
      </trkpt>
      <trkpt lat="42.68278" lon="1.93642">
        <ele>1072.97</ele>
        <time>2013-12-23T09:29:23Z</time>
      </trkpt>
      <trkpt lat="42.68275" lon="1.93658">
        <ele>1075.85</ele>
        <time>2013-12-23T09:29:37Z</time>
      </trkpt>
      <trkpt lat="42.68274" lon="1.93673">
        <ele>1077.29</ele>
        <time>2013-12-23T09:29:49Z</time>
      </trkpt>
      <trkpt lat="42.68268" lon="1.93683">
        <ele>1077.78</ele>
        <time>2013-12-23T09:30:01Z</time>
      </trkpt>
      <trkpt lat="42.68264" lon="1.93697">
        <ele>1081.14</ele>
        <time>2013-12-23T09:30:09Z</time>
      </trkpt>
      <trkpt lat="42.68264" lon="1.937">
        <ele>1081.62</ele>
        <time>2013-12-23T09:30:11Z</time>
      </trkpt>
      <trkpt lat="42.6826" lon="1.93708">
        <ele>1082.58</ele>
        <time>2013-12-23T09:30:18Z</time>
      </trkpt>
      <trkpt lat="42.68259" lon="1.93719">
        <ele>1082.1</ele>
        <time>2013-12-23T09:30:27Z</time>
      </trkpt>
      <trkpt lat="42.68258" lon="1.93724">
        <ele>1081.14</ele>
        <time>2013-12-23T09:30:32Z</time>
      </trkpt>
      <trkpt lat="42.68249" lon="1.93728">
        <ele>1079.22</ele>
        <time>2013-12-23T09:30:42Z</time>
      </trkpt>
      <trkpt lat="42.68239" lon="1.9373">
        <ele>1078.74</ele>
        <time>2013-12-23T09:30:50Z</time>
      </trkpt>
      <trkpt lat="42.68233" lon="1.93734">
        <ele>1081.14</ele>
        <time>2013-12-23T09:30:59Z</time>
      </trkpt>
      <trkpt lat="42.68225" lon="1.93738">
        <ele>1081.62</ele>
        <time>2013-12-23T09:31:08Z</time>
      </trkpt>
      <trkpt lat="42.68219" lon="1.93743">
        <ele>1082.1</ele>
        <time>2013-12-23T09:31:17Z</time>
      </trkpt>
      <trkpt lat="42.68211" lon="1.93752">
        <ele>1082.58</ele>
        <time>2013-12-23T09:31:29Z</time>
      </trkpt>
      <trkpt lat="42.68202" lon="1.93763">
        <ele>1086.43</ele>
        <time>2013-12-23T09:31:41Z</time>
      </trkpt>
      <trkpt lat="42.68197" lon="1.93776">
        <ele>1085.95</ele>
        <time>2013-12-23T09:31:56Z</time>
      </trkpt>
      <trkpt lat="42.68191" lon="1.93787">
        <ele>1083.54</ele>
        <time>2013-12-23T09:32:10Z</time>
      </trkpt>
      <trkpt lat="42.68187" lon="1.93795">
        <ele>1086.43</ele>
        <time>2013-12-23T09:32:19Z</time>
      </trkpt>
      <trkpt lat="42.68181" lon="1.93803">
        <ele>1088.35</ele>
        <time>2013-12-23T09:32:31Z</time>
      </trkpt>
      <trkpt lat="42.68177" lon="1.93812">
        <ele>1089.79</ele>
        <time>2013-12-23T09:32:40Z</time>
      </trkpt>
      <trkpt lat="42.68168" lon="1.93822">
        <ele>1092.68</ele>
        <time>2013-12-23T09:32:52Z</time>
      </trkpt>
      <trkpt lat="42.68166" lon="1.93826">
        <ele>1092.68</ele>
        <time>2013-12-23T09:32:56Z</time>
      </trkpt>
      <trkpt lat="42.68162" lon="1.9383">
        <ele>1093.16</ele>
        <time>2013-12-23T09:33:02Z</time>
      </trkpt>
      <trkpt lat="42.68161" lon="1.9383">
        <ele>1093.16</ele>
        <time>2013-12-23T09:33:03Z</time>
      </trkpt>
      <trkpt lat="42.68161" lon="1.93832">
        <ele>1093.16</ele>
        <time>2013-12-23T09:33:04Z</time>
      </trkpt>
      <trkpt lat="42.68162" lon="1.93834">
        <ele>1093.16</ele>
        <time>2013-12-23T09:33:05Z</time>
      </trkpt>
      <trkpt lat="42.6816" lon="1.93837">
        <ele>1093.64</ele>
        <time>2013-12-23T09:33:07Z</time>
      </trkpt>
      <trkpt lat="42.68158" lon="1.93841">
        <ele>1095.08</ele>
        <time>2013-12-23T09:33:11Z</time>
      </trkpt>
      <trkpt lat="42.68153" lon="1.93849">
        <ele>1096.52</ele>
        <time>2013-12-23T09:33:21Z</time>
      </trkpt>
      <trkpt lat="42.6815" lon="1.93857">
        <ele>1097.96</ele>
        <time>2013-12-23T09:33:30Z</time>
      </trkpt>
      <trkpt lat="42.68148" lon="1.93873">
        <ele>1098.44</ele>
        <time>2013-12-23T09:33:43Z</time>
      </trkpt>
      <trkpt lat="42.68144" lon="1.93893">
        <ele>1099.4</ele>
        <time>2013-12-23T09:33:59Z</time>
      </trkpt>
      <trkpt lat="42.68145" lon="1.93906">
        <ele>1100.37</ele>
        <time>2013-12-23T09:34:12Z</time>
      </trkpt>
      <trkpt lat="42.68145" lon="1.93919">
        <ele>1101.81</ele>
        <time>2013-12-23T09:34:26Z</time>
      </trkpt>
      <trkpt lat="42.68144" lon="1.93923">
        <ele>1101.81</ele>
        <time>2013-12-23T09:34:29Z</time>
      </trkpt>
      <trkpt lat="42.68144" lon="1.93929">
        <ele>1102.77</ele>
        <time>2013-12-23T09:34:33Z</time>
      </trkpt>
      <trkpt lat="42.68144" lon="1.93936">
        <ele>1103.73</ele>
        <time>2013-12-23T09:34:37Z</time>
      </trkpt>
      <trkpt lat="42.68144" lon="1.93938">
        <ele>1104.21</ele>
        <time>2013-12-23T09:34:38Z</time>
      </trkpt>
      <trkpt lat="42.68143" lon="1.93956">
        <ele>1104.21</ele>
        <time>2013-12-23T09:34:52Z</time>
      </trkpt>
      <trkpt lat="42.68143" lon="1.93962">
        <ele>1103.25</ele>
        <time>2013-12-23T09:35:07Z</time>
      </trkpt>
      <trkpt lat="42.68144" lon="1.93964">
        <ele>1103.73</ele>
        <time>2013-12-23T09:35:09Z</time>
      </trkpt>
      <trkpt lat="42.68148" lon="1.93984">
        <ele>1104.21</ele>
        <time>2013-12-23T09:35:24Z</time>
      </trkpt>
      <trkpt lat="42.6815" lon="1.93999">
        <ele>1104.69</ele>
        <time>2013-12-23T09:35:38Z</time>
      </trkpt>
      <trkpt lat="42.68148" lon="1.94004">
        <ele>1104.21</ele>
        <time>2013-12-23T09:36:00Z</time>
      </trkpt>
      <trkpt lat="42.68146" lon="1.94015">
        <ele>1108.06</ele>
        <time>2013-12-23T09:36:14Z</time>
      </trkpt>
      <trkpt lat="42.68139" lon="1.9402">
        <ele>1107.1</ele>
        <time>2013-12-23T09:36:30Z</time>
      </trkpt>
      <trkpt lat="42.68136" lon="1.94018">
        <ele>1108.06</ele>
        <time>2013-12-23T09:36:47Z</time>
      </trkpt>
      <trkpt lat="42.6813" lon="1.94012">
        <ele>1109.02</ele>
        <time>2013-12-23T09:37:00Z</time>
      </trkpt>
      <trkpt lat="42.68132" lon="1.94012">
        <ele>1108.54</ele>
        <time>2013-12-23T09:37:17Z</time>
      </trkpt>
      <trkpt lat="42.68136" lon="1.9401">
        <ele>1109.02</ele>
        <time>2013-12-23T09:37:34Z</time>
      </trkpt>
      <trkpt lat="42.68142" lon="1.94013">
        <ele>1112.38</ele>
        <time>2013-12-23T09:38:05Z</time>
      </trkpt>
      <trkpt lat="42.68145" lon="1.94014">
        <ele>1113.82</ele>
        <time>2013-12-23T09:38:23Z</time>
      </trkpt>
      <trkpt lat="42.68142" lon="1.94014">
        <ele>1114.79</ele>
        <time>2013-12-23T09:38:38Z</time>
      </trkpt>
      <trkpt lat="42.68137" lon="1.94019">
        <ele>1110.94</ele>
        <time>2013-12-23T09:39:03Z</time>
      </trkpt>
      <trkpt lat="42.68136" lon="1.94019">
        <ele>1112.38</ele>
        <time>2013-12-23T09:39:25Z</time>
      </trkpt>
      <trkpt lat="42.68137" lon="1.9402">
        <ele>1113.34</ele>
        <time>2013-12-23T09:39:45Z</time>
      </trkpt>
      <trkpt lat="42.68137" lon="1.9402">
        <ele>1112.38</ele>
        <time>2013-12-23T09:40:00Z</time>
      </trkpt>
      <trkpt lat="42.68136" lon="1.94017">
        <ele>1110.46</ele>
        <time>2013-12-23T09:40:19Z</time>
      </trkpt>
      <trkpt lat="42.68135" lon="1.94018">
        <ele>1107.58</ele>
        <time>2013-12-23T09:40:34Z</time>
      </trkpt>
      <trkpt lat="42.68134" lon="1.94018">
        <ele>1108.06</ele>
        <time>2013-12-23T09:40:50Z</time>
      </trkpt>
      <trkpt lat="42.68127" lon="1.94023">
        <ele>1105.65</ele>
        <time>2013-12-23T09:41:02Z</time>
      </trkpt>
      <trkpt lat="42.68126" lon="1.94022">
        <ele>1106.13</ele>
        <time>2013-12-23T09:41:19Z</time>
      </trkpt>
      <trkpt lat="42.68123" lon="1.9404">
        <ele>1106.61</ele>
        <time>2013-12-23T09:41:34Z</time>
      </trkpt>
      <trkpt lat="42.68115" lon="1.94055">
        <ele>1104.69</ele>
        <time>2013-12-23T09:41:48Z</time>
      </trkpt>
      <trkpt lat="42.68112" lon="1.94059">
        <ele>1106.13</ele>
        <time>2013-12-23T09:41:51Z</time>
      </trkpt>
      <trkpt lat="42.68107" lon="1.94064">
        <ele>1109.98</ele>
        <time>2013-12-23T09:42:02Z</time>
      </trkpt>
      <trkpt lat="42.68107" lon="1.94063">
        <ele>1112.38</ele>
        <time>2013-12-23T09:42:16Z</time>
      </trkpt>
      <trkpt lat="42.68103" lon="1.9406">
        <ele>1111.9</ele>
        <time>2013-12-23T09:42:22Z</time>
      </trkpt>
      <trkpt lat="42.68104" lon="1.94055">
        <ele>1111.9</ele>
        <time>2013-12-23T09:42:36Z</time>
      </trkpt>
      <trkpt lat="42.68105" lon="1.94052">
        <ele>1116.23</ele>
        <time>2013-12-23T09:42:56Z</time>
      </trkpt>
      <trkpt lat="42.68108" lon="1.9406">
        <ele>1115.75</ele>
        <time>2013-12-23T09:43:21Z</time>
      </trkpt>
      <trkpt lat="42.68107" lon="1.94056">
        <ele>1116.23</ele>
        <time>2013-12-23T09:43:43Z</time>
      </trkpt>
      <trkpt lat="42.68105" lon="1.94056">
        <ele>1117.19</ele>
        <time>2013-12-23T09:44:08Z</time>
      </trkpt>
      <trkpt lat="42.68107" lon="1.94056">
        <ele>1117.19</ele>
        <time>2013-12-23T09:44:31Z</time>
      </trkpt>
      <trkpt lat="42.68107" lon="1.94052">
        <ele>1119.11</ele>
        <time>2013-12-23T09:44:51Z</time>
      </trkpt>
      <trkpt lat="42.6811" lon="1.94049">
        <ele>1117.67</ele>
        <time>2013-12-23T09:45:07Z</time>
      </trkpt>
      <trkpt lat="42.68101" lon="1.94031">
        <ele>1118.63</ele>
        <time>2013-12-23T09:45:24Z</time>
      </trkpt>
      <trkpt lat="42.68096" lon="1.94008">
        <ele>1120.07</ele>
        <time>2013-12-23T09:45:45Z</time>
      </trkpt>
      <trkpt lat="42.6809" lon="1.9399">
        <ele>1120.07</ele>
        <time>2013-12-23T09:46:05Z</time>
      </trkpt>
      <trkpt lat="42.68081" lon="1.93977">
        <ele>1123.44</ele>
        <time>2013-12-23T09:46:26Z</time>
      </trkpt>
      <trkpt lat="42.68072" lon="1.93983">
        <ele>1126.32</ele>
        <time>2013-12-23T09:46:45Z</time>
      </trkpt>
      <trkpt lat="42.68062" lon="1.93987">
        <ele>1127.76</ele>
        <time>2013-12-23T09:47:02Z</time>
      </trkpt>
      <trkpt lat="42.68055" lon="1.93973">
        <ele>1130.17</ele>
        <time>2013-12-23T09:47:23Z</time>
      </trkpt>
      <trkpt lat="42.68046" lon="1.93987">
        <ele>1130.17</ele>
        <time>2013-12-23T09:47:39Z</time>
      </trkpt>
      <trkpt lat="42.68038" lon="1.93997">
        <ele>1134.49</ele>
        <time>2013-12-23T09:47:56Z</time>
      </trkpt>
      <trkpt lat="42.68031" lon="1.94011">
        <ele>1137.86</ele>
        <time>2013-12-23T09:48:13Z</time>
      </trkpt>
      <trkpt lat="42.68023" lon="1.94013">
        <ele>1137.86</ele>
        <time>2013-12-23T09:48:31Z</time>
      </trkpt>
      <trkpt lat="42.68011" lon="1.94008">
        <ele>1139.3</ele>
        <time>2013-12-23T09:48:47Z</time>
      </trkpt>
      <trkpt lat="42.68003" lon="1.94015">
        <ele>1142.66</ele>
        <time>2013-12-23T09:49:04Z</time>
      </trkpt>
      <trkpt lat="42.68002" lon="1.94021">
        <ele>1145.07</ele>
        <time>2013-12-23T09:49:22Z</time>
      </trkpt>
      <trkpt lat="42.67998" lon="1.94006">
        <ele>1148.91</ele>
        <time>2013-12-23T09:49:42Z</time>
      </trkpt>
      <trkpt lat="42.67989" lon="1.94017">
        <ele>1149.39</ele>
        <time>2013-12-23T09:50:00Z</time>
      </trkpt>
      <trkpt lat="42.67977" lon="1.94029">
        <ele>1148.43</ele>
        <time>2013-12-23T09:50:16Z</time>
      </trkpt>
      <trkpt lat="42.67975" lon="1.94011">
        <ele>1146.99</ele>
        <time>2013-12-23T09:50:34Z</time>
      </trkpt>
      <trkpt lat="42.67977" lon="1.93993">
        <ele>1152.28</ele>
        <time>2013-12-23T09:50:54Z</time>
      </trkpt>
      <trkpt lat="42.67978" lon="1.93984">
        <ele>1157.08</ele>
        <time>2013-12-23T09:51:10Z</time>
      </trkpt>
      <trkpt lat="42.67968" lon="1.93982">
        <ele>1154.2</ele>
        <time>2013-12-23T09:51:25Z</time>
      </trkpt>
      <trkpt lat="42.67966" lon="1.93981">
        <ele>1159.01</ele>
        <time>2013-12-23T09:51:41Z</time>
      </trkpt>
      <trkpt lat="42.67966" lon="1.93984">
        <ele>1161.41</ele>
        <time>2013-12-23T09:51:59Z</time>
      </trkpt>
      <trkpt lat="42.67962" lon="1.93993">
        <ele>1164.29</ele>
        <time>2013-12-23T09:52:18Z</time>
      </trkpt>
      <trkpt lat="42.6796" lon="1.93986">
        <ele>1171.98</ele>
        <time>2013-12-23T09:52:38Z</time>
      </trkpt>
      <trkpt lat="42.67951" lon="1.94008">
        <ele>1172.95</ele>
        <time>2013-12-23T09:52:59Z</time>
      </trkpt>
      <trkpt lat="42.67943" lon="1.93999">
        <ele>1175.35</ele>
        <time>2013-12-23T09:53:17Z</time>
      </trkpt>
      <trkpt lat="42.67948" lon="1.93973">
        <ele>1179.67</ele>
        <time>2013-12-23T09:53:34Z</time>
      </trkpt>
      <trkpt lat="42.67952" lon="1.93953">
        <ele>1180.16</ele>
        <time>2013-12-23T09:53:52Z</time>
      </trkpt>
      <trkpt lat="42.67946" lon="1.93942">
        <ele>1176.31</ele>
        <time>2013-12-23T09:54:11Z</time>
      </trkpt>
      <trkpt lat="42.6794" lon="1.93919">
        <ele>1173.91</ele>
        <time>2013-12-23T09:54:32Z</time>
      </trkpt>
      <trkpt lat="42.67938" lon="1.939">
        <ele>1178.71</ele>
        <time>2013-12-23T09:54:50Z</time>
      </trkpt>
      <trkpt lat="42.6793" lon="1.93878">
        <ele>1188.81</ele>
        <time>2013-12-23T09:55:08Z</time>
      </trkpt>
      <trkpt lat="42.67935" lon="1.93871">
        <ele>1189.77</ele>
        <time>2013-12-23T09:55:23Z</time>
      </trkpt>
      <trkpt lat="42.6793" lon="1.93859">
        <ele>1189.29</ele>
        <time>2013-12-23T09:55:41Z</time>
      </trkpt>
      <trkpt lat="42.67924" lon="1.93849">
        <ele>1192.17</ele>
        <time>2013-12-23T09:56:03Z</time>
      </trkpt>
      <trkpt lat="42.67922" lon="1.93829">
        <ele>1192.65</ele>
        <time>2013-12-23T09:56:27Z</time>
      </trkpt>
      <trkpt lat="42.67916" lon="1.93801">
        <ele>1202.27</ele>
        <time>2013-12-23T09:56:49Z</time>
      </trkpt>
      <trkpt lat="42.67911" lon="1.93787">
        <ele>1206.11</ele>
        <time>2013-12-23T09:57:11Z</time>
      </trkpt>
      <trkpt lat="42.67909" lon="1.93771">
        <ele>1204.67</ele>
        <time>2013-12-23T09:57:32Z</time>
      </trkpt>
      <trkpt lat="42.67905" lon="1.93768">
        <ele>1206.11</ele>
        <time>2013-12-23T09:57:52Z</time>
      </trkpt>
      <trkpt lat="42.67897" lon="1.93797">
        <ele>1208.51</ele>
        <time>2013-12-23T09:58:11Z</time>
      </trkpt>
      <trkpt lat="42.67898" lon="1.9382">
        <ele>1209.48</ele>
        <time>2013-12-23T09:58:33Z</time>
      </trkpt>
      <trkpt lat="42.67877" lon="1.93841">
        <ele>1219.09</ele>
        <time>2013-12-23T09:58:58Z</time>
      </trkpt>
      <trkpt lat="42.67879" lon="1.93845">
        <ele>1223.9</ele>
        <time>2013-12-23T09:59:23Z</time>
      </trkpt>
      <trkpt lat="42.67876" lon="1.93849">
        <ele>1226.3</ele>
        <time>2013-12-23T09:59:42Z</time>
      </trkpt>
      <trkpt lat="42.67889" lon="1.93853">
        <ele>1228.22</ele>
        <time>2013-12-23T10:00:06Z</time>
      </trkpt>
      <trkpt lat="42.67884" lon="1.9386">
        <ele>1224.86</ele>
        <time>2013-12-23T10:00:28Z</time>
      </trkpt>
      <trkpt lat="42.67877" lon="1.93884">
        <ele>1226.3</ele>
        <time>2013-12-23T10:00:48Z</time>
      </trkpt>
      <trkpt lat="42.67867" lon="1.93899">
        <ele>1224.86</ele>
        <time>2013-12-23T10:01:08Z</time>
      </trkpt>
      <trkpt lat="42.67855" lon="1.93911">
        <ele>1226.78</ele>
        <time>2013-12-23T10:01:26Z</time>
      </trkpt>
      <trkpt lat="42.67849" lon="1.93902">
        <ele>1228.22</ele>
        <time>2013-12-23T10:01:51Z</time>
      </trkpt>
      <trkpt lat="42.67858" lon="1.93907">
        <ele>1241.2</ele>
        <time>2013-12-23T10:02:15Z</time>
      </trkpt>
      <trkpt lat="42.67857" lon="1.93903">
        <ele>1230.14</ele>
        <time>2013-12-23T10:02:38Z</time>
      </trkpt>
      <trkpt lat="42.67855" lon="1.939">
        <ele>1230.14</ele>
        <time>2013-12-23T10:02:59Z</time>
      </trkpt>
      <trkpt lat="42.67857" lon="1.93904">
        <ele>1231.59</ele>
        <time>2013-12-23T10:03:23Z</time>
      </trkpt>
      <trkpt lat="42.67859" lon="1.93907">
        <ele>1233.03</ele>
        <time>2013-12-23T10:03:44Z</time>
      </trkpt>
      <trkpt lat="42.67856" lon="1.93906">
        <ele>1231.11</ele>
        <time>2013-12-23T10:04:12Z</time>
      </trkpt>
      <trkpt lat="42.67855" lon="1.93905">
        <ele>1243.6</ele>
        <time>2013-12-23T10:04:35Z</time>
      </trkpt>
      <trkpt lat="42.67853" lon="1.939">
        <ele>1245.04</ele>
        <time>2013-12-23T10:04:54Z</time>
      </trkpt>
      <trkpt lat="42.67859" lon="1.93893">
        <ele>1245.04</ele>
        <time>2013-12-23T10:05:15Z</time>
      </trkpt>
      <trkpt lat="42.67863" lon="1.93883">
        <ele>1244.56</ele>
        <time>2013-12-23T10:05:35Z</time>
      </trkpt>
      <trkpt lat="42.67869" lon="1.93874">
        <ele>1244.08</ele>
        <time>2013-12-23T10:05:55Z</time>
      </trkpt>
      <trkpt lat="42.67857" lon="1.93862">
        <ele>1243.12</ele>
        <time>2013-12-23T10:06:14Z</time>
      </trkpt>
      <trkpt lat="42.67845" lon="1.9385">
        <ele>1241.68</ele>
        <time>2013-12-23T10:06:31Z</time>
      </trkpt>
      <trkpt lat="42.67833" lon="1.93829">
        <ele>1249.85</ele>
        <time>2013-12-23T10:06:49Z</time>
      </trkpt>
      <trkpt lat="42.67827" lon="1.9382">
        <ele>1254.66</ele>
        <time>2013-12-23T10:07:10Z</time>
      </trkpt>
      <trkpt lat="42.67829" lon="1.93805">
        <ele>1258.5</ele>
        <time>2013-12-23T10:07:27Z</time>
      </trkpt>
      <trkpt lat="42.67832" lon="1.93801">
        <ele>1259.94</ele>
        <time>2013-12-23T10:07:43Z</time>
      </trkpt>
      <trkpt lat="42.67837" lon="1.93801">
        <ele>1259.94</ele>
        <time>2013-12-23T10:08:04Z</time>
      </trkpt>
      <trkpt lat="42.67842" lon="1.93787">
        <ele>1261.39</ele>
        <time>2013-12-23T10:08:26Z</time>
      </trkpt>
      <trkpt lat="42.67847" lon="1.93769">
        <ele>1259.46</ele>
        <time>2013-12-23T10:08:48Z</time>
      </trkpt>
      <trkpt lat="42.67829" lon="1.93748">
        <ele>1260.91</ele>
        <time>2013-12-23T10:09:06Z</time>
      </trkpt>
      <trkpt lat="42.67834" lon="1.93747">
        <ele>1261.39</ele>
        <time>2013-12-23T10:09:25Z</time>
      </trkpt>
      <trkpt lat="42.67835" lon="1.93738">
        <ele>1263.79</ele>
        <time>2013-12-23T10:09:53Z</time>
      </trkpt>
      <trkpt lat="42.67831" lon="1.93719">
        <ele>1267.16</ele>
        <time>2013-12-23T10:10:14Z</time>
      </trkpt>
      <trkpt lat="42.67826" lon="1.93707">
        <ele>1263.79</ele>
        <time>2013-12-23T10:10:33Z</time>
      </trkpt>
      <trkpt lat="42.67824" lon="1.93713">
        <ele>1263.31</ele>
        <time>2013-12-23T10:10:53Z</time>
      </trkpt>
      <trkpt lat="42.67823" lon="1.93737">
        <ele>1274.36</ele>
        <time>2013-12-23T10:11:14Z</time>
      </trkpt>
      <trkpt lat="42.6781" lon="1.93744">
        <ele>1274.36</ele>
        <time>2013-12-23T10:11:36Z</time>
      </trkpt>
      <trkpt lat="42.6781" lon="1.93751">
        <ele>1275.33</ele>
        <time>2013-12-23T10:11:57Z</time>
      </trkpt>
      <trkpt lat="42.67807" lon="1.93764">
        <ele>1277.73</ele>
        <time>2013-12-23T10:12:14Z</time>
      </trkpt>
      <trkpt lat="42.67802" lon="1.93781">
        <ele>1282.06</ele>
        <time>2013-12-23T10:12:34Z</time>
      </trkpt>
      <trkpt lat="42.67785" lon="1.93788">
        <ele>1283.5</ele>
        <time>2013-12-23T10:12:55Z</time>
      </trkpt>
      <trkpt lat="42.67784" lon="1.93803">
        <ele>1288.78</ele>
        <time>2013-12-23T10:13:16Z</time>
      </trkpt>
      <trkpt lat="42.67781" lon="1.93814">
        <ele>1292.63</ele>
        <time>2013-12-23T10:13:39Z</time>
      </trkpt>
      <trkpt lat="42.67766" lon="1.93824">
        <ele>1292.63</ele>
        <time>2013-12-23T10:14:00Z</time>
      </trkpt>
      <trkpt lat="42.67762" lon="1.93844">
        <ele>1292.63</ele>
        <time>2013-12-23T10:14:22Z</time>
      </trkpt>
      <trkpt lat="42.67758" lon="1.93863">
        <ele>1291.19</ele>
        <time>2013-12-23T10:14:41Z</time>
      </trkpt>
      <trkpt lat="42.67752" lon="1.9386">
        <ele>1294.55</ele>
        <time>2013-12-23T10:15:02Z</time>
      </trkpt>
      <trkpt lat="42.67755" lon="1.93861">
        <ele>1289.75</ele>
        <time>2013-12-23T10:15:18Z</time>
      </trkpt>
      <trkpt lat="42.67756" lon="1.9386">
        <ele>1294.55</ele>
        <time>2013-12-23T10:15:40Z</time>
      </trkpt>
      <trkpt lat="42.67753" lon="1.93862">
        <ele>1297.92</ele>
        <time>2013-12-23T10:16:02Z</time>
      </trkpt>
      <trkpt lat="42.67754" lon="1.9387">
        <ele>1295.03</ele>
        <time>2013-12-23T10:16:18Z</time>
      </trkpt>
      <trkpt lat="42.67751" lon="1.93872">
        <ele>1289.75</ele>
        <time>2013-12-23T10:16:32Z</time>
      </trkpt>
      <trkpt lat="42.67742" lon="1.93877">
        <ele>1286.38</ele>
        <time>2013-12-23T10:16:50Z</time>
      </trkpt>
      <trkpt lat="42.67731" lon="1.93878">
        <ele>1283.98</ele>
        <time>2013-12-23T10:17:03Z</time>
      </trkpt>
      <trkpt lat="42.67729" lon="1.93878">
        <ele>1284.94</ele>
        <time>2013-12-23T10:17:22Z</time>
      </trkpt>
      <trkpt lat="42.67732" lon="1.93879">
        <ele>1288.3</ele>
        <time>2013-12-23T10:17:42Z</time>
      </trkpt>
      <trkpt lat="42.67736" lon="1.93886">
        <ele>1300.8</ele>
        <time>2013-12-23T10:18:08Z</time>
      </trkpt>
      <trkpt lat="42.6773" lon="1.93897">
        <ele>1308.49</ele>
        <time>2013-12-23T10:18:29Z</time>
      </trkpt>
      <trkpt lat="42.67736" lon="1.93904">
        <ele>1316.18</ele>
        <time>2013-12-23T10:18:49Z</time>
      </trkpt>
      <trkpt lat="42.67733" lon="1.93904">
        <ele>1319.55</ele>
        <time>2013-12-23T10:19:13Z</time>
      </trkpt>
      <trkpt lat="42.67733" lon="1.93901">
        <ele>1320.03</ele>
        <time>2013-12-23T10:19:36Z</time>
      </trkpt>
      <trkpt lat="42.67741" lon="1.93897">
        <ele>1317.62</ele>
        <time>2013-12-23T10:19:52Z</time>
      </trkpt>
      <trkpt lat="42.67731" lon="1.93888">
        <ele>1320.51</ele>
        <time>2013-12-23T10:20:13Z</time>
      </trkpt>
      <trkpt lat="42.67728" lon="1.93884">
        <ele>1320.03</ele>
        <time>2013-12-23T10:20:30Z</time>
      </trkpt>
      <trkpt lat="42.67724" lon="1.93869">
        <ele>1323.87</ele>
        <time>2013-12-23T10:20:50Z</time>
      </trkpt>
      <trkpt lat="42.67716" lon="1.93871">
        <ele>1323.87</ele>
        <time>2013-12-23T10:21:07Z</time>
      </trkpt>
      <trkpt lat="42.67714" lon="1.93872">
        <ele>1326.28</ele>
        <time>2013-12-23T10:21:26Z</time>
      </trkpt>
      <trkpt lat="42.67715" lon="1.93873">
        <ele>1331.08</ele>
        <time>2013-12-23T10:21:46Z</time>
      </trkpt>
      <trkpt lat="42.67716" lon="1.9388">
        <ele>1331.56</ele>
        <time>2013-12-23T10:22:07Z</time>
      </trkpt>
      <trkpt lat="42.6771" lon="1.93887">
        <ele>1334.45</ele>
        <time>2013-12-23T10:22:25Z</time>
      </trkpt>
      <trkpt lat="42.67714" lon="1.93889">
        <ele>1329.16</ele>
        <time>2013-12-23T10:22:45Z</time>
      </trkpt>
      <trkpt lat="42.67723" lon="1.93895">
        <ele>1323.87</ele>
        <time>2013-12-23T10:23:06Z</time>
      </trkpt>
      <trkpt lat="42.67721" lon="1.93894">
        <ele>1322.43</ele>
        <time>2013-12-23T10:23:26Z</time>
      </trkpt>
      <trkpt lat="42.67725" lon="1.93898">
        <ele>1323.87</ele>
        <time>2013-12-23T10:23:46Z</time>
      </trkpt>
      <trkpt lat="42.67728" lon="1.93901">
        <ele>1326.28</ele>
        <time>2013-12-23T10:24:08Z</time>
      </trkpt>
      <trkpt lat="42.67722" lon="1.93909">
        <ele>1325.31</ele>
        <time>2013-12-23T10:24:27Z</time>
      </trkpt>
      <trkpt lat="42.67722" lon="1.93909">
        <ele>1326.76</ele>
        <time>2013-12-23T10:24:47Z</time>
      </trkpt>
      <trkpt lat="42.67716" lon="1.93917">
        <ele>1323.39</ele>
        <time>2013-12-23T10:25:07Z</time>
      </trkpt>
      <trkpt lat="42.67705" lon="1.93915">
        <ele>1330.12</ele>
        <time>2013-12-23T10:25:30Z</time>
      </trkpt>
      <trkpt lat="42.67705" lon="1.93909">
        <ele>1335.41</ele>
        <time>2013-12-23T10:25:50Z</time>
      </trkpt>
      <trkpt lat="42.67715" lon="1.93925">
        <ele>1333.01</ele>
        <time>2013-12-23T10:26:08Z</time>
      </trkpt>
      <trkpt lat="42.67703" lon="1.9393">
        <ele>1333.97</ele>
        <time>2013-12-23T10:26:28Z</time>
      </trkpt>
      <trkpt lat="42.67695" lon="1.93923">
        <ele>1333.01</ele>
        <time>2013-12-23T10:26:57Z</time>
      </trkpt>
      <trkpt lat="42.67707" lon="1.93921">
        <ele>1330.6</ele>
        <time>2013-12-23T10:27:27Z</time>
      </trkpt>
      <trkpt lat="42.67707" lon="1.93926">
        <ele>1340.7</ele>
        <time>2013-12-23T10:27:56Z</time>
      </trkpt>
      <trkpt lat="42.67704" lon="1.93933">
        <ele>1345.98</ele>
        <time>2013-12-23T10:28:25Z</time>
      </trkpt>
      <trkpt lat="42.67702" lon="1.93916">
        <ele>1339.73</ele>
        <time>2013-12-23T10:28:49Z</time>
      </trkpt>
      <trkpt lat="42.67704" lon="1.93915">
        <ele>1332.52</ele>
        <time>2013-12-23T10:29:12Z</time>
      </trkpt>
      <trkpt lat="42.67703" lon="1.93918">
        <ele>1331.08</ele>
        <time>2013-12-23T10:29:33Z</time>
      </trkpt>
      <trkpt lat="42.67703" lon="1.93914">
        <ele>1330.12</ele>
        <time>2013-12-23T10:29:56Z</time>
      </trkpt>
      <trkpt lat="42.67709" lon="1.9392">
        <ele>1331.08</ele>
        <time>2013-12-23T10:30:20Z</time>
      </trkpt>
      <trkpt lat="42.67717" lon="1.9392">
        <ele>1343.1</ele>
        <time>2013-12-23T10:30:45Z</time>
      </trkpt>
      <trkpt lat="42.67712" lon="1.93929">
        <ele>1341.18</ele>
        <time>2013-12-23T10:31:07Z</time>
      </trkpt>
      <trkpt lat="42.67703" lon="1.93934">
        <ele>1338.77</ele>
        <time>2013-12-23T10:31:27Z</time>
      </trkpt>
      <trkpt lat="42.67701" lon="1.9392">
        <ele>1335.89</ele>
        <time>2013-12-23T10:31:43Z</time>
      </trkpt>
      <trkpt lat="42.6769" lon="1.93902">
        <ele>1334.45</ele>
        <time>2013-12-23T10:32:01Z</time>
      </trkpt>
      <trkpt lat="42.67682" lon="1.93894">
        <ele>1333.49</ele>
        <time>2013-12-23T10:32:21Z</time>
      </trkpt>
      <trkpt lat="42.67683" lon="1.93916">
        <ele>1335.89</ele>
        <time>2013-12-23T10:32:41Z</time>
      </trkpt>
      <trkpt lat="42.67673" lon="1.9392">
        <ele>1341.18</ele>
        <time>2013-12-23T10:32:59Z</time>
      </trkpt>
      <trkpt lat="42.67666" lon="1.93903">
        <ele>1347.91</ele>
        <time>2013-12-23T10:33:21Z</time>
      </trkpt>
      <trkpt lat="42.67664" lon="1.93893">
        <ele>1355.6</ele>
        <time>2013-12-23T10:33:43Z</time>
      </trkpt>
      <trkpt lat="42.67659" lon="1.93874">
        <ele>1359.92</ele>
        <time>2013-12-23T10:34:05Z</time>
      </trkpt>
      <trkpt lat="42.67658" lon="1.93861">
        <ele>1362.33</ele>
        <time>2013-12-23T10:34:23Z</time>
      </trkpt>
      <trkpt lat="42.67653" lon="1.93861">
        <ele>1360.88</ele>
        <time>2013-12-23T10:34:39Z</time>
      </trkpt>
      <trkpt lat="42.67646" lon="1.93876">
        <ele>1362.33</ele>
        <time>2013-12-23T10:34:59Z</time>
      </trkpt>
      <trkpt lat="42.67646" lon="1.93874">
        <ele>1366.17</ele>
        <time>2013-12-23T10:35:19Z</time>
      </trkpt>
      <trkpt lat="42.67642" lon="1.93862">
        <ele>1369.05</ele>
        <time>2013-12-23T10:35:36Z</time>
      </trkpt>
      <trkpt lat="42.67635" lon="1.93854">
        <ele>1371.94</ele>
        <time>2013-12-23T10:36:00Z</time>
      </trkpt>
      <trkpt lat="42.67631" lon="1.93851">
        <ele>1373.38</ele>
        <time>2013-12-23T10:36:22Z</time>
      </trkpt>
      <trkpt lat="42.67629" lon="1.9385">
        <ele>1379.63</ele>
        <time>2013-12-23T10:36:52Z</time>
      </trkpt>
      <trkpt lat="42.67636" lon="1.93875">
        <ele>1379.15</ele>
        <time>2013-12-23T10:37:08Z</time>
      </trkpt>
      <trkpt lat="42.67638" lon="1.93879">
        <ele>1379.15</ele>
        <time>2013-12-23T10:37:24Z</time>
      </trkpt>
      <trkpt lat="42.67624" lon="1.93856">
        <ele>1380.11</ele>
        <time>2013-12-23T10:37:43Z</time>
      </trkpt>
      <trkpt lat="42.67625" lon="1.93863">
        <ele>1381.55</ele>
        <time>2013-12-23T10:38:01Z</time>
      </trkpt>
      <trkpt lat="42.67626" lon="1.93872">
        <ele>1381.07</ele>
        <time>2013-12-23T10:38:18Z</time>
      </trkpt>
      <trkpt lat="42.67624" lon="1.93865">
        <ele>1384.44</ele>
        <time>2013-12-23T10:38:38Z</time>
      </trkpt>
      <trkpt lat="42.67615" lon="1.93855">
        <ele>1390.2</ele>
        <time>2013-12-23T10:39:00Z</time>
      </trkpt>
      <trkpt lat="42.67623" lon="1.93871">
        <ele>1390.68</ele>
        <time>2013-12-23T10:39:22Z</time>
      </trkpt>
      <trkpt lat="42.67611" lon="1.93861">
        <ele>1396.93</ele>
        <time>2013-12-23T10:39:43Z</time>
      </trkpt>
      <trkpt lat="42.6761" lon="1.93872">
        <ele>1397.41</ele>
        <time>2013-12-23T10:40:01Z</time>
      </trkpt>
      <trkpt lat="42.6761" lon="1.93853">
        <ele>1401.74</ele>
        <time>2013-12-23T10:40:22Z</time>
      </trkpt>
      <trkpt lat="42.67604" lon="1.93858">
        <ele>1399.34</ele>
        <time>2013-12-23T10:40:40Z</time>
      </trkpt>
      <trkpt lat="42.67601" lon="1.93869">
        <ele>1400.3</ele>
        <time>2013-12-23T10:40:57Z</time>
      </trkpt>
      <trkpt lat="42.67598" lon="1.93858">
        <ele>1402.22</ele>
        <time>2013-12-23T10:41:16Z</time>
      </trkpt>
      <trkpt lat="42.67588" lon="1.93863">
        <ele>1407.03</ele>
        <time>2013-12-23T10:41:34Z</time>
      </trkpt>
      <trkpt lat="42.67586" lon="1.93844">
        <ele>1415.68</ele>
        <time>2013-12-23T10:41:54Z</time>
      </trkpt>
      <trkpt lat="42.67583" lon="1.93855">
        <ele>1418.56</ele>
        <time>2013-12-23T10:42:13Z</time>
      </trkpt>
      <trkpt lat="42.67573" lon="1.93863">
        <ele>1417.12</ele>
        <time>2013-12-23T10:42:33Z</time>
      </trkpt>
      <trkpt lat="42.67572" lon="1.93864">
        <ele>1419.52</ele>
        <time>2013-12-23T10:42:58Z</time>
      </trkpt>
      <trkpt lat="42.67566" lon="1.93853">
        <ele>1418.08</ele>
        <time>2013-12-23T10:43:13Z</time>
      </trkpt>
      <trkpt lat="42.67576" lon="1.93839">
        <ele>1421.45</ele>
        <time>2013-12-23T10:43:29Z</time>
      </trkpt>
      <trkpt lat="42.67566" lon="1.93844">
        <ele>1419.52</ele>
        <time>2013-12-23T10:43:45Z</time>
      </trkpt>
      <trkpt lat="42.67555" lon="1.93851">
        <ele>1422.89</ele>
        <time>2013-12-23T10:44:04Z</time>
      </trkpt>
      <trkpt lat="42.67555" lon="1.93837">
        <ele>1429.62</ele>
        <time>2013-12-23T10:44:25Z</time>
      </trkpt>
      <trkpt lat="42.67564" lon="1.93834">
        <ele>1436.83</ele>
        <time>2013-12-23T10:44:49Z</time>
      </trkpt>
      <trkpt lat="42.67553" lon="1.93837">
        <ele>1435.39</ele>
        <time>2013-12-23T10:45:06Z</time>
      </trkpt>
      <trkpt lat="42.67561" lon="1.93827">
        <ele>1441.15</ele>
        <time>2013-12-23T10:45:28Z</time>
      </trkpt>
      <trkpt lat="42.67551" lon="1.93827">
        <ele>1444.04</ele>
        <time>2013-12-23T10:45:46Z</time>
      </trkpt>
      <trkpt lat="42.67531" lon="1.93838">
        <ele>1445.48</ele>
        <time>2013-12-23T10:46:07Z</time>
      </trkpt>
      <trkpt lat="42.67524" lon="1.93839">
        <ele>1446.92</ele>
        <time>2013-12-23T10:46:28Z</time>
      </trkpt>
      <trkpt lat="42.67512" lon="1.93845">
        <ele>1446.92</ele>
        <time>2013-12-23T10:46:48Z</time>
      </trkpt>
      <trkpt lat="42.67489" lon="1.9386">
        <ele>1444.52</ele>
        <time>2013-12-23T10:47:09Z</time>
      </trkpt>
      <trkpt lat="42.6748" lon="1.93858">
        <ele>1452.69</ele>
        <time>2013-12-23T10:47:26Z</time>
      </trkpt>
      <trkpt lat="42.67472" lon="1.93865">
        <ele>1457.02</ele>
        <time>2013-12-23T10:47:42Z</time>
      </trkpt>
      <trkpt lat="42.67464" lon="1.93854">
        <ele>1461.82</ele>
        <time>2013-12-23T10:48:02Z</time>
      </trkpt>
      <trkpt lat="42.67463" lon="1.9385">
        <ele>1465.19</ele>
        <time>2013-12-23T10:48:21Z</time>
      </trkpt>
      <trkpt lat="42.67462" lon="1.9384">
        <ele>1470.95</ele>
        <time>2013-12-23T10:48:45Z</time>
      </trkpt>
      <trkpt lat="42.67462" lon="1.93833">
        <ele>1471.92</ele>
        <time>2013-12-23T10:49:08Z</time>
      </trkpt>
      <trkpt lat="42.67458" lon="1.93848">
        <ele>1472.4</ele>
        <time>2013-12-23T10:49:27Z</time>
      </trkpt>
      <trkpt lat="42.67451" lon="1.93857">
        <ele>1474.8</ele>
        <time>2013-12-23T10:49:46Z</time>
      </trkpt>
      <trkpt lat="42.67445" lon="1.9386">
        <ele>1471.92</ele>
        <time>2013-12-23T10:50:06Z</time>
      </trkpt>
      <trkpt lat="42.67437" lon="1.9387">
        <ele>1470.47</ele>
        <time>2013-12-23T10:50:27Z</time>
      </trkpt>
      <trkpt lat="42.67429" lon="1.93867">
        <ele>1473.36</ele>
        <time>2013-12-23T10:50:47Z</time>
      </trkpt>
      <trkpt lat="42.67426" lon="1.93877">
        <ele>1475.76</ele>
        <time>2013-12-23T10:51:05Z</time>
      </trkpt>
      <trkpt lat="42.67421" lon="1.93873">
        <ele>1476.72</ele>
        <time>2013-12-23T10:51:23Z</time>
      </trkpt>
      <trkpt lat="42.67417" lon="1.93871">
        <ele>1476.24</ele>
        <time>2013-12-23T10:51:41Z</time>
      </trkpt>
      <trkpt lat="42.67415" lon="1.93866">
        <ele>1478.16</ele>
        <time>2013-12-23T10:52:00Z</time>
      </trkpt>
      <trkpt lat="42.67408" lon="1.93864">
        <ele>1483.45</ele>
        <time>2013-12-23T10:52:24Z</time>
      </trkpt>
      <trkpt lat="42.67406" lon="1.93844">
        <ele>1487.3</ele>
        <time>2013-12-23T10:52:44Z</time>
      </trkpt>
      <trkpt lat="42.67398" lon="1.93847">
        <ele>1488.26</ele>
        <time>2013-12-23T10:53:04Z</time>
      </trkpt>
      <trkpt lat="42.6739" lon="1.93852">
        <ele>1488.74</ele>
        <time>2013-12-23T10:53:23Z</time>
      </trkpt>
      <trkpt lat="42.67383" lon="1.93844">
        <ele>1491.62</ele>
        <time>2013-12-23T10:53:49Z</time>
      </trkpt>
      <trkpt lat="42.67381" lon="1.93859">
        <ele>1498.35</ele>
        <time>2013-12-23T10:54:08Z</time>
      </trkpt>
      <trkpt lat="42.67374" lon="1.93856">
        <ele>1503.64</ele>
        <time>2013-12-23T10:54:28Z</time>
      </trkpt>
      <trkpt lat="42.67368" lon="1.93856">
        <ele>1506.52</ele>
        <time>2013-12-23T10:54:45Z</time>
      </trkpt>
      <trkpt lat="42.67362" lon="1.93863">
        <ele>1511.81</ele>
        <time>2013-12-23T10:55:04Z</time>
      </trkpt>
      <trkpt lat="42.67355" lon="1.9386">
        <ele>1513.73</ele>
        <time>2013-12-23T10:55:21Z</time>
      </trkpt>
      <trkpt lat="42.67351" lon="1.93871">
        <ele>1515.66</ele>
        <time>2013-12-23T10:55:46Z</time>
      </trkpt>
      <trkpt lat="42.67346" lon="1.93871">
        <ele>1514.21</ele>
        <time>2013-12-23T10:56:14Z</time>
      </trkpt>
      <trkpt lat="42.67348" lon="1.93871">
        <ele>1513.73</ele>
        <time>2013-12-23T10:56:39Z</time>
      </trkpt>
      <trkpt lat="42.67344" lon="1.93854">
        <ele>1512.77</ele>
        <time>2013-12-23T10:57:04Z</time>
      </trkpt>
      <trkpt lat="42.67342" lon="1.93856">
        <ele>1514.69</ele>
        <time>2013-12-23T10:57:37Z</time>
      </trkpt>
      <trkpt lat="42.67342" lon="1.93861">
        <ele>1516.14</ele>
        <time>2013-12-23T10:57:58Z</time>
      </trkpt>
      <trkpt lat="42.67342" lon="1.93867">
        <ele>1518.06</ele>
        <time>2013-12-23T10:58:25Z</time>
      </trkpt>
      <trkpt lat="42.67346" lon="1.93871">
        <ele>1514.69</ele>
        <time>2013-12-23T10:58:57Z</time>
      </trkpt>
      <trkpt lat="42.67355" lon="1.9385">
        <ele>1515.18</ele>
        <time>2013-12-23T10:59:28Z</time>
      </trkpt>
      <trkpt lat="42.67338" lon="1.93867">
        <ele>1520.46</ele>
        <time>2013-12-23T10:59:53Z</time>
      </trkpt>
      <trkpt lat="42.67346" lon="1.93858">
        <ele>1512.77</ele>
        <time>2013-12-23T11:00:21Z</time>
      </trkpt>
      <trkpt lat="42.67345" lon="1.93867">
        <ele>1516.14</ele>
        <time>2013-12-23T11:00:50Z</time>
      </trkpt>
      <trkpt lat="42.67339" lon="1.93874">
        <ele>1523.83</ele>
        <time>2013-12-23T11:01:16Z</time>
      </trkpt>
      <trkpt lat="42.67341" lon="1.9387">
        <ele>1527.19</ele>
        <time>2013-12-23T11:01:38Z</time>
      </trkpt>
      <trkpt lat="42.67347" lon="1.9386">
        <ele>1528.15</ele>
        <time>2013-12-23T11:02:04Z</time>
      </trkpt>
      <trkpt lat="42.67341" lon="1.93866">
        <ele>1531.52</ele>
        <time>2013-12-23T11:02:30Z</time>
      </trkpt>
      <trkpt lat="42.67342" lon="1.93866">
        <ele>1535.36</ele>
        <time>2013-12-23T11:02:56Z</time>
      </trkpt>
      <trkpt lat="42.67343" lon="1.93868">
        <ele>1535.36</ele>
        <time>2013-12-23T11:02:58Z</time>
      </trkpt>
      <trkpt lat="42.67345" lon="1.93874">
        <ele>1535.36</ele>
        <time>2013-12-23T11:03:02Z</time>
      </trkpt>
      <trkpt lat="42.67341" lon="1.93883">
        <ele>1533.44</ele>
        <time>2013-12-23T11:03:22Z</time>
      </trkpt>
      <trkpt lat="42.67343" lon="1.93882">
        <ele>1538.73</ele>
        <time>2013-12-23T11:03:48Z</time>
      </trkpt>
      <trkpt lat="42.67346" lon="1.93874">
        <ele>1540.65</ele>
        <time>2013-12-23T11:04:13Z</time>
      </trkpt>
      <trkpt lat="42.67335" lon="1.93878">
        <ele>1538.25</ele>
        <time>2013-12-23T11:04:35Z</time>
      </trkpt>
      <trkpt lat="42.67322" lon="1.93886">
        <ele>1538.73</ele>
        <time>2013-12-23T11:04:52Z</time>
      </trkpt>
      <trkpt lat="42.67315" lon="1.93886">
        <ele>1540.65</ele>
        <time>2013-12-23T11:05:10Z</time>
      </trkpt>
      <trkpt lat="42.67309" lon="1.93883">
        <ele>1539.69</ele>
        <time>2013-12-23T11:05:29Z</time>
      </trkpt>
      <trkpt lat="42.67303" lon="1.93883">
        <ele>1541.61</ele>
        <time>2013-12-23T11:05:47Z</time>
      </trkpt>
      <trkpt lat="42.67299" lon="1.9389">
        <ele>1542.57</ele>
        <time>2013-12-23T11:06:09Z</time>
      </trkpt>
      <trkpt lat="42.67299" lon="1.93891">
        <ele>1542.57</ele>
        <time>2013-12-23T11:06:29Z</time>
      </trkpt>
      <trkpt lat="42.67302" lon="1.93889">
        <ele>1543.05</ele>
        <time>2013-12-23T11:06:55Z</time>
      </trkpt>
      <trkpt lat="42.67298" lon="1.93893">
        <ele>1546.42</ele>
        <time>2013-12-23T11:07:23Z</time>
      </trkpt>
      <trkpt lat="42.67298" lon="1.93892">
        <ele>1545.46</ele>
        <time>2013-12-23T11:07:47Z</time>
      </trkpt>
      <trkpt lat="42.67302" lon="1.93904">
        <ele>1545.46</ele>
        <time>2013-12-23T11:08:07Z</time>
      </trkpt>
      <trkpt lat="42.67303" lon="1.93909">
        <ele>1542.57</ele>
        <time>2013-12-23T11:08:25Z</time>
      </trkpt>
      <trkpt lat="42.67306" lon="1.9392">
        <ele>1540.65</ele>
        <time>2013-12-23T11:08:44Z</time>
      </trkpt>
      <trkpt lat="42.67308" lon="1.93932">
        <ele>1541.13</ele>
        <time>2013-12-23T11:09:00Z</time>
      </trkpt>
      <trkpt lat="42.67303" lon="1.93925">
        <ele>1543.53</ele>
        <time>2013-12-23T11:09:23Z</time>
      </trkpt>
      <trkpt lat="42.67302" lon="1.93908">
        <ele>1544.98</ele>
        <time>2013-12-23T11:09:50Z</time>
      </trkpt>
      <trkpt lat="42.67296" lon="1.93907">
        <ele>1548.82</ele>
        <time>2013-12-23T11:10:15Z</time>
      </trkpt>
      <trkpt lat="42.67296" lon="1.93919">
        <ele>1553.63</ele>
        <time>2013-12-23T11:10:38Z</time>
      </trkpt>
      <trkpt lat="42.67298" lon="1.93901">
        <ele>1550.74</ele>
        <time>2013-12-23T11:11:04Z</time>
      </trkpt>
      <trkpt lat="42.67293" lon="1.93911">
        <ele>1552.19</ele>
        <time>2013-12-23T11:11:27Z</time>
      </trkpt>
      <trkpt lat="42.67281" lon="1.93901">
        <ele>1549.78</ele>
        <time>2013-12-23T11:11:47Z</time>
      </trkpt>
      <trkpt lat="42.67271" lon="1.93907">
        <ele>1553.15</ele>
        <time>2013-12-23T11:12:10Z</time>
      </trkpt>
      <trkpt lat="42.6726" lon="1.93906">
        <ele>1554.11</ele>
        <time>2013-12-23T11:12:31Z</time>
      </trkpt>
      <trkpt lat="42.67255" lon="1.9391">
        <ele>1555.55</ele>
        <time>2013-12-23T11:12:48Z</time>
      </trkpt>
      <trkpt lat="42.6725" lon="1.93906">
        <ele>1554.11</ele>
        <time>2013-12-23T11:13:08Z</time>
      </trkpt>
      <trkpt lat="42.67242" lon="1.93912">
        <ele>1554.11</ele>
        <time>2013-12-23T11:13:29Z</time>
      </trkpt>
      <trkpt lat="42.6723" lon="1.93899">
        <ele>1553.63</ele>
        <time>2013-12-23T11:13:52Z</time>
      </trkpt>
      <trkpt lat="42.67228" lon="1.93915">
        <ele>1556.99</ele>
        <time>2013-12-23T11:14:13Z</time>
      </trkpt>
      <trkpt lat="42.67219" lon="1.93908">
        <ele>1557.47</ele>
        <time>2013-12-23T11:14:35Z</time>
      </trkpt>
      <trkpt lat="42.67211" lon="1.93906">
        <ele>1560.36</ele>
        <time>2013-12-23T11:14:55Z</time>
      </trkpt>
      <trkpt lat="42.67201" lon="1.93917">
        <ele>1566.61</ele>
        <time>2013-12-23T11:15:13Z</time>
      </trkpt>
      <trkpt lat="42.67188" lon="1.93913">
        <ele>1568.53</ele>
        <time>2013-12-23T11:15:33Z</time>
      </trkpt>
      <trkpt lat="42.67181" lon="1.9391">
        <ele>1570.93</ele>
        <time>2013-12-23T11:15:55Z</time>
      </trkpt>
      <trkpt lat="42.6717" lon="1.93907">
        <ele>1573.33</ele>
        <time>2013-12-23T11:16:12Z</time>
      </trkpt>
      <trkpt lat="42.67159" lon="1.93895">
        <ele>1573.82</ele>
        <time>2013-12-23T11:16:30Z</time>
      </trkpt>
      <trkpt lat="42.67157" lon="1.93896">
        <ele>1574.3</ele>
        <time>2013-12-23T11:16:33Z</time>
      </trkpt>
      <trkpt lat="42.67148" lon="1.93915">
        <ele>1574.78</ele>
        <time>2013-12-23T11:16:54Z</time>
      </trkpt>
      <trkpt lat="42.67146" lon="1.93911">
        <ele>1576.7</ele>
        <time>2013-12-23T11:17:15Z</time>
      </trkpt>
      <trkpt lat="42.67134" lon="1.93911">
        <ele>1579.58</ele>
        <time>2013-12-23T11:17:34Z</time>
      </trkpt>
      <trkpt lat="42.67134" lon="1.93911">
        <ele>1582.95</ele>
        <time>2013-12-23T11:17:51Z</time>
      </trkpt>
      <trkpt lat="42.67135" lon="1.93921">
        <ele>1585.35</ele>
        <time>2013-12-23T11:18:09Z</time>
      </trkpt>
      <trkpt lat="42.67139" lon="1.93944">
        <ele>1590.64</ele>
        <time>2013-12-23T11:18:31Z</time>
      </trkpt>
      <trkpt lat="42.67136" lon="1.93956">
        <ele>1593.04</ele>
        <time>2013-12-23T11:18:48Z</time>
      </trkpt>
      <trkpt lat="42.67132" lon="1.93954">
        <ele>1594.48</ele>
        <time>2013-12-23T11:19:12Z</time>
      </trkpt>
      <trkpt lat="42.67125" lon="1.93955">
        <ele>1602.17</ele>
        <time>2013-12-23T11:19:37Z</time>
      </trkpt>
      <trkpt lat="42.6712" lon="1.93963">
        <ele>1604.1</ele>
        <time>2013-12-23T11:19:55Z</time>
      </trkpt>
      <trkpt lat="42.67121" lon="1.9397">
        <ele>1603.62</ele>
        <time>2013-12-23T11:20:10Z</time>
      </trkpt>
      <trkpt lat="42.6712" lon="1.93972">
        <ele>1606.5</ele>
        <time>2013-12-23T11:20:33Z</time>
      </trkpt>
      <trkpt lat="42.67117" lon="1.93976">
        <ele>1606.98</ele>
        <time>2013-12-23T11:20:53Z</time>
      </trkpt>
      <trkpt lat="42.67101" lon="1.93985">
        <ele>1606.98</ele>
        <time>2013-12-23T11:21:13Z</time>
      </trkpt>
      <trkpt lat="42.67094" lon="1.93985">
        <ele>1606.98</ele>
        <time>2013-12-23T11:21:26Z</time>
      </trkpt>
      <trkpt lat="42.67092" lon="1.93981">
        <ele>1605.54</ele>
        <time>2013-12-23T11:21:54Z</time>
      </trkpt>
      <trkpt lat="42.67091" lon="1.93982">
        <ele>1606.02</ele>
        <time>2013-12-23T11:22:11Z</time>
      </trkpt>
      <trkpt lat="42.67066" lon="1.93985">
        <ele>1602.66</ele>
        <time>2013-12-23T11:22:27Z</time>
      </trkpt>
      <trkpt lat="42.67048" lon="1.93988">
        <ele>1605.06</ele>
        <time>2013-12-23T11:22:47Z</time>
      </trkpt>
      <trkpt lat="42.67038" lon="1.93982">
        <ele>1606.02</ele>
        <time>2013-12-23T11:23:02Z</time>
      </trkpt>
      <trkpt lat="42.67045" lon="1.93973">
        <ele>1605.54</ele>
        <time>2013-12-23T11:23:23Z</time>
      </trkpt>
      <trkpt lat="42.67032" lon="1.9399">
        <ele>1607.94</ele>
        <time>2013-12-23T11:23:42Z</time>
      </trkpt>
      <trkpt lat="42.67021" lon="1.93988">
        <ele>1610.35</ele>
        <time>2013-12-23T11:23:56Z</time>
      </trkpt>
      <trkpt lat="42.67008" lon="1.93991">
        <ele>1613.23</ele>
        <time>2013-12-23T11:24:15Z</time>
      </trkpt>
      <trkpt lat="42.67" lon="1.94004">
        <ele>1620.44</ele>
        <time>2013-12-23T11:24:37Z</time>
      </trkpt>
      <trkpt lat="42.66996" lon="1.9401">
        <ele>1624.77</ele>
        <time>2013-12-23T11:24:59Z</time>
      </trkpt>
      <trkpt lat="42.66994" lon="1.94006">
        <ele>1627.17</ele>
        <time>2013-12-23T11:25:19Z</time>
      </trkpt>
      <trkpt lat="42.66991" lon="1.94009">
        <ele>1627.65</ele>
        <time>2013-12-23T11:25:42Z</time>
      </trkpt>
      <trkpt lat="42.66986" lon="1.94009">
        <ele>1625.73</ele>
        <time>2013-12-23T11:26:08Z</time>
      </trkpt>
      <trkpt lat="42.66977" lon="1.94011">
        <ele>1622.36</ele>
        <time>2013-12-23T11:26:25Z</time>
      </trkpt>
      <trkpt lat="42.66977" lon="1.94008">
        <ele>1622.36</ele>
        <time>2013-12-23T11:26:46Z</time>
      </trkpt>
      <trkpt lat="42.6697" lon="1.94">
        <ele>1620.92</ele>
        <time>2013-12-23T11:27:00Z</time>
      </trkpt>
      <trkpt lat="42.66955" lon="1.94003">
        <ele>1621.4</ele>
        <time>2013-12-23T11:27:17Z</time>
      </trkpt>
      <trkpt lat="42.6694" lon="1.94006">
        <ele>1624.77</ele>
        <time>2013-12-23T11:27:33Z</time>
      </trkpt>
      <trkpt lat="42.66921" lon="1.93998">
        <ele>1630.05</ele>
        <time>2013-12-23T11:27:49Z</time>
      </trkpt>
      <trkpt lat="42.66911" lon="1.93992">
        <ele>1631.49</ele>
        <time>2013-12-23T11:28:06Z</time>
      </trkpt>
      <trkpt lat="42.669" lon="1.93988">
        <ele>1632.46</ele>
        <time>2013-12-23T11:28:24Z</time>
      </trkpt>
      <trkpt lat="42.66884" lon="1.93984">
        <ele>1636.3</ele>
        <time>2013-12-23T11:28:46Z</time>
      </trkpt>
      <trkpt lat="42.66872" lon="1.93983">
        <ele>1637.26</ele>
        <time>2013-12-23T11:29:05Z</time>
      </trkpt>
      <trkpt lat="42.66861" lon="1.93981">
        <ele>1644.47</ele>
        <time>2013-12-23T11:29:22Z</time>
      </trkpt>
      <trkpt lat="42.66852" lon="1.93981">
        <ele>1646.4</ele>
        <time>2013-12-23T11:29:39Z</time>
      </trkpt>
      <trkpt lat="42.66848" lon="1.93987">
        <ele>1649.28</ele>
        <time>2013-12-23T11:29:53Z</time>
      </trkpt>
      <trkpt lat="42.66836" lon="1.93992">
        <ele>1652.64</ele>
        <time>2013-12-23T11:30:14Z</time>
      </trkpt>
      <trkpt lat="42.66826" lon="1.93998">
        <ele>1657.45</ele>
        <time>2013-12-23T11:30:30Z</time>
      </trkpt>
      <trkpt lat="42.66816" lon="1.94003">
        <ele>1658.89</ele>
        <time>2013-12-23T11:30:47Z</time>
      </trkpt>
      <trkpt lat="42.66812" lon="1.94007">
        <ele>1658.89</ele>
        <time>2013-12-23T11:31:03Z</time>
      </trkpt>
      <trkpt lat="42.66802" lon="1.94012">
        <ele>1659.85</ele>
        <time>2013-12-23T11:31:20Z</time>
      </trkpt>
      <trkpt lat="42.66794" lon="1.94012">
        <ele>1662.26</ele>
        <time>2013-12-23T11:31:37Z</time>
      </trkpt>
      <trkpt lat="42.66791" lon="1.94017">
        <ele>1665.14</ele>
        <time>2013-12-23T11:31:50Z</time>
      </trkpt>
      <trkpt lat="42.66787" lon="1.94019">
        <ele>1668.51</ele>
        <time>2013-12-23T11:32:06Z</time>
      </trkpt>
      <trkpt lat="42.66787" lon="1.94026">
        <ele>1672.35</ele>
        <time>2013-12-23T11:32:22Z</time>
      </trkpt>
      <trkpt lat="42.6679" lon="1.94037">
        <ele>1676.2</ele>
        <time>2013-12-23T11:32:40Z</time>
      </trkpt>
      <trkpt lat="42.66791" lon="1.94044">
        <ele>1677.16</ele>
        <time>2013-12-23T11:32:57Z</time>
      </trkpt>
      <trkpt lat="42.66786" lon="1.94052">
        <ele>1677.64</ele>
        <time>2013-12-23T11:33:11Z</time>
      </trkpt>
      <trkpt lat="42.66783" lon="1.94057">
        <ele>1677.16</ele>
        <time>2013-12-23T11:33:24Z</time>
      </trkpt>
      <trkpt lat="42.66778" lon="1.94063">
        <ele>1679.08</ele>
        <time>2013-12-23T11:33:39Z</time>
      </trkpt>
      <trkpt lat="42.66775" lon="1.94071">
        <ele>1678.6</ele>
        <time>2013-12-23T11:33:54Z</time>
      </trkpt>
      <trkpt lat="42.66767" lon="1.94065">
        <ele>1674.75</ele>
        <time>2013-12-23T11:34:15Z</time>
      </trkpt>
      <trkpt lat="42.66759" lon="1.94055">
        <ele>1674.75</ele>
        <time>2013-12-23T11:34:32Z</time>
      </trkpt>
      <trkpt lat="42.66752" lon="1.94055">
        <ele>1677.64</ele>
        <time>2013-12-23T11:34:49Z</time>
      </trkpt>
      <trkpt lat="42.66744" lon="1.94052">
        <ele>1683.89</ele>
        <time>2013-12-23T11:35:07Z</time>
      </trkpt>
      <trkpt lat="42.6674" lon="1.94047">
        <ele>1689.65</ele>
        <time>2013-12-23T11:35:26Z</time>
      </trkpt>
      <trkpt lat="42.66734" lon="1.9404">
        <ele>1695.9</ele>
        <time>2013-12-23T11:35:43Z</time>
      </trkpt>
      <trkpt lat="42.66731" lon="1.94034">
        <ele>1699.75</ele>
        <time>2013-12-23T11:35:59Z</time>
      </trkpt>
      <trkpt lat="42.66728" lon="1.94026">
        <ele>1703.59</ele>
        <time>2013-12-23T11:36:19Z</time>
      </trkpt>
      <trkpt lat="42.66726" lon="1.94021">
        <ele>1707.44</ele>
        <time>2013-12-23T11:36:35Z</time>
      </trkpt>
      <trkpt lat="42.66722" lon="1.94022">
        <ele>1708.4</ele>
        <time>2013-12-23T11:36:54Z</time>
      </trkpt>
      <trkpt lat="42.66722" lon="1.94026">
        <ele>1708.4</ele>
        <time>2013-12-23T11:37:12Z</time>
      </trkpt>
      <trkpt lat="42.66721" lon="1.94034">
        <ele>1711.28</ele>
        <time>2013-12-23T11:37:30Z</time>
      </trkpt>
      <trkpt lat="42.66719" lon="1.94032">
        <ele>1710.8</ele>
        <time>2013-12-23T11:37:48Z</time>
      </trkpt>
      <trkpt lat="42.66713" lon="1.94025">
        <ele>1711.76</ele>
        <time>2013-12-23T11:38:08Z</time>
      </trkpt>
      <trkpt lat="42.66711" lon="1.94019">
        <ele>1712.25</ele>
        <time>2013-12-23T11:38:24Z</time>
      </trkpt>
      <trkpt lat="42.6671" lon="1.94025">
        <ele>1712.25</ele>
        <time>2013-12-23T11:38:38Z</time>
      </trkpt>
      <trkpt lat="42.6671" lon="1.94032">
        <ele>1715.61</ele>
        <time>2013-12-23T11:38:54Z</time>
      </trkpt>
      <trkpt lat="42.66709" lon="1.94039">
        <ele>1717.53</ele>
        <time>2013-12-23T11:39:08Z</time>
      </trkpt>
      <trkpt lat="42.66706" lon="1.94037">
        <ele>1718.01</ele>
        <time>2013-12-23T11:39:26Z</time>
      </trkpt>
      <trkpt lat="42.66702" lon="1.94032">
        <ele>1719.94</ele>
        <time>2013-12-23T11:39:42Z</time>
      </trkpt>
      <trkpt lat="42.66697" lon="1.94024">
        <ele>1722.82</ele>
        <time>2013-12-23T11:39:58Z</time>
      </trkpt>
      <trkpt lat="42.66694" lon="1.94033">
        <ele>1727.63</ele>
        <time>2013-12-23T11:40:19Z</time>
      </trkpt>
      <trkpt lat="42.66691" lon="1.94039">
        <ele>1729.55</ele>
        <time>2013-12-23T11:40:33Z</time>
      </trkpt>
      <trkpt lat="42.66689" lon="1.94029">
        <ele>1733.39</ele>
        <time>2013-12-23T11:40:53Z</time>
      </trkpt>
      <trkpt lat="42.66684" lon="1.94018">
        <ele>1735.32</ele>
        <time>2013-12-23T11:41:09Z</time>
      </trkpt>
      <trkpt lat="42.66682" lon="1.94017">
        <ele>1737.72</ele>
        <time>2013-12-23T11:41:27Z</time>
      </trkpt>
      <trkpt lat="42.6668" lon="1.94022">
        <ele>1739.64</ele>
        <time>2013-12-23T11:41:41Z</time>
      </trkpt>
      <trkpt lat="42.66678" lon="1.94031">
        <ele>1742.53</ele>
        <time>2013-12-23T11:41:58Z</time>
      </trkpt>
      <trkpt lat="42.66676" lon="1.9404">
        <ele>1743.97</ele>
        <time>2013-12-23T11:42:16Z</time>
      </trkpt>
      <trkpt lat="42.66671" lon="1.94034">
        <ele>1742.53</ele>
        <time>2013-12-23T11:42:35Z</time>
      </trkpt>
      <trkpt lat="42.66667" lon="1.94023">
        <ele>1743.97</ele>
        <time>2013-12-23T11:42:50Z</time>
      </trkpt>
      <trkpt lat="42.66665" lon="1.94017">
        <ele>1746.85</ele>
        <time>2013-12-23T11:43:05Z</time>
      </trkpt>
      <trkpt lat="42.66664" lon="1.9402">
        <ele>1751.18</ele>
        <time>2013-12-23T11:43:22Z</time>
      </trkpt>
      <trkpt lat="42.66661" lon="1.94025">
        <ele>1754.06</ele>
        <time>2013-12-23T11:43:38Z</time>
      </trkpt>
      <trkpt lat="42.66661" lon="1.94019">
        <ele>1757.43</ele>
        <time>2013-12-23T11:43:56Z</time>
      </trkpt>
      <trkpt lat="42.66661" lon="1.94009">
        <ele>1757.91</ele>
        <time>2013-12-23T11:44:12Z</time>
      </trkpt>
      <trkpt lat="42.6666" lon="1.9401">
        <ele>1757.91</ele>
        <time>2013-12-23T11:44:30Z</time>
      </trkpt>
      <trkpt lat="42.66654" lon="1.94016">
        <ele>1756.47</ele>
        <time>2013-12-23T11:44:45Z</time>
      </trkpt>
      <trkpt lat="42.66656" lon="1.94009">
        <ele>1759.83</ele>
        <time>2013-12-23T11:45:07Z</time>
      </trkpt>
      <trkpt lat="42.66659" lon="1.94004">
        <ele>1762.71</ele>
        <time>2013-12-23T11:45:29Z</time>
      </trkpt>
      <trkpt lat="42.66658" lon="1.94">
        <ele>1764.64</ele>
        <time>2013-12-23T11:45:43Z</time>
      </trkpt>
      <trkpt lat="42.66661" lon="1.94">
        <ele>1768.96</ele>
        <time>2013-12-23T11:46:10Z</time>
      </trkpt>
      <trkpt lat="42.66665" lon="1.93999">
        <ele>1767.52</ele>
        <time>2013-12-23T11:46:31Z</time>
      </trkpt>
      <trkpt lat="42.66662" lon="1.93999">
        <ele>1768</ele>
        <time>2013-12-23T11:46:51Z</time>
      </trkpt>
      <trkpt lat="42.66663" lon="1.94001">
        <ele>1765.12</ele>
        <time>2013-12-23T11:47:13Z</time>
      </trkpt>
      <trkpt lat="42.66659" lon="1.94001">
        <ele>1762.23</ele>
        <time>2013-12-23T11:47:42Z</time>
      </trkpt>
      <trkpt lat="42.66659" lon="1.94001">
        <ele>1763.2</ele>
        <time>2013-12-23T11:48:07Z</time>
      </trkpt>
      <trkpt lat="42.66661" lon="1.94001">
        <ele>1761.75</ele>
        <time>2013-12-23T11:48:28Z</time>
      </trkpt>
      <trkpt lat="42.66659" lon="1.94001">
        <ele>1759.83</ele>
        <time>2013-12-23T11:48:52Z</time>
      </trkpt>
      <trkpt lat="42.66656" lon="1.94001">
        <ele>1756.95</ele>
        <time>2013-12-23T11:49:19Z</time>
      </trkpt>
      <trkpt lat="42.66656" lon="1.94002">
        <ele>1755.02</ele>
        <time>2013-12-23T11:49:41Z</time>
      </trkpt>
      <trkpt lat="42.66656" lon="1.93996">
        <ele>1756.47</ele>
        <time>2013-12-23T11:50:06Z</time>
      </trkpt>
      <trkpt lat="42.66654" lon="1.93998">
        <ele>1758.39</ele>
        <time>2013-12-23T11:50:30Z</time>
      </trkpt>
      <trkpt lat="42.66661" lon="1.94001">
        <ele>1759.83</ele>
        <time>2013-12-23T11:51:00Z</time>
      </trkpt>
      <trkpt lat="42.66659" lon="1.94">
        <ele>1761.27</ele>
        <time>2013-12-23T11:51:27Z</time>
      </trkpt>
      <trkpt lat="42.6666" lon="1.94">
        <ele>1760.31</ele>
        <time>2013-12-23T11:51:47Z</time>
      </trkpt>
      <trkpt lat="42.6666" lon="1.93998">
        <ele>1761.75</ele>
        <time>2013-12-23T11:52:13Z</time>
      </trkpt>
      <trkpt lat="42.66659" lon="1.93999">
        <ele>1760.79</ele>
        <time>2013-12-23T11:52:33Z</time>
      </trkpt>
      <trkpt lat="42.66659" lon="1.93997">
        <ele>1761.27</ele>
        <time>2013-12-23T11:53:01Z</time>
      </trkpt>
      <trkpt lat="42.66659" lon="1.93996">
        <ele>1760.31</ele>
        <time>2013-12-23T11:53:20Z</time>
      </trkpt>
      <trkpt lat="42.66658" lon="1.93998">
        <ele>1759.35</ele>
        <time>2013-12-23T11:53:37Z</time>
      </trkpt>
      <trkpt lat="42.66658" lon="1.93998">
        <ele>1759.83</ele>
        <time>2013-12-23T11:53:53Z</time>
      </trkpt>
      <trkpt lat="42.66654" lon="1.94003">
        <ele>1759.83</ele>
        <time>2013-12-23T11:54:09Z</time>
      </trkpt>
      <trkpt lat="42.66649" lon="1.94012">
        <ele>1762.23</ele>
        <time>2013-12-23T11:54:22Z</time>
      </trkpt>
      <trkpt lat="42.66648" lon="1.94016">
        <ele>1763.2</ele>
        <time>2013-12-23T11:54:38Z</time>
      </trkpt>
      <trkpt lat="42.66644" lon="1.9401">
        <ele>1765.6</ele>
        <time>2013-12-23T11:54:57Z</time>
      </trkpt>
      <trkpt lat="42.66641" lon="1.94002">
        <ele>1766.56</ele>
        <time>2013-12-23T11:55:11Z</time>
      </trkpt>
      <trkpt lat="42.66643" lon="1.93992">
        <ele>1768.96</ele>
        <time>2013-12-23T11:55:24Z</time>
      </trkpt>
      <trkpt lat="42.66647" lon="1.93987">
        <ele>1773.77</ele>
        <time>2013-12-23T11:55:42Z</time>
      </trkpt>
      <trkpt lat="42.66646" lon="1.93985">
        <ele>1775.21</ele>
        <time>2013-12-23T11:56:06Z</time>
      </trkpt>
      <trkpt lat="42.66647" lon="1.93983">
        <ele>1775.69</ele>
        <time>2013-12-23T11:56:29Z</time>
      </trkpt>
      <trkpt lat="42.66648" lon="1.93973">
        <ele>1776.65</ele>
        <time>2013-12-23T11:56:45Z</time>
      </trkpt>
      <trkpt lat="42.66642" lon="1.93969">
        <ele>1777.61</ele>
        <time>2013-12-23T11:57:01Z</time>
      </trkpt>
      <trkpt lat="42.66644" lon="1.93966">
        <ele>1780.5</ele>
        <time>2013-12-23T11:57:24Z</time>
      </trkpt>
      <trkpt lat="42.6664" lon="1.93974">
        <ele>1780.02</ele>
        <time>2013-12-23T11:57:50Z</time>
      </trkpt>
      <trkpt lat="42.66636" lon="1.93976">
        <ele>1776.17</ele>
        <time>2013-12-23T11:58:01Z</time>
      </trkpt>
      <trkpt lat="42.66625" lon="1.93983">
        <ele>1774.73</ele>
        <time>2013-12-23T11:58:13Z</time>
      </trkpt>
      <trkpt lat="42.66618" lon="1.93984">
        <ele>1777.13</ele>
        <time>2013-12-23T11:58:27Z</time>
      </trkpt>
      <trkpt lat="42.66619" lon="1.93982">
        <ele>1778.58</ele>
        <time>2013-12-23T11:58:56Z</time>
      </trkpt>
      <trkpt lat="42.66613" lon="1.93983">
        <ele>1780.98</ele>
        <time>2013-12-23T11:59:12Z</time>
      </trkpt>
      <trkpt lat="42.666" lon="1.93986">
        <ele>1783.38</ele>
        <time>2013-12-23T11:59:26Z</time>
      </trkpt>
      <trkpt lat="42.6659" lon="1.93984">
        <ele>1788.67</ele>
        <time>2013-12-23T11:59:46Z</time>
      </trkpt>
      <trkpt lat="42.66582" lon="1.93988">
        <ele>1790.59</ele>
        <time>2013-12-23T12:00:01Z</time>
      </trkpt>
      <trkpt lat="42.66577" lon="1.93993">
        <ele>1795.88</ele>
        <time>2013-12-23T12:00:15Z</time>
      </trkpt>
      <trkpt lat="42.66569" lon="1.93995">
        <ele>1798.76</ele>
        <time>2013-12-23T12:00:29Z</time>
      </trkpt>
      <trkpt lat="42.66562" lon="1.94">
        <ele>1799.73</ele>
        <time>2013-12-23T12:00:45Z</time>
      </trkpt>
      <trkpt lat="42.66553" lon="1.94004">
        <ele>1803.09</ele>
        <time>2013-12-23T12:01:00Z</time>
      </trkpt>
      <trkpt lat="42.66541" lon="1.94005">
        <ele>1806.45</ele>
        <time>2013-12-23T12:01:17Z</time>
      </trkpt>
      <trkpt lat="42.66539" lon="1.94002">
        <ele>1809.82</ele>
        <time>2013-12-23T12:01:40Z</time>
      </trkpt>
      <trkpt lat="42.66532" lon="1.94009">
        <ele>1810.78</ele>
        <time>2013-12-23T12:01:59Z</time>
      </trkpt>
      <trkpt lat="42.6652" lon="1.94008">
        <ele>1810.3</ele>
        <time>2013-12-23T12:02:14Z</time>
      </trkpt>
      <trkpt lat="42.66512" lon="1.94009">
        <ele>1813.66</ele>
        <time>2013-12-23T12:02:29Z</time>
      </trkpt>
      <trkpt lat="42.66498" lon="1.9401">
        <ele>1817.03</ele>
        <time>2013-12-23T12:02:47Z</time>
      </trkpt>
      <trkpt lat="42.66485" lon="1.94012">
        <ele>1817.99</ele>
        <time>2013-12-23T12:03:05Z</time>
      </trkpt>
      <trkpt lat="42.66472" lon="1.9402">
        <ele>1816.55</ele>
        <time>2013-12-23T12:03:21Z</time>
      </trkpt>
      <trkpt lat="42.66462" lon="1.94025">
        <ele>1816.55</ele>
        <time>2013-12-23T12:03:36Z</time>
      </trkpt>
      <trkpt lat="42.66453" lon="1.94029">
        <ele>1814.63</ele>
        <time>2013-12-23T12:03:50Z</time>
      </trkpt>
      <trkpt lat="42.66441" lon="1.94034">
        <ele>1816.07</ele>
        <time>2013-12-23T12:04:06Z</time>
      </trkpt>
      <trkpt lat="42.66432" lon="1.94038">
        <ele>1813.66</ele>
        <time>2013-12-23T12:04:21Z</time>
      </trkpt>
      <trkpt lat="42.66419" lon="1.94038">
        <ele>1815.59</ele>
        <time>2013-12-23T12:04:37Z</time>
      </trkpt>
      <trkpt lat="42.66407" lon="1.94034">
        <ele>1818.95</ele>
        <time>2013-12-23T12:04:51Z</time>
      </trkpt>
      <trkpt lat="42.66398" lon="1.94031">
        <ele>1819.43</ele>
        <time>2013-12-23T12:05:08Z</time>
      </trkpt>
      <trkpt lat="42.66394" lon="1.94035">
        <ele>1817.03</ele>
        <time>2013-12-23T12:05:23Z</time>
      </trkpt>
      <trkpt lat="42.66389" lon="1.94035">
        <ele>1818.47</ele>
        <time>2013-12-23T12:05:35Z</time>
      </trkpt>
      <trkpt lat="42.66378" lon="1.94032">
        <ele>1821.84</ele>
        <time>2013-12-23T12:05:49Z</time>
      </trkpt>
      <trkpt lat="42.66368" lon="1.9403">
        <ele>1825.2</ele>
        <time>2013-12-23T12:06:02Z</time>
      </trkpt>
      <trkpt lat="42.66356" lon="1.94028">
        <ele>1824.72</ele>
        <time>2013-12-23T12:06:16Z</time>
      </trkpt>
      <trkpt lat="42.66347" lon="1.94026">
        <ele>1827.6</ele>
        <time>2013-12-23T12:06:31Z</time>
      </trkpt>
      <trkpt lat="42.66338" lon="1.94024">
        <ele>1827.6</ele>
        <time>2013-12-23T12:06:46Z</time>
      </trkpt>
      <trkpt lat="42.66327" lon="1.94021">
        <ele>1830.49</ele>
        <time>2013-12-23T12:07:01Z</time>
      </trkpt>
      <trkpt lat="42.66318" lon="1.94017">
        <ele>1836.74</ele>
        <time>2013-12-23T12:07:17Z</time>
      </trkpt>
      <trkpt lat="42.66314" lon="1.94029">
        <ele>1837.22</ele>
        <time>2013-12-23T12:07:31Z</time>
      </trkpt>
      <trkpt lat="42.66312" lon="1.94037">
        <ele>1836.74</ele>
        <time>2013-12-23T12:07:43Z</time>
      </trkpt>
      <trkpt lat="42.66304" lon="1.94036">
        <ele>1840.58</ele>
        <time>2013-12-23T12:07:58Z</time>
      </trkpt>
      <trkpt lat="42.66293" lon="1.94033">
        <ele>1842.02</ele>
        <time>2013-12-23T12:08:11Z</time>
      </trkpt>
      <trkpt lat="42.66285" lon="1.94028">
        <ele>1846.35</ele>
        <time>2013-12-23T12:08:26Z</time>
      </trkpt>
      <trkpt lat="42.66277" lon="1.94032">
        <ele>1848.75</ele>
        <time>2013-12-23T12:08:40Z</time>
      </trkpt>
      <trkpt lat="42.66268" lon="1.94035">
        <ele>1849.71</ele>
        <time>2013-12-23T12:08:55Z</time>
      </trkpt>
      <trkpt lat="42.6626" lon="1.94044">
        <ele>1852.6</ele>
        <time>2013-12-23T12:09:09Z</time>
      </trkpt>
      <trkpt lat="42.66256" lon="1.94052">
        <ele>1851.64</ele>
        <time>2013-12-23T12:09:23Z</time>
      </trkpt>
      <trkpt lat="42.66251" lon="1.94057">
        <ele>1855.96</ele>
        <time>2013-12-23T12:09:37Z</time>
      </trkpt>
      <trkpt lat="42.66244" lon="1.94067">
        <ele>1860.29</ele>
        <time>2013-12-23T12:09:52Z</time>
      </trkpt>
      <trkpt lat="42.66238" lon="1.94072">
        <ele>1867.02</ele>
        <time>2013-12-23T12:10:07Z</time>
      </trkpt>
      <trkpt lat="42.66231" lon="1.94072">
        <ele>1871.34</ele>
        <time>2013-12-23T12:10:20Z</time>
      </trkpt>
      <trkpt lat="42.66225" lon="1.94079">
        <ele>1874.71</ele>
        <time>2013-12-23T12:10:35Z</time>
      </trkpt>
      <trkpt lat="42.66218" lon="1.94087">
        <ele>1878.07</ele>
        <time>2013-12-23T12:10:51Z</time>
      </trkpt>
      <trkpt lat="42.6621" lon="1.94097">
        <ele>1882.4</ele>
        <time>2013-12-23T12:11:07Z</time>
      </trkpt>
      <trkpt lat="42.66203" lon="1.94103">
        <ele>1886.72</ele>
        <time>2013-12-23T12:11:22Z</time>
      </trkpt>
      <trkpt lat="42.66197" lon="1.94093">
        <ele>1887.69</ele>
        <time>2013-12-23T12:11:37Z</time>
      </trkpt>
      <trkpt lat="42.66192" lon="1.94086">
        <ele>1890.57</ele>
        <time>2013-12-23T12:11:52Z</time>
      </trkpt>
      <trkpt lat="42.66189" lon="1.94082">
        <ele>1892.01</ele>
        <time>2013-12-23T12:11:58Z</time>
      </trkpt>
      <trkpt lat="42.66184" lon="1.94076">
        <ele>1893.45</ele>
        <time>2013-12-23T12:12:12Z</time>
      </trkpt>
      <trkpt lat="42.66176" lon="1.94075">
        <ele>1894.9</ele>
        <time>2013-12-23T12:12:29Z</time>
      </trkpt>
      <trkpt lat="42.66168" lon="1.94078">
        <ele>1898.26</ele>
        <time>2013-12-23T12:12:46Z</time>
      </trkpt>
      <trkpt lat="42.6616" lon="1.94081">
        <ele>1900.18</ele>
        <time>2013-12-23T12:13:04Z</time>
      </trkpt>
      <trkpt lat="42.66154" lon="1.94085">
        <ele>1903.07</ele>
        <time>2013-12-23T12:13:17Z</time>
      </trkpt>
      <trkpt lat="42.66147" lon="1.94088">
        <ele>1904.51</ele>
        <time>2013-12-23T12:13:30Z</time>
      </trkpt>
      <trkpt lat="42.6614" lon="1.94089">
        <ele>1908.35</ele>
        <time>2013-12-23T12:13:43Z</time>
      </trkpt>
      <trkpt lat="42.6613" lon="1.94094">
        <ele>1907.87</ele>
        <time>2013-12-23T12:13:58Z</time>
      </trkpt>
      <trkpt lat="42.66122" lon="1.94098">
        <ele>1912.2</ele>
        <time>2013-12-23T12:14:12Z</time>
      </trkpt>
      <trkpt lat="42.66109" lon="1.94107">
        <ele>1914.6</ele>
        <time>2013-12-23T12:14:29Z</time>
      </trkpt>
      <trkpt lat="42.66106" lon="1.94111">
        <ele>1913.16</ele>
        <time>2013-12-23T12:14:34Z</time>
      </trkpt>
      <trkpt lat="42.66102" lon="1.94112">
        <ele>1914.6</ele>
        <time>2013-12-23T12:14:46Z</time>
      </trkpt>
      <trkpt lat="42.66097" lon="1.94111">
        <ele>1920.37</ele>
        <time>2013-12-23T12:15:02Z</time>
      </trkpt>
      <trkpt lat="42.66089" lon="1.94114">
        <ele>1921.33</ele>
        <time>2013-12-23T12:15:17Z</time>
      </trkpt>
      <trkpt lat="42.66084" lon="1.94126">
        <ele>1921.33</ele>
        <time>2013-12-23T12:15:34Z</time>
      </trkpt>
      <trkpt lat="42.66074" lon="1.94135">
        <ele>1920.37</ele>
        <time>2013-12-23T12:15:51Z</time>
      </trkpt>
      <trkpt lat="42.66067" lon="1.94142">
        <ele>1921.81</ele>
        <time>2013-12-23T12:16:06Z</time>
      </trkpt>
      <trkpt lat="42.66061" lon="1.94149">
        <ele>1927.1</ele>
        <time>2013-12-23T12:16:21Z</time>
      </trkpt>
      <trkpt lat="42.66055" lon="1.94155">
        <ele>1928.06</ele>
        <time>2013-12-23T12:16:36Z</time>
      </trkpt>
      <trkpt lat="42.66049" lon="1.94164">
        <ele>1931.91</ele>
        <time>2013-12-23T12:16:51Z</time>
      </trkpt>
      <trkpt lat="42.66045" lon="1.94175">
        <ele>1935.27</ele>
        <time>2013-12-23T12:17:06Z</time>
      </trkpt>
      <trkpt lat="42.66041" lon="1.94182">
        <ele>1933.35</ele>
        <time>2013-12-23T12:17:19Z</time>
      </trkpt>
      <trkpt lat="42.66037" lon="1.94186">
        <ele>1933.35</ele>
        <time>2013-12-23T12:17:31Z</time>
      </trkpt>
      <trkpt lat="42.66026" lon="1.94193">
        <ele>1938.16</ele>
        <time>2013-12-23T12:17:47Z</time>
      </trkpt>
      <trkpt lat="42.6603" lon="1.9419">
        <ele>1944.4</ele>
        <time>2013-12-23T12:18:12Z</time>
      </trkpt>
      <trkpt lat="42.66028" lon="1.94191">
        <ele>1949.21</ele>
        <time>2013-12-23T12:18:44Z</time>
      </trkpt>
      <trkpt lat="42.66028" lon="1.94191">
        <ele>1953.06</ele>
        <time>2013-12-23T12:19:08Z</time>
      </trkpt>
      <trkpt lat="42.66024" lon="1.94192">
        <ele>1947.29</ele>
        <time>2013-12-23T12:19:31Z</time>
      </trkpt>
      <trkpt lat="42.66025" lon="1.94192">
        <ele>1944.88</ele>
        <time>2013-12-23T12:20:03Z</time>
      </trkpt>
      <trkpt lat="42.66027" lon="1.94188">
        <ele>1946.81</ele>
        <time>2013-12-23T12:20:20Z</time>
      </trkpt>
      <trkpt lat="42.66028" lon="1.94184">
        <ele>1951.61</ele>
        <time>2013-12-23T12:20:45Z</time>
      </trkpt>
      <trkpt lat="42.66026" lon="1.9419">
        <ele>1950.17</ele>
        <time>2013-12-23T12:21:11Z</time>
      </trkpt>
      <trkpt lat="42.66029" lon="1.94195">
        <ele>1951.13</ele>
        <time>2013-12-23T12:21:36Z</time>
      </trkpt>
      <trkpt lat="42.66021" lon="1.94201">
        <ele>1945.36</ele>
        <time>2013-12-23T12:21:51Z</time>
      </trkpt>
      <trkpt lat="42.66013" lon="1.942">
        <ele>1946.33</ele>
        <time>2013-12-23T12:22:05Z</time>
      </trkpt>
      <trkpt lat="42.66003" lon="1.94196">
        <ele>1948.73</ele>
        <time>2013-12-23T12:22:20Z</time>
      </trkpt>
      <trkpt lat="42.65993" lon="1.94191">
        <ele>1956.9</ele>
        <time>2013-12-23T12:22:39Z</time>
      </trkpt>
      <trkpt lat="42.65985" lon="1.94187">
        <ele>1963.63</ele>
        <time>2013-12-23T12:22:54Z</time>
      </trkpt>
      <trkpt lat="42.65979" lon="1.94186">
        <ele>1966.99</ele>
        <time>2013-12-23T12:23:08Z</time>
      </trkpt>
      <trkpt lat="42.65973" lon="1.94181">
        <ele>1972.28</ele>
        <time>2013-12-23T12:23:24Z</time>
      </trkpt>
      <trkpt lat="42.65966" lon="1.94179">
        <ele>1972.28</ele>
        <time>2013-12-23T12:23:39Z</time>
      </trkpt>
      <trkpt lat="42.6596" lon="1.94178">
        <ele>1970.84</ele>
        <time>2013-12-23T12:23:52Z</time>
      </trkpt>
      <trkpt lat="42.65955" lon="1.94179">
        <ele>1972.28</ele>
        <time>2013-12-23T12:24:06Z</time>
      </trkpt>
      <trkpt lat="42.65955" lon="1.94185">
        <ele>1967.96</ele>
        <time>2013-12-23T12:24:19Z</time>
      </trkpt>
      <trkpt lat="42.65961" lon="1.94199">
        <ele>1969.4</ele>
        <time>2013-12-23T12:24:36Z</time>
      </trkpt>
      <trkpt lat="42.65956" lon="1.94197">
        <ele>1969.88</ele>
        <time>2013-12-23T12:24:48Z</time>
      </trkpt>
      <trkpt lat="42.65946" lon="1.94189">
        <ele>1973.72</ele>
        <time>2013-12-23T12:25:02Z</time>
      </trkpt>
      <trkpt lat="42.65942" lon="1.9419">
        <ele>1974.69</ele>
        <time>2013-12-23T12:25:17Z</time>
      </trkpt>
      <trkpt lat="42.65933" lon="1.94187">
        <ele>1979.01</ele>
        <time>2013-12-23T12:25:33Z</time>
      </trkpt>
      <trkpt lat="42.65927" lon="1.94185">
        <ele>1984.3</ele>
        <time>2013-12-23T12:25:49Z</time>
      </trkpt>
      <trkpt lat="42.65919" lon="1.94184">
        <ele>1988.14</ele>
        <time>2013-12-23T12:26:03Z</time>
      </trkpt>
      <trkpt lat="42.65911" lon="1.94181">
        <ele>1991.03</ele>
        <time>2013-12-23T12:26:21Z</time>
      </trkpt>
      <trkpt lat="42.65905" lon="1.9418">
        <ele>1992.47</ele>
        <time>2013-12-23T12:26:36Z</time>
      </trkpt>
      <trkpt lat="42.65898" lon="1.94178">
        <ele>1995.83</ele>
        <time>2013-12-23T12:26:52Z</time>
      </trkpt>
      <trkpt lat="42.65889" lon="1.94177">
        <ele>1997.76</ele>
        <time>2013-12-23T12:27:09Z</time>
      </trkpt>
      <trkpt lat="42.65882" lon="1.94175">
        <ele>2000.64</ele>
        <time>2013-12-23T12:27:28Z</time>
      </trkpt>
      <trkpt lat="42.65879" lon="1.94175">
        <ele>2007.37</ele>
        <time>2013-12-23T12:27:47Z</time>
      </trkpt>
      <trkpt lat="42.6587" lon="1.9417">
        <ele>2009.29</ele>
        <time>2013-12-23T12:28:03Z</time>
      </trkpt>
      <trkpt lat="42.65869" lon="1.94163">
        <ele>2010.73</ele>
        <time>2013-12-23T12:28:17Z</time>
      </trkpt>
      <trkpt lat="42.65866" lon="1.94168">
        <ele>2009.77</ele>
        <time>2013-12-23T12:28:40Z</time>
      </trkpt>
      <trkpt lat="42.65862" lon="1.94167">
        <ele>2011.22</ele>
        <time>2013-12-23T12:29:01Z</time>
      </trkpt>
      <trkpt lat="42.65865" lon="1.94166">
        <ele>2010.25</ele>
        <time>2013-12-23T12:29:18Z</time>
      </trkpt>
      <trkpt lat="42.65866" lon="1.9416">
        <ele>2007.85</ele>
        <time>2013-12-23T12:29:33Z</time>
      </trkpt>
      <trkpt lat="42.6587" lon="1.94166">
        <ele>2004.97</ele>
        <time>2013-12-23T12:29:56Z</time>
      </trkpt>
      <trkpt lat="42.65868" lon="1.94164">
        <ele>2007.85</ele>
        <time>2013-12-23T12:30:27Z</time>
      </trkpt>
      <trkpt lat="42.65866" lon="1.94166">
        <ele>2006.41</ele>
        <time>2013-12-23T12:30:54Z</time>
      </trkpt>
      <trkpt lat="42.65864" lon="1.94163">
        <ele>2005.93</ele>
        <time>2013-12-23T12:31:15Z</time>
      </trkpt>
      <trkpt lat="42.65854" lon="1.94157">
        <ele>2003.04</ele>
        <time>2013-12-23T12:31:29Z</time>
      </trkpt>
      <trkpt lat="42.65845" lon="1.9415">
        <ele>2000.16</ele>
        <time>2013-12-23T12:31:43Z</time>
      </trkpt>
      <trkpt lat="42.65839" lon="1.94147">
        <ele>1998.72</ele>
        <time>2013-12-23T12:31:49Z</time>
      </trkpt>
      <trkpt lat="42.65827" lon="1.94146">
        <ele>1998.24</ele>
        <time>2013-12-23T12:32:02Z</time>
      </trkpt>
      <trkpt lat="42.65817" lon="1.94146">
        <ele>1998.24</ele>
        <time>2013-12-23T12:32:18Z</time>
      </trkpt>
      <trkpt lat="42.65809" lon="1.94149">
        <ele>1996.32</ele>
        <time>2013-12-23T12:32:33Z</time>
      </trkpt>
      <trkpt lat="42.65796" lon="1.9415">
        <ele>2002.08</ele>
        <time>2013-12-23T12:32:47Z</time>
      </trkpt>
      <trkpt lat="42.65786" lon="1.94153">
        <ele>2003.04</ele>
        <time>2013-12-23T12:33:01Z</time>
      </trkpt>
      <trkpt lat="42.65775" lon="1.94151">
        <ele>2009.77</ele>
        <time>2013-12-23T12:33:17Z</time>
      </trkpt>
      <trkpt lat="42.65764" lon="1.94151">
        <ele>2013.62</ele>
        <time>2013-12-23T12:33:33Z</time>
      </trkpt>
      <trkpt lat="42.65756" lon="1.9415">
        <ele>2014.1</ele>
        <time>2013-12-23T12:33:47Z</time>
      </trkpt>
      <trkpt lat="42.65747" lon="1.94148">
        <ele>2016.98</ele>
        <time>2013-12-23T12:34:03Z</time>
      </trkpt>
      <trkpt lat="42.65739" lon="1.94148">
        <ele>2017.94</ele>
        <time>2013-12-23T12:34:17Z</time>
      </trkpt>
      <trkpt lat="42.65732" lon="1.94147">
        <ele>2017.94</ele>
        <time>2013-12-23T12:34:31Z</time>
      </trkpt>
      <trkpt lat="42.65724" lon="1.94148">
        <ele>2020.35</ele>
        <time>2013-12-23T12:34:45Z</time>
      </trkpt>
      <trkpt lat="42.65714" lon="1.94148">
        <ele>2023.23</ele>
        <time>2013-12-23T12:35:02Z</time>
      </trkpt>
      <trkpt lat="42.65705" lon="1.94146">
        <ele>2026.6</ele>
        <time>2013-12-23T12:35:17Z</time>
      </trkpt>
      <trkpt lat="42.65696" lon="1.94142">
        <ele>2022.75</ele>
        <time>2013-12-23T12:35:33Z</time>
      </trkpt>
      <trkpt lat="42.65686" lon="1.94137">
        <ele>2024.67</ele>
        <time>2013-12-23T12:35:45Z</time>
      </trkpt>
      <trkpt lat="42.65677" lon="1.94125">
        <ele>2027.56</ele>
        <time>2013-12-23T12:36:03Z</time>
      </trkpt>
      <trkpt lat="42.65672" lon="1.94115">
        <ele>2029.48</ele>
        <time>2013-12-23T12:36:17Z</time>
      </trkpt>
      <trkpt lat="42.65667" lon="1.94107">
        <ele>2033.81</ele>
        <time>2013-12-23T12:36:34Z</time>
      </trkpt>
      <trkpt lat="42.65661" lon="1.94094">
        <ele>2036.69</ele>
        <time>2013-12-23T12:36:51Z</time>
      </trkpt>
      <trkpt lat="42.65651" lon="1.94079">
        <ele>2043.42</ele>
        <time>2013-12-23T12:37:11Z</time>
      </trkpt>
      <trkpt lat="42.65645" lon="1.94071">
        <ele>2048.71</ele>
        <time>2013-12-23T12:37:27Z</time>
      </trkpt>
      <trkpt lat="42.65644" lon="1.94067">
        <ele>2049.67</ele>
        <time>2013-12-23T12:37:30Z</time>
      </trkpt>
      <trkpt lat="42.65639" lon="1.94057">
        <ele>2055.44</ele>
        <time>2013-12-23T12:37:46Z</time>
      </trkpt>
      <trkpt lat="42.65634" lon="1.94049">
        <ele>2058.8</ele>
        <time>2013-12-23T12:38:00Z</time>
      </trkpt>
      <trkpt lat="42.6563" lon="1.94043">
        <ele>2063.61</ele>
        <time>2013-12-23T12:38:15Z</time>
      </trkpt>
      <trkpt lat="42.65622" lon="1.94034">
        <ele>2066.01</ele>
        <time>2013-12-23T12:38:31Z</time>
      </trkpt>
      <trkpt lat="42.65617" lon="1.94025">
        <ele>2071.3</ele>
        <time>2013-12-23T12:38:47Z</time>
      </trkpt>
      <trkpt lat="42.65613" lon="1.94019">
        <ele>2074.66</ele>
        <time>2013-12-23T12:39:05Z</time>
      </trkpt>
      <trkpt lat="42.65609" lon="1.94011">
        <ele>2075.14</ele>
        <time>2013-12-23T12:39:22Z</time>
      </trkpt>
      <trkpt lat="42.65603" lon="1.94002">
        <ele>2076.59</ele>
        <time>2013-12-23T12:39:42Z</time>
      </trkpt>
      <trkpt lat="42.65595" lon="1.93993">
        <ele>2076.1</ele>
        <time>2013-12-23T12:39:59Z</time>
      </trkpt>
      <trkpt lat="42.65589" lon="1.93988">
        <ele>2075.62</ele>
        <time>2013-12-23T12:40:16Z</time>
      </trkpt>
      <trkpt lat="42.65583" lon="1.93979">
        <ele>2075.62</ele>
        <time>2013-12-23T12:40:32Z</time>
      </trkpt>
      <trkpt lat="42.65577" lon="1.93975">
        <ele>2072.74</ele>
        <time>2013-12-23T12:40:48Z</time>
      </trkpt>
      <trkpt lat="42.65568" lon="1.93969">
        <ele>2077.07</ele>
        <time>2013-12-23T12:41:05Z</time>
      </trkpt>
      <trkpt lat="42.65562" lon="1.93963">
        <ele>2079.95</ele>
        <time>2013-12-23T12:41:19Z</time>
      </trkpt>
      <trkpt lat="42.65555" lon="1.93965">
        <ele>2080.43</ele>
        <time>2013-12-23T12:41:33Z</time>
      </trkpt>
      <trkpt lat="42.6555" lon="1.93965">
        <ele>2083.31</ele>
        <time>2013-12-23T12:41:48Z</time>
      </trkpt>
      <trkpt lat="42.65541" lon="1.93966">
        <ele>2087.16</ele>
        <time>2013-12-23T12:42:04Z</time>
      </trkpt>
      <trkpt lat="42.65536" lon="1.93967">
        <ele>2089.56</ele>
        <time>2013-12-23T12:42:18Z</time>
      </trkpt>
      <trkpt lat="42.65529" lon="1.9397">
        <ele>2089.56</ele>
        <time>2013-12-23T12:42:34Z</time>
      </trkpt>
      <trkpt lat="42.65526" lon="1.9396">
        <ele>2091</ele>
        <time>2013-12-23T12:42:48Z</time>
      </trkpt>
      <trkpt lat="42.6552" lon="1.93954">
        <ele>2094.37</ele>
        <time>2013-12-23T12:43:03Z</time>
      </trkpt>
      <trkpt lat="42.6551" lon="1.93955">
        <ele>2096.77</ele>
        <time>2013-12-23T12:43:20Z</time>
      </trkpt>
      <trkpt lat="42.65507" lon="1.93959">
        <ele>2100.14</ele>
        <time>2013-12-23T12:43:38Z</time>
      </trkpt>
      <trkpt lat="42.65504" lon="1.93956">
        <ele>2100.14</ele>
        <time>2013-12-23T12:43:51Z</time>
      </trkpt>
      <trkpt lat="42.655" lon="1.93949">
        <ele>2102.54</ele>
        <time>2013-12-23T12:44:18Z</time>
      </trkpt>
      <trkpt lat="42.65493" lon="1.93952">
        <ele>2106.87</ele>
        <time>2013-12-23T12:44:34Z</time>
      </trkpt>
      <trkpt lat="42.65485" lon="1.93951">
        <ele>2110.23</ele>
        <time>2013-12-23T12:44:52Z</time>
      </trkpt>
      <trkpt lat="42.65478" lon="1.9395">
        <ele>2112.15</ele>
        <time>2013-12-23T12:45:07Z</time>
      </trkpt>
      <trkpt lat="42.65474" lon="1.93954">
        <ele>2116.48</ele>
        <time>2013-12-23T12:45:23Z</time>
      </trkpt>
      <trkpt lat="42.65473" lon="1.93953">
        <ele>2116.96</ele>
        <time>2013-12-23T12:45:34Z</time>
      </trkpt>
      <trkpt lat="42.65468" lon="1.93951">
        <ele>2116.48</ele>
        <time>2013-12-23T12:45:49Z</time>
      </trkpt>
      <trkpt lat="42.65463" lon="1.93954">
        <ele>2116.48</ele>
        <time>2013-12-23T12:46:04Z</time>
      </trkpt>
      <trkpt lat="42.65458" lon="1.93949">
        <ele>2110.71</ele>
        <time>2013-12-23T12:46:23Z</time>
      </trkpt>
      <trkpt lat="42.65451" lon="1.9394">
        <ele>2109.27</ele>
        <time>2013-12-23T12:46:38Z</time>
      </trkpt>
      <trkpt lat="42.65442" lon="1.93926">
        <ele>2110.71</ele>
        <time>2013-12-23T12:46:54Z</time>
      </trkpt>
      <trkpt lat="42.65434" lon="1.93919">
        <ele>2112.63</ele>
        <time>2013-12-23T12:47:10Z</time>
      </trkpt>
      <trkpt lat="42.65423" lon="1.9391">
        <ele>2113.12</ele>
        <time>2013-12-23T12:47:27Z</time>
      </trkpt>
      <trkpt lat="42.65415" lon="1.93904">
        <ele>2114.56</ele>
        <time>2013-12-23T12:47:42Z</time>
      </trkpt>
      <trkpt lat="42.65406" lon="1.93897">
        <ele>2114.08</ele>
        <time>2013-12-23T12:47:59Z</time>
      </trkpt>
      <trkpt lat="42.65406" lon="1.93896">
        <ele>2114.56</ele>
        <time>2013-12-23T12:48:00Z</time>
      </trkpt>
      <trkpt lat="42.65393" lon="1.93886">
        <ele>2116.96</ele>
        <time>2013-12-23T12:48:17Z</time>
      </trkpt>
      <trkpt lat="42.65381" lon="1.93881">
        <ele>2121.77</ele>
        <time>2013-12-23T12:48:35Z</time>
      </trkpt>
      <trkpt lat="42.65376" lon="1.93878">
        <ele>2111.19</ele>
        <time>2013-12-23T12:48:50Z</time>
      </trkpt>
      <trkpt lat="42.65368" lon="1.93875">
        <ele>2113.12</ele>
        <time>2013-12-23T12:49:08Z</time>
      </trkpt>
      <trkpt lat="42.65358" lon="1.93873">
        <ele>2119.84</ele>
        <time>2013-12-23T12:49:26Z</time>
      </trkpt>
      <trkpt lat="42.6535" lon="1.9387">
        <ele>2122.73</ele>
        <time>2013-12-23T12:49:40Z</time>
      </trkpt>
      <trkpt lat="42.65348" lon="1.93867">
        <ele>2127.05</ele>
        <time>2013-12-23T12:49:55Z</time>
      </trkpt>
      <trkpt lat="42.65348" lon="1.93861">
        <ele>2129.46</ele>
        <time>2013-12-23T12:50:16Z</time>
      </trkpt>
      <trkpt lat="42.65336" lon="1.9386">
        <ele>2128.5</ele>
        <time>2013-12-23T12:50:28Z</time>
      </trkpt>
      <trkpt lat="42.65324" lon="1.93859">
        <ele>2129.94</ele>
        <time>2013-12-23T12:50:45Z</time>
      </trkpt>
      <trkpt lat="42.65315" lon="1.93855">
        <ele>2128.98</ele>
        <time>2013-12-23T12:50:59Z</time>
      </trkpt>
      <trkpt lat="42.653" lon="1.93855">
        <ele>2138.11</ele>
        <time>2013-12-23T12:51:19Z</time>
      </trkpt>
      <trkpt lat="42.65289" lon="1.93854">
        <ele>2145.32</ele>
        <time>2013-12-23T12:51:35Z</time>
      </trkpt>
      <trkpt lat="42.65282" lon="1.93855">
        <ele>2146.28</ele>
        <time>2013-12-23T12:51:50Z</time>
      </trkpt>
      <trkpt lat="42.65275" lon="1.93851">
        <ele>2144.36</ele>
        <time>2013-12-23T12:52:06Z</time>
      </trkpt>
      <trkpt lat="42.65275" lon="1.93842">
        <ele>2144.84</ele>
        <time>2013-12-23T12:52:20Z</time>
      </trkpt>
      <trkpt lat="42.6527" lon="1.93832">
        <ele>2147.24</ele>
        <time>2013-12-23T12:52:40Z</time>
      </trkpt>
      <trkpt lat="42.6526" lon="1.93826">
        <ele>2150.61</ele>
        <time>2013-12-23T12:52:56Z</time>
      </trkpt>
      <trkpt lat="42.65252" lon="1.93824">
        <ele>2149.65</ele>
        <time>2013-12-23T12:53:12Z</time>
      </trkpt>
      <trkpt lat="42.65245" lon="1.93818">
        <ele>2154.45</ele>
        <time>2013-12-23T12:53:28Z</time>
      </trkpt>
      <trkpt lat="42.65234" lon="1.93811">
        <ele>2156.86</ele>
        <time>2013-12-23T12:53:46Z</time>
      </trkpt>
      <trkpt lat="42.65225" lon="1.93806">
        <ele>2162.14</ele>
        <time>2013-12-23T12:54:03Z</time>
      </trkpt>
      <trkpt lat="42.65215" lon="1.93798">
        <ele>2167.91</ele>
        <time>2013-12-23T12:54:20Z</time>
      </trkpt>
      <trkpt lat="42.65208" lon="1.93792">
        <ele>2168.87</ele>
        <time>2013-12-23T12:54:42Z</time>
      </trkpt>
      <trkpt lat="42.65208" lon="1.93793">
        <ele>2171.76</ele>
        <time>2013-12-23T12:55:07Z</time>
      </trkpt>
      <trkpt lat="42.6521" lon="1.93781">
        <ele>2172.24</ele>
        <time>2013-12-23T12:55:20Z</time>
      </trkpt>
      <trkpt lat="42.65211" lon="1.93773">
        <ele>2172.72</ele>
        <time>2013-12-23T12:55:31Z</time>
      </trkpt>
      <trkpt lat="42.65213" lon="1.93769">
        <ele>2175.6</ele>
        <time>2013-12-23T12:55:46Z</time>
      </trkpt>
      <trkpt lat="42.65214" lon="1.93777">
        <ele>2178.48</ele>
        <time>2013-12-23T12:56:12Z</time>
      </trkpt>
      <trkpt lat="42.65214" lon="1.93753">
        <ele>2180.89</ele>
        <time>2013-12-23T12:56:26Z</time>
      </trkpt>
      <trkpt lat="42.65218" lon="1.93735">
        <ele>2184.25</ele>
        <time>2013-12-23T12:56:42Z</time>
      </trkpt>
      <trkpt lat="42.65221" lon="1.93726">
        <ele>2188.58</ele>
        <time>2013-12-23T12:56:58Z</time>
      </trkpt>
      <trkpt lat="42.65219" lon="1.93725">
        <ele>2190.02</ele>
        <time>2013-12-23T12:57:15Z</time>
      </trkpt>
      <trkpt lat="42.65221" lon="1.93707">
        <ele>2192.42</ele>
        <time>2013-12-23T12:57:31Z</time>
      </trkpt>
      <trkpt lat="42.65222" lon="1.93694">
        <ele>2195.31</ele>
        <time>2013-12-23T12:57:45Z</time>
      </trkpt>
      <trkpt lat="42.6521" lon="1.93693">
        <ele>2197.71</ele>
        <time>2013-12-23T12:58:00Z</time>
      </trkpt>
      <trkpt lat="42.65201" lon="1.93692">
        <ele>2200.11</ele>
        <time>2013-12-23T12:58:15Z</time>
      </trkpt>
      <trkpt lat="42.65194" lon="1.9369">
        <ele>2202.04</ele>
        <time>2013-12-23T12:58:31Z</time>
      </trkpt>
      <trkpt lat="42.65197" lon="1.93684">
        <ele>2201.08</ele>
        <time>2013-12-23T12:58:45Z</time>
      </trkpt>
      <trkpt lat="42.65198" lon="1.93685">
        <ele>2202.52</ele>
        <time>2013-12-23T12:59:10Z</time>
      </trkpt>
      <trkpt lat="42.652" lon="1.93675">
        <ele>2204.44</ele>
        <time>2013-12-23T12:59:32Z</time>
      </trkpt>
      <trkpt lat="42.65194" lon="1.93674">
        <ele>2206.84</ele>
        <time>2013-12-23T12:59:45Z</time>
      </trkpt>
      <trkpt lat="42.65187" lon="1.93673">
        <ele>2207.32</ele>
        <time>2013-12-23T12:59:57Z</time>
      </trkpt>
      <trkpt lat="42.65193" lon="1.93662">
        <ele>2210.69</ele>
        <time>2013-12-23T13:00:11Z</time>
      </trkpt>
      <trkpt lat="42.65184" lon="1.93664">
        <ele>2212.13</ele>
        <time>2013-12-23T13:00:24Z</time>
      </trkpt>
      <trkpt lat="42.65185" lon="1.93658">
        <ele>2211.65</ele>
        <time>2013-12-23T13:00:37Z</time>
      </trkpt>
      <trkpt lat="42.65176" lon="1.93657">
        <ele>2214.05</ele>
        <time>2013-12-23T13:00:51Z</time>
      </trkpt>
      <trkpt lat="42.6517" lon="1.93653">
        <ele>2216.94</ele>
        <time>2013-12-23T13:01:06Z</time>
      </trkpt>
      <trkpt lat="42.65171" lon="1.93648">
        <ele>2219.82</ele>
        <time>2013-12-23T13:01:27Z</time>
      </trkpt>
      <trkpt lat="42.65171" lon="1.93642">
        <ele>2221.74</ele>
        <time>2013-12-23T13:01:47Z</time>
      </trkpt>
      <trkpt lat="42.65171" lon="1.93641">
        <ele>2221.74</ele>
        <time>2013-12-23T13:02:11Z</time>
      </trkpt>
      <trkpt lat="42.65159" lon="1.93635">
        <ele>2222.22</ele>
        <time>2013-12-23T13:02:29Z</time>
      </trkpt>
      <trkpt lat="42.65143" lon="1.93627">
        <ele>2220.78</ele>
        <time>2013-12-23T13:02:42Z</time>
      </trkpt>
      <trkpt lat="42.65132" lon="1.93625">
        <ele>2218.38</ele>
        <time>2013-12-23T13:02:54Z</time>
      </trkpt>
      <trkpt lat="42.65126" lon="1.93624">
        <ele>2217.9</ele>
        <time>2013-12-23T13:02:59Z</time>
      </trkpt>
      <trkpt lat="42.65117" lon="1.93623">
        <ele>2217.9</ele>
        <time>2013-12-23T13:03:15Z</time>
      </trkpt>
      <trkpt lat="42.65116" lon="1.9362">
        <ele>2218.38</ele>
        <time>2013-12-23T13:03:19Z</time>
      </trkpt>
      <trkpt lat="42.65099" lon="1.93587">
        <ele>2215.98</ele>
        <time>2013-12-23T13:03:34Z</time>
      </trkpt>
      <trkpt lat="42.651" lon="1.93584">
        <ele>2215.5</ele>
        <time>2013-12-23T13:03:42Z</time>
      </trkpt>
      <trkpt lat="42.65092" lon="1.93576">
        <ele>2217.42</ele>
        <time>2013-12-23T13:03:49Z</time>
      </trkpt>
      <trkpt lat="42.65076" lon="1.93545">
        <ele>2216.94</ele>
        <time>2013-12-23T13:04:06Z</time>
      </trkpt>
      <trkpt lat="42.65068" lon="1.93532">
        <ele>2215.5</ele>
        <time>2013-12-23T13:04:19Z</time>
      </trkpt>
      <trkpt lat="42.65061" lon="1.93519">
        <ele>2217.9</ele>
        <time>2013-12-23T13:04:32Z</time>
      </trkpt>
      <trkpt lat="42.65055" lon="1.93509">
        <ele>2217.9</ele>
        <time>2013-12-23T13:04:45Z</time>
      </trkpt>
      <trkpt lat="42.65048" lon="1.93497">
        <ele>2219.34</ele>
        <time>2013-12-23T13:05:01Z</time>
      </trkpt>
      <trkpt lat="42.65043" lon="1.93484">
        <ele>2223.19</ele>
        <time>2013-12-23T13:05:19Z</time>
      </trkpt>
      <trkpt lat="42.65039" lon="1.93475">
        <ele>2224.15</ele>
        <time>2013-12-23T13:05:36Z</time>
      </trkpt>
      <trkpt lat="42.65028" lon="1.93466">
        <ele>2227.03</ele>
        <time>2013-12-23T13:05:57Z</time>
      </trkpt>
      <trkpt lat="42.65019" lon="1.93455">
        <ele>2229.43</ele>
        <time>2013-12-23T13:06:12Z</time>
      </trkpt>
      <trkpt lat="42.65013" lon="1.93449">
        <ele>2230.4</ele>
        <time>2013-12-23T13:06:28Z</time>
      </trkpt>
      <trkpt lat="42.65006" lon="1.93441">
        <ele>2232.32</ele>
        <time>2013-12-23T13:06:41Z</time>
      </trkpt>
      <trkpt lat="42.65003" lon="1.93432">
        <ele>2235.2</ele>
        <time>2013-12-23T13:06:55Z</time>
      </trkpt>
      <trkpt lat="42.64995" lon="1.93424">
        <ele>2238.57</ele>
        <time>2013-12-23T13:07:12Z</time>
      </trkpt>
      <trkpt lat="42.64989" lon="1.93428">
        <ele>2236.16</ele>
        <time>2013-12-23T13:07:29Z</time>
      </trkpt>
      <trkpt lat="42.6499" lon="1.93425">
        <ele>2235.2</ele>
        <time>2013-12-23T13:07:48Z</time>
      </trkpt>
      <trkpt lat="42.64982" lon="1.93424">
        <ele>2237.61</ele>
        <time>2013-12-23T13:08:08Z</time>
      </trkpt>
      <trkpt lat="42.64965" lon="1.93418">
        <ele>2235.2</ele>
        <time>2013-12-23T13:08:20Z</time>
      </trkpt>
      <trkpt lat="42.64944" lon="1.9341">
        <ele>2230.4</ele>
        <time>2013-12-23T13:08:34Z</time>
      </trkpt>
      <trkpt lat="42.64929" lon="1.93405">
        <ele>2228.47</ele>
        <time>2013-12-23T13:08:48Z</time>
      </trkpt>
      <trkpt lat="42.64919" lon="1.93397">
        <ele>2228.95</ele>
        <time>2013-12-23T13:09:03Z</time>
      </trkpt>
      <trkpt lat="42.64909" lon="1.93387">
        <ele>2228.47</ele>
        <time>2013-12-23T13:09:17Z</time>
      </trkpt>
      <trkpt lat="42.64909" lon="1.93386">
        <ele>2228.95</ele>
        <time>2013-12-23T13:09:19Z</time>
      </trkpt>
      <trkpt lat="42.64895" lon="1.93369">
        <ele>2232.32</ele>
        <time>2013-12-23T13:09:36Z</time>
      </trkpt>
      <trkpt lat="42.64883" lon="1.93358">
        <ele>2233.28</ele>
        <time>2013-12-23T13:09:53Z</time>
      </trkpt>
      <trkpt lat="42.64874" lon="1.93351">
        <ele>2235.68</ele>
        <time>2013-12-23T13:10:05Z</time>
      </trkpt>
      <trkpt lat="42.64864" lon="1.93338">
        <ele>2236.64</ele>
        <time>2013-12-23T13:10:20Z</time>
      </trkpt>
      <trkpt lat="42.6485" lon="1.93326">
        <ele>2234.24</ele>
        <time>2013-12-23T13:10:37Z</time>
      </trkpt>
      <trkpt lat="42.64843" lon="1.93313">
        <ele>2233.28</ele>
        <time>2013-12-23T13:10:49Z</time>
      </trkpt>
      <trkpt lat="42.64838" lon="1.93299">
        <ele>2237.13</ele>
        <time>2013-12-23T13:11:03Z</time>
      </trkpt>
      <trkpt lat="42.64833" lon="1.93284">
        <ele>2240.01</ele>
        <time>2013-12-23T13:11:19Z</time>
      </trkpt>
      <trkpt lat="42.64826" lon="1.93269">
        <ele>2242.89</ele>
        <time>2013-12-23T13:11:38Z</time>
      </trkpt>
      <trkpt lat="42.6482" lon="1.93256">
        <ele>2242.41</ele>
        <time>2013-12-23T13:11:55Z</time>
      </trkpt>
      <trkpt lat="42.64813" lon="1.93243">
        <ele>2243.85</ele>
        <time>2013-12-23T13:12:09Z</time>
      </trkpt>
      <trkpt lat="42.64806" lon="1.93229">
        <ele>2242.89</ele>
        <time>2013-12-23T13:12:23Z</time>
      </trkpt>
      <trkpt lat="42.64799" lon="1.93211">
        <ele>2244.33</ele>
        <time>2013-12-23T13:12:38Z</time>
      </trkpt>
      <trkpt lat="42.64794" lon="1.93199">
        <ele>2245.78</ele>
        <time>2013-12-23T13:12:53Z</time>
      </trkpt>
      <trkpt lat="42.64787" lon="1.93183">
        <ele>2248.18</ele>
        <time>2013-12-23T13:13:09Z</time>
      </trkpt>
      <trkpt lat="42.64777" lon="1.93169">
        <ele>2248.66</ele>
        <time>2013-12-23T13:13:25Z</time>
      </trkpt>
      <trkpt lat="42.64774" lon="1.93154">
        <ele>2249.14</ele>
        <time>2013-12-23T13:13:41Z</time>
      </trkpt>
      <trkpt lat="42.64778" lon="1.93147">
        <ele>2247.7</ele>
        <time>2013-12-23T13:13:49Z</time>
      </trkpt>
      <trkpt lat="42.64777" lon="1.93127">
        <ele>2247.7</ele>
        <time>2013-12-23T13:14:03Z</time>
      </trkpt>
      <trkpt lat="42.64773" lon="1.93109">
        <ele>2251.54</ele>
        <time>2013-12-23T13:14:19Z</time>
      </trkpt>
      <trkpt lat="42.64771" lon="1.93098">
        <ele>2252.99</ele>
        <time>2013-12-23T13:14:34Z</time>
      </trkpt>
      <trkpt lat="42.64768" lon="1.93091">
        <ele>2252.99</ele>
        <time>2013-12-23T13:14:47Z</time>
      </trkpt>
      <trkpt lat="42.64771" lon="1.9307">
        <ele>2257.31</ele>
        <time>2013-12-23T13:15:04Z</time>
      </trkpt>
      <trkpt lat="42.64777" lon="1.9306">
        <ele>2260.2</ele>
        <time>2013-12-23T13:15:18Z</time>
      </trkpt>
      <trkpt lat="42.6478" lon="1.93052">
        <ele>2266.45</ele>
        <time>2013-12-23T13:15:36Z</time>
      </trkpt>
      <trkpt lat="42.64781" lon="1.93039">
        <ele>2263.56</ele>
        <time>2013-12-23T13:15:51Z</time>
      </trkpt>
      <trkpt lat="42.64783" lon="1.93025">
        <ele>2259.24</ele>
        <time>2013-12-23T13:16:04Z</time>
      </trkpt>
      <trkpt lat="42.64783" lon="1.93016">
        <ele>2261.16</ele>
        <time>2013-12-23T13:16:17Z</time>
      </trkpt>
      <trkpt lat="42.64784" lon="1.93005">
        <ele>2265.48</ele>
        <time>2013-12-23T13:16:33Z</time>
      </trkpt>
      <trkpt lat="42.64784" lon="1.92995">
        <ele>2268.85</ele>
        <time>2013-12-23T13:16:47Z</time>
      </trkpt>
      <trkpt lat="42.64781" lon="1.92982">
        <ele>2271.25</ele>
        <time>2013-12-23T13:17:03Z</time>
      </trkpt>
      <trkpt lat="42.64776" lon="1.92972">
        <ele>2273.17</ele>
        <time>2013-12-23T13:17:18Z</time>
      </trkpt>
      <trkpt lat="42.64766" lon="1.92963">
        <ele>2273.66</ele>
        <time>2013-12-23T13:17:34Z</time>
      </trkpt>
      <trkpt lat="42.64755" lon="1.9296">
        <ele>2277.98</ele>
        <time>2013-12-23T13:17:52Z</time>
      </trkpt>
      <trkpt lat="42.64747" lon="1.92953">
        <ele>2280.87</ele>
        <time>2013-12-23T13:18:07Z</time>
      </trkpt>
      <trkpt lat="42.64747" lon="1.92954">
        <ele>2285.67</ele>
        <time>2013-12-23T13:18:26Z</time>
      </trkpt>
      <trkpt lat="42.64734" lon="1.92947">
        <ele>2284.71</ele>
        <time>2013-12-23T13:18:41Z</time>
      </trkpt>
      <trkpt lat="42.64726" lon="1.92939">
        <ele>2285.19</ele>
        <time>2013-12-23T13:18:55Z</time>
      </trkpt>
      <trkpt lat="42.64717" lon="1.92934">
        <ele>2287.11</ele>
        <time>2013-12-23T13:19:09Z</time>
      </trkpt>
      <trkpt lat="42.6471" lon="1.92927">
        <ele>2290</ele>
        <time>2013-12-23T13:19:26Z</time>
      </trkpt>
      <trkpt lat="42.64702" lon="1.9292">
        <ele>2291.44</ele>
        <time>2013-12-23T13:19:42Z</time>
      </trkpt>
      <trkpt lat="42.64696" lon="1.92914">
        <ele>2295.77</ele>
        <time>2013-12-23T13:20:01Z</time>
      </trkpt>
      <trkpt lat="42.6469" lon="1.92909">
        <ele>2295.28</ele>
        <time>2013-12-23T13:20:16Z</time>
      </trkpt>
      <trkpt lat="42.64689" lon="1.92903">
        <ele>2295.77</ele>
        <time>2013-12-23T13:20:31Z</time>
      </trkpt>
      <trkpt lat="42.64687" lon="1.92895">
        <ele>2296.25</ele>
        <time>2013-12-23T13:20:44Z</time>
      </trkpt>
      <trkpt lat="42.64682" lon="1.9289">
        <ele>2297.21</ele>
        <time>2013-12-23T13:20:58Z</time>
      </trkpt>
      <trkpt lat="42.64675" lon="1.92886">
        <ele>2301.05</ele>
        <time>2013-12-23T13:21:12Z</time>
      </trkpt>
      <trkpt lat="42.64669" lon="1.92886">
        <ele>2305.38</ele>
        <time>2013-12-23T13:21:30Z</time>
      </trkpt>
      <trkpt lat="42.64662" lon="1.92884">
        <ele>2308.26</ele>
        <time>2013-12-23T13:21:48Z</time>
      </trkpt>
      <trkpt lat="42.64654" lon="1.92885">
        <ele>2312.59</ele>
        <time>2013-12-23T13:22:04Z</time>
      </trkpt>
      <trkpt lat="42.64641" lon="1.92888">
        <ele>2314.51</ele>
        <time>2013-12-23T13:22:23Z</time>
      </trkpt>
      <trkpt lat="42.64635" lon="1.92892">
        <ele>2315.47</ele>
        <time>2013-12-23T13:22:38Z</time>
      </trkpt>
      <trkpt lat="42.64633" lon="1.92886">
        <ele>2314.51</ele>
        <time>2013-12-23T13:22:51Z</time>
      </trkpt>
      <trkpt lat="42.6463" lon="1.92878">
        <ele>2313.07</ele>
        <time>2013-12-23T13:23:06Z</time>
      </trkpt>
      <trkpt lat="42.64628" lon="1.92873">
        <ele>2311.15</ele>
        <time>2013-12-23T13:23:19Z</time>
      </trkpt>
      <trkpt lat="42.64627" lon="1.92865">
        <ele>2311.15</ele>
        <time>2013-12-23T13:23:36Z</time>
      </trkpt>
      <trkpt lat="42.64619" lon="1.92867">
        <ele>2316.91</ele>
        <time>2013-12-23T13:23:51Z</time>
      </trkpt>
      <trkpt lat="42.64613" lon="1.92873">
        <ele>2322.2</ele>
        <time>2013-12-23T13:24:06Z</time>
      </trkpt>
      <trkpt lat="42.64612" lon="1.92863">
        <ele>2323.64</ele>
        <time>2013-12-23T13:24:22Z</time>
      </trkpt>
      <trkpt lat="42.6461" lon="1.92851">
        <ele>2323.16</ele>
        <time>2013-12-23T13:24:38Z</time>
      </trkpt>
      <trkpt lat="42.64605" lon="1.92848">
        <ele>2323.16</ele>
        <time>2013-12-23T13:24:51Z</time>
      </trkpt>
      <trkpt lat="42.64599" lon="1.92856">
        <ele>2327.49</ele>
        <time>2013-12-23T13:25:07Z</time>
      </trkpt>
      <trkpt lat="42.64597" lon="1.9286">
        <ele>2332.78</ele>
        <time>2013-12-23T13:25:27Z</time>
      </trkpt>
      <trkpt lat="42.64586" lon="1.92862">
        <ele>2332.78</ele>
        <time>2013-12-23T13:25:41Z</time>
      </trkpt>
      <trkpt lat="42.64583" lon="1.92864">
        <ele>2336.62</ele>
        <time>2013-12-23T13:25:59Z</time>
      </trkpt>
      <trkpt lat="42.64576" lon="1.92866">
        <ele>2335.18</ele>
        <time>2013-12-23T13:26:08Z</time>
      </trkpt>
      <trkpt lat="42.64567" lon="1.92866">
        <ele>2335.66</ele>
        <time>2013-12-23T13:26:22Z</time>
      </trkpt>
      <trkpt lat="42.64555" lon="1.9287">
        <ele>2339.99</ele>
        <time>2013-12-23T13:26:39Z</time>
      </trkpt>
      <trkpt lat="42.64548" lon="1.92875">
        <ele>2342.87</ele>
        <time>2013-12-23T13:26:54Z</time>
      </trkpt>
      <trkpt lat="42.64539" lon="1.92878">
        <ele>2343.83</ele>
        <time>2013-12-23T13:27:10Z</time>
      </trkpt>
      <trkpt lat="42.64533" lon="1.92881">
        <ele>2343.35</ele>
        <time>2013-12-23T13:27:25Z</time>
      </trkpt>
      <trkpt lat="42.64526" lon="1.92886">
        <ele>2346.72</ele>
        <time>2013-12-23T13:27:42Z</time>
      </trkpt>
      <trkpt lat="42.64517" lon="1.92892">
        <ele>2350.08</ele>
        <time>2013-12-23T13:28:02Z</time>
      </trkpt>
      <trkpt lat="42.64511" lon="1.92896">
        <ele>2351.04</ele>
        <time>2013-12-23T13:28:19Z</time>
      </trkpt>
      <trkpt lat="42.64502" lon="1.929">
        <ele>2356.33</ele>
        <time>2013-12-23T13:28:35Z</time>
      </trkpt>
      <trkpt lat="42.64496" lon="1.92904">
        <ele>2358.25</ele>
        <time>2013-12-23T13:28:55Z</time>
      </trkpt>
      <trkpt lat="42.64491" lon="1.92905">
        <ele>2357.29</ele>
        <time>2013-12-23T13:29:12Z</time>
      </trkpt>
      <trkpt lat="42.6449" lon="1.92905">
        <ele>2360.17</ele>
        <time>2013-12-23T13:29:33Z</time>
      </trkpt>
      <trkpt lat="42.6449" lon="1.92907">
        <ele>2363.06</ele>
        <time>2013-12-23T13:29:52Z</time>
      </trkpt>
      <trkpt lat="42.64488" lon="1.9291">
        <ele>2363.54</ele>
        <time>2013-12-23T13:30:08Z</time>
      </trkpt>
      <trkpt lat="42.64476" lon="1.92918">
        <ele>2366.9</ele>
        <time>2013-12-23T13:30:25Z</time>
      </trkpt>
      <trkpt lat="42.64475" lon="1.92923">
        <ele>2369.31</ele>
        <time>2013-12-23T13:30:44Z</time>
      </trkpt>
      <trkpt lat="42.64476" lon="1.92916">
        <ele>2368.83</ele>
        <time>2013-12-23T13:31:02Z</time>
      </trkpt>
      <trkpt lat="42.64476" lon="1.92914">
        <ele>2367.38</ele>
        <time>2013-12-23T13:31:26Z</time>
      </trkpt>
      <trkpt lat="42.64476" lon="1.92914">
        <ele>2364.02</ele>
        <time>2013-12-23T13:31:42Z</time>
      </trkpt>
      <trkpt lat="42.64474" lon="1.92914">
        <ele>2365.46</ele>
        <time>2013-12-23T13:32:01Z</time>
      </trkpt>
      <trkpt lat="42.64475" lon="1.92914">
        <ele>2365.94</ele>
        <time>2013-12-23T13:32:21Z</time>
      </trkpt>
      <trkpt lat="42.64474" lon="1.92915">
        <ele>2364.02</ele>
        <time>2013-12-23T13:32:37Z</time>
      </trkpt>
      <trkpt lat="42.64475" lon="1.92917">
        <ele>2364.02</ele>
        <time>2013-12-23T13:32:59Z</time>
      </trkpt>
      <trkpt lat="42.64473" lon="1.92918">
        <ele>2365.46</ele>
        <time>2013-12-23T13:33:19Z</time>
      </trkpt>
      <trkpt lat="42.64476" lon="1.92917">
        <ele>2367.86</ele>
        <time>2013-12-23T13:33:41Z</time>
      </trkpt>
      <trkpt lat="42.64476" lon="1.92916">
        <ele>2367.38</ele>
        <time>2013-12-23T13:34:00Z</time>
      </trkpt>
      <trkpt lat="42.64477" lon="1.92918">
        <ele>2367.86</ele>
        <time>2013-12-23T13:34:24Z</time>
      </trkpt>
      <trkpt lat="42.64477" lon="1.92919">
        <ele>2368.35</ele>
        <time>2013-12-23T13:34:50Z</time>
      </trkpt>
      <trkpt lat="42.64475" lon="1.92918">
        <ele>2368.35</ele>
        <time>2013-12-23T13:35:07Z</time>
      </trkpt>
      <trkpt lat="42.64475" lon="1.92918">
        <ele>2367.38</ele>
        <time>2013-12-23T13:35:31Z</time>
      </trkpt>
      <trkpt lat="42.64476" lon="1.92917">
        <ele>2367.86</ele>
        <time>2013-12-23T13:35:47Z</time>
      </trkpt>
      <trkpt lat="42.64475" lon="1.92916">
        <ele>2371.71</ele>
        <time>2013-12-23T13:36:15Z</time>
      </trkpt>
      <trkpt lat="42.64475" lon="1.92919">
        <ele>2371.71</ele>
        <time>2013-12-23T13:36:33Z</time>
      </trkpt>
      <trkpt lat="42.64475" lon="1.92918">
        <ele>2369.79</ele>
        <time>2013-12-23T13:36:44Z</time>
      </trkpt>
      <trkpt lat="42.64476" lon="1.92913">
        <ele>2370.27</ele>
        <time>2013-12-23T13:37:15Z</time>
      </trkpt>
      <trkpt lat="42.64474" lon="1.92916">
        <ele>2369.31</ele>
        <time>2013-12-23T13:37:29Z</time>
      </trkpt>
      <trkpt lat="42.64477" lon="1.92915">
        <ele>2366.42</ele>
        <time>2013-12-23T13:37:51Z</time>
      </trkpt>
      <trkpt lat="42.64477" lon="1.92919">
        <ele>2365.94</ele>
        <time>2013-12-23T13:38:08Z</time>
      </trkpt>
      <trkpt lat="42.64475" lon="1.92915">
        <ele>2365.94</ele>
        <time>2013-12-23T13:38:29Z</time>
      </trkpt>
      <trkpt lat="42.64476" lon="1.92917">
        <ele>2366.42</ele>
        <time>2013-12-23T13:38:49Z</time>
      </trkpt>
      <trkpt lat="42.64474" lon="1.92916">
        <ele>2365.94</ele>
        <time>2013-12-23T13:39:10Z</time>
      </trkpt>
      <trkpt lat="42.64475" lon="1.92919">
        <ele>2370.75</ele>
        <time>2013-12-23T13:39:40Z</time>
      </trkpt>
      <trkpt lat="42.64475" lon="1.92918">
        <ele>2369.31</ele>
        <time>2013-12-23T13:40:04Z</time>
      </trkpt>
      <trkpt lat="42.64476" lon="1.92918">
        <ele>2370.27</ele>
        <time>2013-12-23T13:40:28Z</time>
      </trkpt>
      <trkpt lat="42.64478" lon="1.92919">
        <ele>2369.31</ele>
        <time>2013-12-23T13:40:57Z</time>
      </trkpt>
      <trkpt lat="42.64476" lon="1.92918">
        <ele>2369.31</ele>
        <time>2013-12-23T13:41:23Z</time>
      </trkpt>
      <trkpt lat="42.64476" lon="1.92918">
        <ele>2368.35</ele>
        <time>2013-12-23T13:41:43Z</time>
      </trkpt>
      <trkpt lat="42.64478" lon="1.92918">
        <ele>2366.42</ele>
        <time>2013-12-23T13:42:08Z</time>
      </trkpt>
      <trkpt lat="42.64476" lon="1.92918">
        <ele>2365.94</ele>
        <time>2013-12-23T13:42:33Z</time>
      </trkpt>
      <trkpt lat="42.64477" lon="1.92916">
        <ele>2367.38</ele>
        <time>2013-12-23T13:42:58Z</time>
      </trkpt>
      <trkpt lat="42.64476" lon="1.92917">
        <ele>2366.9</ele>
        <time>2013-12-23T13:43:22Z</time>
      </trkpt>
      <trkpt lat="42.64475" lon="1.92917">
        <ele>2368.35</ele>
        <time>2013-12-23T13:43:41Z</time>
      </trkpt>
      <trkpt lat="42.64476" lon="1.92918">
        <ele>2368.35</ele>
        <time>2013-12-23T13:44:12Z</time>
      </trkpt>
      <trkpt lat="42.64476" lon="1.92916">
        <ele>2368.83</ele>
        <time>2013-12-23T13:44:36Z</time>
      </trkpt>
      <trkpt lat="42.64476" lon="1.92916">
        <ele>2368.35</ele>
        <time>2013-12-23T13:44:59Z</time>
      </trkpt>
      <trkpt lat="42.64477" lon="1.92917">
        <ele>2368.35</ele>
        <time>2013-12-23T13:45:19Z</time>
      </trkpt>
      <trkpt lat="42.64476" lon="1.92915">
        <ele>2367.86</ele>
        <time>2013-12-23T13:45:39Z</time>
      </trkpt>
      <trkpt lat="42.64474" lon="1.92913">
        <ele>2368.83</ele>
        <time>2013-12-23T13:46:04Z</time>
      </trkpt>
      <trkpt lat="42.64475" lon="1.92915">
        <ele>2366.42</ele>
        <time>2013-12-23T13:46:22Z</time>
      </trkpt>
      <trkpt lat="42.64477" lon="1.92917">
        <ele>2369.31</ele>
        <time>2013-12-23T13:46:44Z</time>
      </trkpt>
      <trkpt lat="42.64477" lon="1.92919">
        <ele>2367.86</ele>
        <time>2013-12-23T13:47:10Z</time>
      </trkpt>
      <trkpt lat="42.64475" lon="1.92917">
        <ele>2366.9</ele>
        <time>2013-12-23T13:47:31Z</time>
      </trkpt>
      <trkpt lat="42.64476" lon="1.92919">
        <ele>2365.94</ele>
        <time>2013-12-23T13:47:57Z</time>
      </trkpt>
      <trkpt lat="42.64475" lon="1.92915">
        <ele>2366.42</ele>
        <time>2013-12-23T13:48:16Z</time>
      </trkpt>
      <trkpt lat="42.64474" lon="1.92915">
        <ele>2367.86</ele>
        <time>2013-12-23T13:48:45Z</time>
      </trkpt>
      <trkpt lat="42.64476" lon="1.92916">
        <ele>2368.83</ele>
        <time>2013-12-23T13:49:02Z</time>
      </trkpt>
      <trkpt lat="42.64476" lon="1.92918">
        <ele>2367.86</ele>
        <time>2013-12-23T13:49:25Z</time>
      </trkpt>
      <trkpt lat="42.64476" lon="1.92917">
        <ele>2367.38</ele>
        <time>2013-12-23T13:49:46Z</time>
      </trkpt>
      <trkpt lat="42.64475" lon="1.92916">
        <ele>2366.42</ele>
        <time>2013-12-23T13:50:04Z</time>
      </trkpt>
      <trkpt lat="42.64475" lon="1.92915">
        <ele>2367.86</ele>
        <time>2013-12-23T13:50:28Z</time>
      </trkpt>
      <trkpt lat="42.64475" lon="1.92918">
        <ele>2367.86</ele>
        <time>2013-12-23T13:50:45Z</time>
      </trkpt>
      <trkpt lat="42.64475" lon="1.92917">
        <ele>2368.35</ele>
        <time>2013-12-23T13:51:07Z</time>
      </trkpt>
      <trkpt lat="42.64478" lon="1.92916">
        <ele>2366.42</ele>
        <time>2013-12-23T13:51:15Z</time>
      </trkpt>
      <trkpt lat="42.64481" lon="1.92915">
        <ele>2365.94</ele>
        <time>2013-12-23T13:51:17Z</time>
      </trkpt>
      <trkpt lat="42.64483" lon="1.92914">
        <ele>2365.46</ele>
        <time>2013-12-23T13:51:19Z</time>
      </trkpt>
      <trkpt lat="42.6449" lon="1.92912">
        <ele>2362.1</ele>
        <time>2013-12-23T13:51:29Z</time>
      </trkpt>
      <trkpt lat="42.64492" lon="1.92911">
        <ele>2360.65</ele>
        <time>2013-12-23T13:51:37Z</time>
      </trkpt>
      <trkpt lat="42.64497" lon="1.9292">
        <ele>2358.73</ele>
        <time>2013-12-23T13:51:46Z</time>
      </trkpt>
      <trkpt lat="42.64497" lon="1.92926">
        <ele>2357.77</ele>
        <time>2013-12-23T13:51:59Z</time>
      </trkpt>
      <trkpt lat="42.64498" lon="1.92929">
        <ele>2358.73</ele>
        <time>2013-12-23T13:52:20Z</time>
      </trkpt>
      <trkpt lat="42.64497" lon="1.92946">
        <ele>2357.77</ele>
        <time>2013-12-23T13:52:39Z</time>
      </trkpt>
      <trkpt lat="42.645" lon="1.92976">
        <ele>2351.04</ele>
        <time>2013-12-23T13:52:49Z</time>
      </trkpt>
      <trkpt lat="42.64501" lon="1.92976">
        <ele>2350.56</ele>
        <time>2013-12-23T13:53:03Z</time>
      </trkpt>
      <trkpt lat="42.64499" lon="1.92975">
        <ele>2346.23</ele>
        <time>2013-12-23T13:53:20Z</time>
      </trkpt>
      <trkpt lat="42.64498" lon="1.92976">
        <ele>2347.2</ele>
        <time>2013-12-23T13:53:44Z</time>
      </trkpt>
      <trkpt lat="42.64499" lon="1.92977">
        <ele>2346.23</ele>
        <time>2013-12-23T13:54:08Z</time>
      </trkpt>
      <trkpt lat="42.64498" lon="1.92975">
        <ele>2344.31</ele>
        <time>2013-12-23T13:54:28Z</time>
      </trkpt>
      <trkpt lat="42.64497" lon="1.92974">
        <ele>2344.79</ele>
        <time>2013-12-23T13:54:43Z</time>
      </trkpt>
      <trkpt lat="42.64498" lon="1.92975">
        <ele>2346.23</ele>
        <time>2013-12-23T13:55:05Z</time>
      </trkpt>
      <trkpt lat="42.64498" lon="1.92975">
        <ele>2347.68</ele>
        <time>2013-12-23T13:55:28Z</time>
      </trkpt>
      <trkpt lat="42.64498" lon="1.92975">
        <ele>2346.72</ele>
        <time>2013-12-23T13:55:42Z</time>
      </trkpt>
      <trkpt lat="42.64498" lon="1.92976">
        <ele>2345.75</ele>
        <time>2013-12-23T13:56:03Z</time>
      </trkpt>
      <trkpt lat="42.64497" lon="1.92975">
        <ele>2344.79</ele>
        <time>2013-12-23T13:56:24Z</time>
      </trkpt>
      <trkpt lat="42.6451" lon="1.92992">
        <ele>2340.95</ele>
        <time>2013-12-23T13:56:39Z</time>
      </trkpt>
      <trkpt lat="42.64523" lon="1.93014">
        <ele>2336.62</ele>
        <time>2013-12-23T13:56:51Z</time>
      </trkpt>
      <trkpt lat="42.64534" lon="1.9302">
        <ele>2335.66</ele>
        <time>2013-12-23T13:57:03Z</time>
      </trkpt>
      <trkpt lat="42.64548" lon="1.93023">
        <ele>2331.33</ele>
        <time>2013-12-23T13:57:14Z</time>
      </trkpt>
      <trkpt lat="42.64551" lon="1.93023">
        <ele>2330.37</ele>
        <time>2013-12-23T13:57:19Z</time>
      </trkpt>
      <trkpt lat="42.64566" lon="1.93026">
        <ele>2329.41</ele>
        <time>2013-12-23T13:57:33Z</time>
      </trkpt>
      <trkpt lat="42.64583" lon="1.93027">
        <ele>2329.89</ele>
        <time>2013-12-23T13:57:45Z</time>
      </trkpt>
      <trkpt lat="42.64591" lon="1.93029">
        <ele>2328.93</ele>
        <time>2013-12-23T13:58:00Z</time>
      </trkpt>
      <trkpt lat="42.64591" lon="1.93029">
        <ele>2328.45</ele>
        <time>2013-12-23T13:58:03Z</time>
      </trkpt>
      <trkpt lat="42.64596" lon="1.93025">
        <ele>2326.53</ele>
        <time>2013-12-23T13:58:09Z</time>
      </trkpt>
      <trkpt lat="42.64613" lon="1.93038">
        <ele>2319.8</ele>
        <time>2013-12-23T13:58:17Z</time>
      </trkpt>
      <trkpt lat="42.6463" lon="1.93041">
        <ele>2314.51</ele>
        <time>2013-12-23T13:58:25Z</time>
      </trkpt>
      <trkpt lat="42.64633" lon="1.93042">
        <ele>2314.03</ele>
        <time>2013-12-23T13:58:26Z</time>
      </trkpt>
      <trkpt lat="42.64641" lon="1.93056">
        <ele>2309.7</ele>
        <time>2013-12-23T13:58:32Z</time>
      </trkpt>
      <trkpt lat="42.64654" lon="1.93038">
        <ele>2298.65</ele>
        <time>2013-12-23T13:58:41Z</time>
      </trkpt>
      <trkpt lat="42.64658" lon="1.93026">
        <ele>2294.8</ele>
        <time>2013-12-23T13:58:53Z</time>
      </trkpt>
      <trkpt lat="42.64656" lon="1.93019">
        <ele>2290</ele>
        <time>2013-12-23T13:59:07Z</time>
      </trkpt>
      <trkpt lat="42.64666" lon="1.93001">
        <ele>2289.04</ele>
        <time>2013-12-23T13:59:14Z</time>
      </trkpt>
      <trkpt lat="42.64704" lon="1.92984">
        <ele>2284.23</ele>
        <time>2013-12-23T13:59:23Z</time>
      </trkpt>
      <trkpt lat="42.64718" lon="1.93003">
        <ele>2278.94</ele>
        <time>2013-12-23T13:59:31Z</time>
      </trkpt>
      <trkpt lat="42.64723" lon="1.93022">
        <ele>2275.58</ele>
        <time>2013-12-23T13:59:35Z</time>
      </trkpt>
      <trkpt lat="42.64749" lon="1.93106">
        <ele>2265.96</ele>
        <time>2013-12-23T13:59:45Z</time>
      </trkpt>
      <trkpt lat="42.64757" lon="1.93133">
        <ele>2258.27</ele>
        <time>2013-12-23T13:59:52Z</time>
      </trkpt>
      <trkpt lat="42.6476" lon="1.93139">
        <ele>2254.91</ele>
        <time>2013-12-23T13:59:58Z</time>
      </trkpt>
      <trkpt lat="42.64768" lon="1.93147">
        <ele>2249.62</ele>
        <time>2013-12-23T14:00:11Z</time>
      </trkpt>
      <trkpt lat="42.64771" lon="1.9315">
        <ele>2247.7</ele>
        <time>2013-12-23T14:00:15Z</time>
      </trkpt>
      <trkpt lat="42.64774" lon="1.93154">
        <ele>2247.22</ele>
        <time>2013-12-23T14:00:19Z</time>
      </trkpt>
      <trkpt lat="42.64788" lon="1.93177">
        <ele>2243.37</ele>
        <time>2013-12-23T14:00:38Z</time>
      </trkpt>
      <trkpt lat="42.64803" lon="1.93207">
        <ele>2240.97</ele>
        <time>2013-12-23T14:00:56Z</time>
      </trkpt>
      <trkpt lat="42.64809" lon="1.93219">
        <ele>2240.49</ele>
        <time>2013-12-23T14:01:09Z</time>
      </trkpt>
      <trkpt lat="42.64815" lon="1.93235">
        <ele>2238.57</ele>
        <time>2013-12-23T14:01:24Z</time>
      </trkpt>
      <trkpt lat="42.64828" lon="1.93266">
        <ele>2236.64</ele>
        <time>2013-12-23T14:01:39Z</time>
      </trkpt>
      <trkpt lat="42.6484" lon="1.93296">
        <ele>2231.84</ele>
        <time>2013-12-23T14:01:54Z</time>
      </trkpt>
      <trkpt lat="42.64846" lon="1.93314">
        <ele>2231.36</ele>
        <time>2013-12-23T14:02:08Z</time>
      </trkpt>
      <trkpt lat="42.64851" lon="1.93322">
        <ele>2231.36</ele>
        <time>2013-12-23T14:02:23Z</time>
      </trkpt>
      <trkpt lat="42.64864" lon="1.93338">
        <ele>2229.43</ele>
        <time>2013-12-23T14:02:36Z</time>
      </trkpt>
      <trkpt lat="42.6488" lon="1.93354">
        <ele>2226.55</ele>
        <time>2013-12-23T14:02:49Z</time>
      </trkpt>
      <trkpt lat="42.64885" lon="1.93359">
        <ele>2227.51</ele>
        <time>2013-12-23T14:03:04Z</time>
      </trkpt>
      <trkpt lat="42.64895" lon="1.93369">
        <ele>2227.03</ele>
        <time>2013-12-23T14:03:18Z</time>
      </trkpt>
      <trkpt lat="42.64913" lon="1.93386">
        <ele>2228.47</ele>
        <time>2013-12-23T14:03:37Z</time>
      </trkpt>
      <trkpt lat="42.64936" lon="1.93406">
        <ele>2227.03</ele>
        <time>2013-12-23T14:03:57Z</time>
      </trkpt>
      <trkpt lat="42.64951" lon="1.9341">
        <ele>2227.99</ele>
        <time>2013-12-23T14:04:14Z</time>
      </trkpt>
      <trkpt lat="42.64964" lon="1.93413">
        <ele>2229.43</ele>
        <time>2013-12-23T14:04:31Z</time>
      </trkpt>
      <trkpt lat="42.64973" lon="1.93416">
        <ele>2230.88</ele>
        <time>2013-12-23T14:04:46Z</time>
      </trkpt>
      <trkpt lat="42.64982" lon="1.93418">
        <ele>2232.8</ele>
        <time>2013-12-23T14:05:02Z</time>
      </trkpt>
      <trkpt lat="42.64991" lon="1.93419">
        <ele>2234.24</ele>
        <time>2013-12-23T14:05:20Z</time>
      </trkpt>
      <trkpt lat="42.65001" lon="1.93424">
        <ele>2234.24</ele>
        <time>2013-12-23T14:05:35Z</time>
      </trkpt>
      <trkpt lat="42.65013" lon="1.93442">
        <ele>2232.8</ele>
        <time>2013-12-23T14:05:51Z</time>
      </trkpt>
      <trkpt lat="42.65014" lon="1.93453">
        <ele>2231.36</ele>
        <time>2013-12-23T14:06:04Z</time>
      </trkpt>
      <trkpt lat="42.65014" lon="1.93467">
        <ele>2229.43</ele>
        <time>2013-12-23T14:06:18Z</time>
      </trkpt>
      <trkpt lat="42.65017" lon="1.93482">
        <ele>2228.47</ele>
        <time>2013-12-23T14:06:36Z</time>
      </trkpt>
      <trkpt lat="42.65015" lon="1.9349">
        <ele>2227.03</ele>
        <time>2013-12-23T14:06:46Z</time>
      </trkpt>
      <trkpt lat="42.65004" lon="1.93516">
        <ele>2224.63</ele>
        <time>2013-12-23T14:07:02Z</time>
      </trkpt>
      <trkpt lat="42.65007" lon="1.93525">
        <ele>2223.67</ele>
        <time>2013-12-23T14:07:05Z</time>
      </trkpt>
      <trkpt lat="42.65023" lon="1.93544">
        <ele>2222.22</ele>
        <time>2013-12-23T14:07:09Z</time>
      </trkpt>
      <trkpt lat="42.65036" lon="1.93576">
        <ele>2219.82</ele>
        <time>2013-12-23T14:07:16Z</time>
      </trkpt>
      <trkpt lat="42.65036" lon="1.93591">
        <ele>2216.94</ele>
        <time>2013-12-23T14:07:32Z</time>
      </trkpt>
      <trkpt lat="42.65044" lon="1.93604">
        <ele>2215.98</ele>
        <time>2013-12-23T14:07:54Z</time>
      </trkpt>
      <trkpt lat="42.65053" lon="1.9362">
        <ele>2216.94</ele>
        <time>2013-12-23T14:08:16Z</time>
      </trkpt>
      <trkpt lat="42.65066" lon="1.93623">
        <ele>2215.98</ele>
        <time>2013-12-23T14:08:37Z</time>
      </trkpt>
      <trkpt lat="42.65066" lon="1.93624">
        <ele>2215.01</ele>
        <time>2013-12-23T14:09:00Z</time>
      </trkpt>
      <trkpt lat="42.65065" lon="1.93626">
        <ele>2211.65</ele>
        <time>2013-12-23T14:09:21Z</time>
      </trkpt>
      <trkpt lat="42.65062" lon="1.93625">
        <ele>2210.69</ele>
        <time>2013-12-23T14:09:40Z</time>
      </trkpt>
      <trkpt lat="42.65065" lon="1.93627">
        <ele>2211.65</ele>
        <time>2013-12-23T14:10:02Z</time>
      </trkpt>
      <trkpt lat="42.65066" lon="1.93624">
        <ele>2215.5</ele>
        <time>2013-12-23T14:10:25Z</time>
      </trkpt>
      <trkpt lat="42.65064" lon="1.93624">
        <ele>2219.34</ele>
        <time>2013-12-23T14:10:44Z</time>
      </trkpt>
      <trkpt lat="42.65063" lon="1.93622">
        <ele>2219.82</ele>
        <time>2013-12-23T14:11:06Z</time>
      </trkpt>
      <trkpt lat="42.65062" lon="1.93624">
        <ele>2217.9</ele>
        <time>2013-12-23T14:11:24Z</time>
      </trkpt>
      <trkpt lat="42.65063" lon="1.93625">
        <ele>2215.5</ele>
        <time>2013-12-23T14:11:37Z</time>
      </trkpt>
      <trkpt lat="42.65063" lon="1.93624">
        <ele>2215.98</ele>
        <time>2013-12-23T14:11:54Z</time>
      </trkpt>
      <trkpt lat="42.65063" lon="1.93624">
        <ele>2216.94</ele>
        <time>2013-12-23T14:12:18Z</time>
      </trkpt>
      <trkpt lat="42.65064" lon="1.93622">
        <ele>2218.86</ele>
        <time>2013-12-23T14:12:38Z</time>
      </trkpt>
      <trkpt lat="42.65063" lon="1.93621">
        <ele>2220.3</ele>
        <time>2013-12-23T14:13:00Z</time>
      </trkpt>
      <trkpt lat="42.65064" lon="1.93622">
        <ele>2219.82</ele>
        <time>2013-12-23T14:13:13Z</time>
      </trkpt>
      <trkpt lat="42.65063" lon="1.93623">
        <ele>2218.38</ele>
        <time>2013-12-23T14:13:36Z</time>
      </trkpt>
      <trkpt lat="42.65064" lon="1.93622">
        <ele>2217.42</ele>
        <time>2013-12-23T14:13:59Z</time>
      </trkpt>
      <trkpt lat="42.65064" lon="1.93625">
        <ele>2215.01</ele>
        <time>2013-12-23T14:14:09Z</time>
      </trkpt>
      <trkpt lat="42.6506" lon="1.93624">
        <ele>2213.57</ele>
        <time>2013-12-23T14:14:29Z</time>
      </trkpt>
      <trkpt lat="42.6506" lon="1.93624">
        <ele>2213.57</ele>
        <time>2013-12-23T14:14:52Z</time>
      </trkpt>
      <trkpt lat="42.65062" lon="1.93624">
        <ele>2216.94</ele>
        <time>2013-12-23T14:15:19Z</time>
      </trkpt>
      <trkpt lat="42.65062" lon="1.93622">
        <ele>2216.46</ele>
        <time>2013-12-23T14:15:40Z</time>
      </trkpt>
      <trkpt lat="42.65061" lon="1.93623">
        <ele>2213.57</ele>
        <time>2013-12-23T14:15:59Z</time>
      </trkpt>
      <trkpt lat="42.65061" lon="1.93624">
        <ele>2214.53</ele>
        <time>2013-12-23T14:16:22Z</time>
      </trkpt>
      <trkpt lat="42.65062" lon="1.93621">
        <ele>2216.94</ele>
        <time>2013-12-23T14:16:49Z</time>
      </trkpt>
      <trkpt lat="42.65064" lon="1.93616">
        <ele>2218.86</ele>
        <time>2013-12-23T14:17:18Z</time>
      </trkpt>
      <trkpt lat="42.65062" lon="1.9362">
        <ele>2219.82</ele>
        <time>2013-12-23T14:17:44Z</time>
      </trkpt>
      <trkpt lat="42.65063" lon="1.93623">
        <ele>2221.74</ele>
        <time>2013-12-23T14:18:11Z</time>
      </trkpt>
      <trkpt lat="42.65063" lon="1.93621">
        <ele>2218.38</ele>
        <time>2013-12-23T14:18:37Z</time>
      </trkpt>
      <trkpt lat="42.65063" lon="1.93622">
        <ele>2216.46</ele>
        <time>2013-12-23T14:19:06Z</time>
      </trkpt>
      <trkpt lat="42.65064" lon="1.93622">
        <ele>2218.86</ele>
        <time>2013-12-23T14:19:35Z</time>
      </trkpt>
      <trkpt lat="42.65063" lon="1.93627">
        <ele>2215.98</ele>
        <time>2013-12-23T14:20:01Z</time>
      </trkpt>
      <trkpt lat="42.65064" lon="1.93622">
        <ele>2215.5</ele>
        <time>2013-12-23T14:20:20Z</time>
      </trkpt>
      <trkpt lat="42.65063" lon="1.93623">
        <ele>2215.01</ele>
        <time>2013-12-23T14:20:43Z</time>
      </trkpt>
      <trkpt lat="42.65063" lon="1.93627">
        <ele>2217.42</ele>
        <time>2013-12-23T14:21:03Z</time>
      </trkpt>
      <trkpt lat="42.65061" lon="1.93625">
        <ele>2218.38</ele>
        <time>2013-12-23T14:21:23Z</time>
      </trkpt>
      <trkpt lat="42.65059" lon="1.93622">
        <ele>2216.94</ele>
        <time>2013-12-23T14:21:43Z</time>
      </trkpt>
      <trkpt lat="42.6506" lon="1.93625">
        <ele>2218.38</ele>
        <time>2013-12-23T14:21:53Z</time>
      </trkpt>
      <trkpt lat="42.65063" lon="1.93627">
        <ele>2219.82</ele>
        <time>2013-12-23T14:22:19Z</time>
      </trkpt>
      <trkpt lat="42.6506" lon="1.93626">
        <ele>2220.3</ele>
        <time>2013-12-23T14:22:40Z</time>
      </trkpt>
      <trkpt lat="42.65062" lon="1.93625">
        <ele>2219.82</ele>
        <time>2013-12-23T14:22:55Z</time>
      </trkpt>
      <trkpt lat="42.65063" lon="1.93623">
        <ele>2220.3</ele>
        <time>2013-12-23T14:23:07Z</time>
      </trkpt>
      <trkpt lat="42.65059" lon="1.93622">
        <ele>2215.5</ele>
        <time>2013-12-23T14:23:33Z</time>
      </trkpt>
      <trkpt lat="42.65058" lon="1.93621">
        <ele>2211.17</ele>
        <time>2013-12-23T14:24:09Z</time>
      </trkpt>
      <trkpt lat="42.6506" lon="1.93622">
        <ele>2216.46</ele>
        <time>2013-12-23T14:24:45Z</time>
      </trkpt>
      <trkpt lat="42.65058" lon="1.93621">
        <ele>2217.42</ele>
        <time>2013-12-23T14:25:25Z</time>
      </trkpt>
      <trkpt lat="42.6506" lon="1.9362">
        <ele>2215.98</ele>
        <time>2013-12-23T14:25:41Z</time>
      </trkpt>
      <trkpt lat="42.65062" lon="1.93622">
        <ele>2211.65</ele>
        <time>2013-12-23T14:26:25Z</time>
      </trkpt>
      <trkpt lat="42.65062" lon="1.93623">
        <ele>2211.17</ele>
        <time>2013-12-23T14:27:17Z</time>
      </trkpt>
      <trkpt lat="42.6506" lon="1.93622">
        <ele>2214.53</ele>
        <time>2013-12-23T14:28:07Z</time>
      </trkpt>
      <trkpt lat="42.6506" lon="1.93623">
        <ele>2212.61</ele>
        <time>2013-12-23T14:28:51Z</time>
      </trkpt>
      <trkpt lat="42.6506" lon="1.93622">
        <ele>2214.53</ele>
        <time>2013-12-23T14:29:26Z</time>
      </trkpt>
      <trkpt lat="42.65058" lon="1.93622">
        <ele>2217.9</ele>
        <time>2013-12-23T14:29:37Z</time>
      </trkpt>
      <trkpt lat="42.65058" lon="1.93621">
        <ele>2218.38</ele>
        <time>2013-12-23T14:29:51Z</time>
      </trkpt>
      <trkpt lat="42.6506" lon="1.93622">
        <ele>2219.34</ele>
        <time>2013-12-23T14:30:13Z</time>
      </trkpt>
      <trkpt lat="42.65058" lon="1.93623">
        <ele>2220.78</ele>
        <time>2013-12-23T14:30:28Z</time>
      </trkpt>
      <trkpt lat="42.65058" lon="1.93623">
        <ele>2220.3</ele>
        <time>2013-12-23T14:30:42Z</time>
      </trkpt>
      <trkpt lat="42.6506" lon="1.93624">
        <ele>2218.86</ele>
        <time>2013-12-23T14:30:53Z</time>
      </trkpt>
      <trkpt lat="42.65061" lon="1.93624">
        <ele>2218.86</ele>
        <time>2013-12-23T14:31:07Z</time>
      </trkpt>
      <trkpt lat="42.65061" lon="1.93622">
        <ele>2219.34</ele>
        <time>2013-12-23T14:31:21Z</time>
      </trkpt>
      <trkpt lat="42.65061" lon="1.93623">
        <ele>2220.3</ele>
        <time>2013-12-23T14:31:32Z</time>
      </trkpt>
      <trkpt lat="42.6506" lon="1.93623">
        <ele>2220.3</ele>
        <time>2013-12-23T14:31:47Z</time>
      </trkpt>
      <trkpt lat="42.6506" lon="1.93622">
        <ele>2222.22</ele>
        <time>2013-12-23T14:32:00Z</time>
      </trkpt>
      <trkpt lat="42.65067" lon="1.93622">
        <ele>2221.26</ele>
        <time>2013-12-23T14:32:11Z</time>
      </trkpt>
      <trkpt lat="42.65068" lon="1.93622">
        <ele>2220.78</ele>
        <time>2013-12-23T14:32:13Z</time>
      </trkpt>
      <trkpt lat="42.65078" lon="1.93624">
        <ele>2218.86</ele>
        <time>2013-12-23T14:32:26Z</time>
      </trkpt>
      <trkpt lat="42.65083" lon="1.93625">
        <ele>2218.86</ele>
        <time>2013-12-23T14:32:33Z</time>
      </trkpt>
      <trkpt lat="42.65091" lon="1.93626">
        <ele>2217.9</ele>
        <time>2013-12-23T14:32:44Z</time>
      </trkpt>
      <trkpt lat="42.65099" lon="1.93624">
        <ele>2218.38</ele>
        <time>2013-12-23T14:32:56Z</time>
      </trkpt>
      <trkpt lat="42.65105" lon="1.93622">
        <ele>2218.86</ele>
        <time>2013-12-23T14:33:07Z</time>
      </trkpt>
      <trkpt lat="42.65121" lon="1.93622">
        <ele>2217.9</ele>
        <time>2013-12-23T14:33:18Z</time>
      </trkpt>
      <trkpt lat="42.65131" lon="1.93623">
        <ele>2216.46</ele>
        <time>2013-12-23T14:33:32Z</time>
      </trkpt>
      <trkpt lat="42.65132" lon="1.93623">
        <ele>2216.46</ele>
        <time>2013-12-23T14:33:33Z</time>
      </trkpt>
      <trkpt lat="42.65142" lon="1.93627">
        <ele>2217.42</ele>
        <time>2013-12-23T14:33:45Z</time>
      </trkpt>
      <trkpt lat="42.65149" lon="1.93632">
        <ele>2218.38</ele>
        <time>2013-12-23T14:33:58Z</time>
      </trkpt>
      <trkpt lat="42.65156" lon="1.93638">
        <ele>2219.34</ele>
        <time>2013-12-23T14:34:10Z</time>
      </trkpt>
      <trkpt lat="42.65162" lon="1.93641">
        <ele>2221.26</ele>
        <time>2013-12-23T14:34:21Z</time>
      </trkpt>
      <trkpt lat="42.65165" lon="1.9364">
        <ele>2221.26</ele>
        <time>2013-12-23T14:34:29Z</time>
      </trkpt>
      <trkpt lat="42.65165" lon="1.93639">
        <ele>2222.71</ele>
        <time>2013-12-23T14:34:41Z</time>
      </trkpt>
      <trkpt lat="42.65165" lon="1.93639">
        <ele>2224.15</ele>
        <time>2013-12-23T14:34:52Z</time>
      </trkpt>
      <trkpt lat="42.65166" lon="1.9364">
        <ele>2225.59</ele>
        <time>2013-12-23T14:35:04Z</time>
      </trkpt>
      <trkpt lat="42.65165" lon="1.93641">
        <ele>2226.07</ele>
        <time>2013-12-23T14:35:16Z</time>
      </trkpt>
      <trkpt lat="42.65165" lon="1.93641">
        <ele>2226.55</ele>
        <time>2013-12-23T14:35:38Z</time>
      </trkpt>
      <trkpt lat="42.65165" lon="1.93642">
        <ele>2226.55</ele>
        <time>2013-12-23T14:35:56Z</time>
      </trkpt>
      <trkpt lat="42.65164" lon="1.93639">
        <ele>2227.03</ele>
        <time>2013-12-23T14:36:11Z</time>
      </trkpt>
      <trkpt lat="42.65164" lon="1.93641">
        <ele>2228.47</ele>
        <time>2013-12-23T14:36:25Z</time>
      </trkpt>
      <trkpt lat="42.65165" lon="1.93642">
        <ele>2227.51</ele>
        <time>2013-12-23T14:36:38Z</time>
      </trkpt>
      <trkpt lat="42.65165" lon="1.9364">
        <ele>2227.99</ele>
        <time>2013-12-23T14:36:52Z</time>
      </trkpt>
      <trkpt lat="42.65165" lon="1.93641">
        <ele>2227.51</ele>
        <time>2013-12-23T14:37:04Z</time>
      </trkpt>
      <trkpt lat="42.65165" lon="1.9364">
        <ele>2227.99</ele>
        <time>2013-12-23T14:37:22Z</time>
      </trkpt>
      <trkpt lat="42.65163" lon="1.9364">
        <ele>2226.55</ele>
        <time>2013-12-23T14:37:40Z</time>
      </trkpt>
      <trkpt lat="42.65164" lon="1.9364">
        <ele>2223.67</ele>
        <time>2013-12-23T14:38:14Z</time>
      </trkpt>
      <trkpt lat="42.65166" lon="1.93645">
        <ele>2222.71</ele>
        <time>2013-12-23T14:38:31Z</time>
      </trkpt>
      <trkpt lat="42.65166" lon="1.93645">
        <ele>2223.19</ele>
        <time>2013-12-23T14:38:35Z</time>
      </trkpt>
      <trkpt lat="42.65168" lon="1.93648">
        <ele>2224.63</ele>
        <time>2013-12-23T14:38:44Z</time>
      </trkpt>
      <trkpt lat="42.65168" lon="1.93647">
        <ele>2225.59</ele>
        <time>2013-12-23T14:38:58Z</time>
      </trkpt>
      <trkpt lat="42.65168" lon="1.93649">
        <ele>2226.07</ele>
        <time>2013-12-23T14:39:10Z</time>
      </trkpt>
      <trkpt lat="42.65168" lon="1.93648">
        <ele>2227.51</ele>
        <time>2013-12-23T14:39:32Z</time>
      </trkpt>
      <trkpt lat="42.65168" lon="1.93648">
        <ele>2226.07</ele>
        <time>2013-12-23T14:39:46Z</time>
      </trkpt>
      <trkpt lat="42.65167" lon="1.93647">
        <ele>2226.55</ele>
        <time>2013-12-23T14:40:06Z</time>
      </trkpt>
      <trkpt lat="42.65168" lon="1.93648">
        <ele>2226.07</ele>
        <time>2013-12-23T14:40:19Z</time>
      </trkpt>
      <trkpt lat="42.65169" lon="1.93646">
        <ele>2227.51</ele>
        <time>2013-12-23T14:40:35Z</time>
      </trkpt>
      <trkpt lat="42.65168" lon="1.93647">
        <ele>2227.03</ele>
        <time>2013-12-23T14:41:04Z</time>
      </trkpt>
      <trkpt lat="42.65169" lon="1.93647">
        <ele>2226.55</ele>
        <time>2013-12-23T14:41:20Z</time>
      </trkpt>
      <trkpt lat="42.65168" lon="1.93648">
        <ele>2223.67</ele>
        <time>2013-12-23T14:41:37Z</time>
      </trkpt>
      <trkpt lat="42.65168" lon="1.93649">
        <ele>2225.59</ele>
        <time>2013-12-23T14:41:58Z</time>
      </trkpt>
      <trkpt lat="42.65168" lon="1.93649">
        <ele>2226.07</ele>
        <time>2013-12-23T14:42:22Z</time>
      </trkpt>
      <trkpt lat="42.65168" lon="1.93646">
        <ele>2226.55</ele>
        <time>2013-12-23T14:42:38Z</time>
      </trkpt>
      <trkpt lat="42.65168" lon="1.93647">
        <ele>2225.59</ele>
        <time>2013-12-23T14:42:50Z</time>
      </trkpt>
      <trkpt lat="42.65169" lon="1.93648">
        <ele>2224.63</ele>
        <time>2013-12-23T14:43:05Z</time>
      </trkpt>
      <trkpt lat="42.65169" lon="1.9365">
        <ele>2225.11</ele>
        <time>2013-12-23T14:43:18Z</time>
      </trkpt>
      <trkpt lat="42.6517" lon="1.93654">
        <ele>2225.11</ele>
        <time>2013-12-23T14:43:22Z</time>
      </trkpt>
      <trkpt lat="42.6518" lon="1.9366">
        <ele>2223.19</ele>
        <time>2013-12-23T14:43:29Z</time>
      </trkpt>
      <trkpt lat="42.65186" lon="1.93675">
        <ele>2218.38</ele>
        <time>2013-12-23T14:43:35Z</time>
      </trkpt>
      <trkpt lat="42.65194" lon="1.93695">
        <ele>2211.65</ele>
        <time>2013-12-23T14:43:40Z</time>
      </trkpt>
      <trkpt lat="42.65198" lon="1.93707">
        <ele>2208.29</ele>
        <time>2013-12-23T14:43:42Z</time>
      </trkpt>
      <trkpt lat="42.65192" lon="1.93726">
        <ele>2202.52</ele>
        <time>2013-12-23T14:43:49Z</time>
      </trkpt>
      <trkpt lat="42.65192" lon="1.93725">
        <ele>2200.11</ele>
        <time>2013-12-23T14:44:00Z</time>
      </trkpt>
      <trkpt lat="42.65193" lon="1.93727">
        <ele>2200.11</ele>
        <time>2013-12-23T14:44:07Z</time>
      </trkpt>
      <trkpt lat="42.65192" lon="1.93744">
        <ele>2198.19</ele>
        <time>2013-12-23T14:44:11Z</time>
      </trkpt>
      <trkpt lat="42.65199" lon="1.93753">
        <ele>2195.31</ele>
        <time>2013-12-23T14:44:17Z</time>
      </trkpt>
      <trkpt lat="42.65198" lon="1.93754">
        <ele>2193.87</ele>
        <time>2013-12-23T14:44:23Z</time>
      </trkpt>
      <trkpt lat="42.65214" lon="1.93768">
        <ele>2189.54</ele>
        <time>2013-12-23T14:44:31Z</time>
      </trkpt>
      <trkpt lat="42.6522" lon="1.93772">
        <ele>2188.1</ele>
        <time>2013-12-23T14:44:33Z</time>
      </trkpt>
      <trkpt lat="42.65245" lon="1.938">
        <ele>2180.41</ele>
        <time>2013-12-23T14:44:40Z</time>
      </trkpt>
      <trkpt lat="42.65279" lon="1.938">
        <ele>2171.76</ele>
        <time>2013-12-23T14:44:46Z</time>
      </trkpt>
      <trkpt lat="42.65283" lon="1.938">
        <ele>2170.79</ele>
        <time>2013-12-23T14:44:47Z</time>
      </trkpt>
      <trkpt lat="42.65292" lon="1.93802">
        <ele>2164.55</ele>
        <time>2013-12-23T14:44:56Z</time>
      </trkpt>
      <trkpt lat="42.653" lon="1.93802">
        <ele>2162.62</ele>
        <time>2013-12-23T14:44:58Z</time>
      </trkpt>
      <trkpt lat="42.65328" lon="1.93797">
        <ele>2155.41</ele>
        <time>2013-12-23T14:45:03Z</time>
      </trkpt>
      <trkpt lat="42.65352" lon="1.93792">
        <ele>2148.2</ele>
        <time>2013-12-23T14:45:09Z</time>
      </trkpt>
      <trkpt lat="42.65365" lon="1.938">
        <ele>2144.36</ele>
        <time>2013-12-23T14:45:12Z</time>
      </trkpt>
      <trkpt lat="42.65377" lon="1.93816">
        <ele>2140.51</ele>
        <time>2013-12-23T14:45:15Z</time>
      </trkpt>
      <trkpt lat="42.65384" lon="1.93813">
        <ele>2139.07</ele>
        <time>2013-12-23T14:45:17Z</time>
      </trkpt>
      <trkpt lat="42.65416" lon="1.93814">
        <ele>2132.34</ele>
        <time>2013-12-23T14:45:28Z</time>
      </trkpt>
      <trkpt lat="42.65423" lon="1.93818">
        <ele>2130.9</ele>
        <time>2013-12-23T14:45:32Z</time>
      </trkpt>
      <trkpt lat="42.65436" lon="1.9382">
        <ele>2129.46</ele>
        <time>2013-12-23T14:45:36Z</time>
      </trkpt>
      <trkpt lat="42.65473" lon="1.9383">
        <ele>2121.29</ele>
        <time>2013-12-23T14:45:44Z</time>
      </trkpt>
      <trkpt lat="42.65496" lon="1.93841">
        <ele>2115.04</ele>
        <time>2013-12-23T14:45:49Z</time>
      </trkpt>
      <trkpt lat="42.65514" lon="1.93866">
        <ele>2108.31</ele>
        <time>2013-12-23T14:45:56Z</time>
      </trkpt>
      <trkpt lat="42.65512" lon="1.93862">
        <ele>2108.79</ele>
        <time>2013-12-23T14:46:03Z</time>
      </trkpt>
      <trkpt lat="42.65517" lon="1.93837">
        <ele>2108.31</ele>
        <time>2013-12-23T14:46:13Z</time>
      </trkpt>
      <trkpt lat="42.65525" lon="1.93827">
        <ele>2107.83</ele>
        <time>2013-12-23T14:46:17Z</time>
      </trkpt>
      <trkpt lat="42.65544" lon="1.93815">
        <ele>2105.42</ele>
        <time>2013-12-23T14:46:28Z</time>
      </trkpt>
      <trkpt lat="42.65549" lon="1.93814">
        <ele>2103.98</ele>
        <time>2013-12-23T14:46:31Z</time>
      </trkpt>
      <trkpt lat="42.65553" lon="1.93821">
        <ele>2101.58</ele>
        <time>2013-12-23T14:46:36Z</time>
      </trkpt>
      <trkpt lat="42.65555" lon="1.93848">
        <ele>2097.73</ele>
        <time>2013-12-23T14:46:42Z</time>
      </trkpt>
      <trkpt lat="42.6557" lon="1.93882">
        <ele>2089.08</ele>
        <time>2013-12-23T14:46:48Z</time>
      </trkpt>
      <trkpt lat="42.65601" lon="1.93901">
        <ele>2078.03</ele>
        <time>2013-12-23T14:46:53Z</time>
      </trkpt>
      <trkpt lat="42.6561" lon="1.93902">
        <ele>2075.14</ele>
        <time>2013-12-23T14:46:54Z</time>
      </trkpt>
      <trkpt lat="42.65629" lon="1.93908">
        <ele>2069.86</ele>
        <time>2013-12-23T14:46:56Z</time>
      </trkpt>
      <trkpt lat="42.6565" lon="1.9389">
        <ele>2061.68</ele>
        <time>2013-12-23T14:47:01Z</time>
      </trkpt>
      <trkpt lat="42.65649" lon="1.93887">
        <ele>2056.4</ele>
        <time>2013-12-23T14:47:11Z</time>
      </trkpt>
      <trkpt lat="42.65648" lon="1.93886">
        <ele>2057.36</ele>
        <time>2013-12-23T14:47:47Z</time>
      </trkpt>
      <trkpt lat="42.65647" lon="1.93886">
        <ele>2058.32</ele>
        <time>2013-12-23T14:47:54Z</time>
      </trkpt>
      <trkpt lat="42.65648" lon="1.93886">
        <ele>2059.28</ele>
        <time>2013-12-23T14:48:07Z</time>
      </trkpt>
      <trkpt lat="42.65648" lon="1.93887">
        <ele>2059.28</ele>
        <time>2013-12-23T14:48:11Z</time>
      </trkpt>
      <trkpt lat="42.65661" lon="1.939">
        <ele>2055.44</ele>
        <time>2013-12-23T14:48:17Z</time>
      </trkpt>
      <trkpt lat="42.65678" lon="1.93916">
        <ele>2051.11</ele>
        <time>2013-12-23T14:48:21Z</time>
      </trkpt>
      <trkpt lat="42.65694" lon="1.93924">
        <ele>2046.78</ele>
        <time>2013-12-23T14:48:25Z</time>
      </trkpt>
      <trkpt lat="42.65723" lon="1.93927">
        <ele>2040.54</ele>
        <time>2013-12-23T14:48:31Z</time>
      </trkpt>
      <trkpt lat="42.65748" lon="1.93937">
        <ele>2034.29</ele>
        <time>2013-12-23T14:48:35Z</time>
      </trkpt>
      <trkpt lat="42.65766" lon="1.93941">
        <ele>2030.44</ele>
        <time>2013-12-23T14:48:37Z</time>
      </trkpt>
      <trkpt lat="42.65838" lon="1.93988">
        <ele>2015.54</ele>
        <time>2013-12-23T14:48:45Z</time>
      </trkpt>
      <trkpt lat="42.65854" lon="1.94003">
        <ele>2010.25</ele>
        <time>2013-12-23T14:48:54Z</time>
      </trkpt>
      <trkpt lat="42.65854" lon="1.94002">
        <ele>2012.18</ele>
        <time>2013-12-23T14:49:11Z</time>
      </trkpt>
      <trkpt lat="42.65852" lon="1.94005">
        <ele>2011.7</ele>
        <time>2013-12-23T14:49:26Z</time>
      </trkpt>
      <trkpt lat="42.65849" lon="1.94007">
        <ele>2010.73</ele>
        <time>2013-12-23T14:49:41Z</time>
      </trkpt>
      <trkpt lat="42.6585" lon="1.94007">
        <ele>2012.66</ele>
        <time>2013-12-23T14:49:58Z</time>
      </trkpt>
      <trkpt lat="42.65861" lon="1.9402">
        <ele>2011.22</ele>
        <time>2013-12-23T14:50:06Z</time>
      </trkpt>
      <trkpt lat="42.65864" lon="1.94024">
        <ele>2011.7</ele>
        <time>2013-12-23T14:50:10Z</time>
      </trkpt>
      <trkpt lat="42.65867" lon="1.94032">
        <ele>2011.22</ele>
        <time>2013-12-23T14:50:14Z</time>
      </trkpt>
      <trkpt lat="42.6587" lon="1.94064">
        <ele>2006.41</ele>
        <time>2013-12-23T14:50:22Z</time>
      </trkpt>
      <trkpt lat="42.65873" lon="1.94068">
        <ele>2005.93</ele>
        <time>2013-12-23T14:50:23Z</time>
      </trkpt>
      <trkpt lat="42.65882" lon="1.94095">
        <ele>2000.64</ele>
        <time>2013-12-23T14:50:31Z</time>
      </trkpt>
      <trkpt lat="42.65887" lon="1.94124">
        <ele>1995.83</ele>
        <time>2013-12-23T14:50:36Z</time>
      </trkpt>
      <trkpt lat="42.65897" lon="1.94152">
        <ele>1992.95</ele>
        <time>2013-12-23T14:50:40Z</time>
      </trkpt>
      <trkpt lat="42.65909" lon="1.94171">
        <ele>1989.59</ele>
        <time>2013-12-23T14:50:46Z</time>
      </trkpt>
      <trkpt lat="42.65917" lon="1.94185">
        <ele>1987.66</ele>
        <time>2013-12-23T14:50:49Z</time>
      </trkpt>
      <trkpt lat="42.65944" lon="1.94189">
        <ele>1982.38</ele>
        <time>2013-12-23T14:50:55Z</time>
      </trkpt>
      <trkpt lat="42.65955" lon="1.94194">
        <ele>1980.93</ele>
        <time>2013-12-23T14:50:57Z</time>
      </trkpt>
      <trkpt lat="42.66001" lon="1.94209">
        <ele>1975.17</ele>
        <time>2013-12-23T14:51:03Z</time>
      </trkpt>
      <trkpt lat="42.6602" lon="1.94209">
        <ele>1969.88</ele>
        <time>2013-12-23T14:51:06Z</time>
      </trkpt>
      <trkpt lat="42.66043" lon="1.9422">
        <ele>1964.59</ele>
        <time>2013-12-23T14:51:09Z</time>
      </trkpt>
      <trkpt lat="42.66043" lon="1.94202">
        <ele>1959.3</ele>
        <time>2013-12-23T14:51:18Z</time>
      </trkpt>
      <trkpt lat="42.6604" lon="1.94193">
        <ele>1954.98</ele>
        <time>2013-12-23T14:51:36Z</time>
      </trkpt>
      <trkpt lat="42.66039" lon="1.94193">
        <ele>1952.57</ele>
        <time>2013-12-23T14:51:44Z</time>
      </trkpt>
      <trkpt lat="42.66044" lon="1.94183">
        <ele>1948.73</ele>
        <time>2013-12-23T14:51:49Z</time>
      </trkpt>
      <trkpt lat="42.66051" lon="1.9418">
        <ele>1946.81</ele>
        <time>2013-12-23T14:51:51Z</time>
      </trkpt>
      <trkpt lat="42.66076" lon="1.9415">
        <ele>1935.75</ele>
        <time>2013-12-23T14:51:58Z</time>
      </trkpt>
      <trkpt lat="42.66094" lon="1.9415">
        <ele>1929.02</ele>
        <time>2013-12-23T14:52:02Z</time>
      </trkpt>
      <trkpt lat="42.66118" lon="1.94149">
        <ele>1921.33</ele>
        <time>2013-12-23T14:52:07Z</time>
      </trkpt>
      <trkpt lat="42.66121" lon="1.94143">
        <ele>1919.89</ele>
        <time>2013-12-23T14:52:08Z</time>
      </trkpt>
      <trkpt lat="42.66128" lon="1.94127">
        <ele>1916.53</ele>
        <time>2013-12-23T14:52:10Z</time>
      </trkpt>
      <trkpt lat="42.66139" lon="1.94112">
        <ele>1912.68</ele>
        <time>2013-12-23T14:52:15Z</time>
      </trkpt>
      <trkpt lat="42.66137" lon="1.94118">
        <ele>1908.83</ele>
        <time>2013-12-23T14:52:28Z</time>
      </trkpt>
      <trkpt lat="42.6614" lon="1.94121">
        <ele>1907.39</ele>
        <time>2013-12-23T14:52:36Z</time>
      </trkpt>
      <trkpt lat="42.66154" lon="1.94113">
        <ele>1906.43</ele>
        <time>2013-12-23T14:52:41Z</time>
      </trkpt>
      <trkpt lat="42.66162" lon="1.94093">
        <ele>1904.99</ele>
        <time>2013-12-23T14:52:45Z</time>
      </trkpt>
      <trkpt lat="42.66174" lon="1.94097">
        <ele>1900.66</ele>
        <time>2013-12-23T14:52:52Z</time>
      </trkpt>
      <trkpt lat="42.66176" lon="1.94103">
        <ele>1899.7</ele>
        <time>2013-12-23T14:52:54Z</time>
      </trkpt>
      <trkpt lat="42.66187" lon="1.9413">
        <ele>1894.42</ele>
        <time>2013-12-23T14:52:58Z</time>
      </trkpt>
      <trkpt lat="42.66207" lon="1.94132">
        <ele>1888.17</ele>
        <time>2013-12-23T14:53:03Z</time>
      </trkpt>
      <trkpt lat="42.66227" lon="1.94116">
        <ele>1881.44</ele>
        <time>2013-12-23T14:53:08Z</time>
      </trkpt>
      <trkpt lat="42.6626" lon="1.94104">
        <ele>1870.86</ele>
        <time>2013-12-23T14:53:15Z</time>
      </trkpt>
      <trkpt lat="42.66263" lon="1.94102">
        <ele>1870.38</ele>
        <time>2013-12-23T14:53:16Z</time>
      </trkpt>
      <trkpt lat="42.66275" lon="1.94104">
        <ele>1867.02</ele>
        <time>2013-12-23T14:53:23Z</time>
      </trkpt>
      <trkpt lat="42.66275" lon="1.94107">
        <ele>1862.69</ele>
        <time>2013-12-23T14:53:44Z</time>
      </trkpt>
      <trkpt lat="42.66275" lon="1.94104">
        <ele>1861.25</ele>
        <time>2013-12-23T14:53:56Z</time>
      </trkpt>
      <trkpt lat="42.66275" lon="1.94103">
        <ele>1863.65</ele>
        <time>2013-12-23T14:54:08Z</time>
      </trkpt>
      <trkpt lat="42.66276" lon="1.94105">
        <ele>1866.06</ele>
        <time>2013-12-23T14:54:28Z</time>
      </trkpt>
      <trkpt lat="42.66274" lon="1.94104">
        <ele>1865.58</ele>
        <time>2013-12-23T14:54:54Z</time>
      </trkpt>
      <trkpt lat="42.66276" lon="1.94103">
        <ele>1864.61</ele>
        <time>2013-12-23T14:55:03Z</time>
      </trkpt>
      <trkpt lat="42.66282" lon="1.94098">
        <ele>1865.09</ele>
        <time>2013-12-23T14:55:06Z</time>
      </trkpt>
      <trkpt lat="42.66297" lon="1.94078">
        <ele>1861.25</ele>
        <time>2013-12-23T14:55:12Z</time>
      </trkpt>
      <trkpt lat="42.66312" lon="1.94072">
        <ele>1856.44</ele>
        <time>2013-12-23T14:55:17Z</time>
      </trkpt>
      <trkpt lat="42.66315" lon="1.94078">
        <ele>1852.6</ele>
        <time>2013-12-23T14:55:28Z</time>
      </trkpt>
      <trkpt lat="42.66334" lon="1.94074">
        <ele>1849.23</ele>
        <time>2013-12-23T14:55:37Z</time>
      </trkpt>
      <trkpt lat="42.66353" lon="1.94057">
        <ele>1841.54</ele>
        <time>2013-12-23T14:55:42Z</time>
      </trkpt>
      <trkpt lat="42.66373" lon="1.94042">
        <ele>1832.89</ele>
        <time>2013-12-23T14:55:48Z</time>
      </trkpt>
      <trkpt lat="42.66372" lon="1.9404">
        <ele>1832.41</ele>
        <time>2013-12-23T14:55:56Z</time>
      </trkpt>
      <trkpt lat="42.66401" lon="1.94031">
        <ele>1826.64</ele>
        <time>2013-12-23T14:56:03Z</time>
      </trkpt>
      <trkpt lat="42.66445" lon="1.94028">
        <ele>1819.43</ele>
        <time>2013-12-23T14:56:11Z</time>
      </trkpt>
      <trkpt lat="42.66475" lon="1.94013">
        <ele>1816.55</ele>
        <time>2013-12-23T14:56:22Z</time>
      </trkpt>
      <trkpt lat="42.66493" lon="1.94005">
        <ele>1815.59</ele>
        <time>2013-12-23T14:56:33Z</time>
      </trkpt>
      <trkpt lat="42.66517" lon="1.94004">
        <ele>1811.74</ele>
        <time>2013-12-23T14:56:39Z</time>
      </trkpt>
      <trkpt lat="42.66544" lon="1.93996">
        <ele>1807.9</ele>
        <time>2013-12-23T14:56:44Z</time>
      </trkpt>
      <trkpt lat="42.66556" lon="1.93996">
        <ele>1805.97</ele>
        <time>2013-12-23T14:56:52Z</time>
      </trkpt>
      <trkpt lat="42.66556" lon="1.93995">
        <ele>1807.9</ele>
        <time>2013-12-23T14:57:03Z</time>
      </trkpt>
      <trkpt lat="42.66556" lon="1.93991">
        <ele>1807.42</ele>
        <time>2013-12-23T14:57:11Z</time>
      </trkpt>
      <trkpt lat="42.66556" lon="1.93989">
        <ele>1806.94</ele>
        <time>2013-12-23T14:57:41Z</time>
      </trkpt>
      <trkpt lat="42.66557" lon="1.93987">
        <ele>1806.45</ele>
        <time>2013-12-23T14:57:48Z</time>
      </trkpt>
      <trkpt lat="42.66574" lon="1.93989">
        <ele>1799.73</ele>
        <time>2013-12-23T14:57:59Z</time>
      </trkpt>
      <trkpt lat="42.66574" lon="1.9399">
        <ele>1798.28</ele>
        <time>2013-12-23T14:58:10Z</time>
      </trkpt>
      <trkpt lat="42.66584" lon="1.9398">
        <ele>1794.92</ele>
        <time>2013-12-23T14:58:15Z</time>
      </trkpt>
      <trkpt lat="42.66598" lon="1.93977">
        <ele>1787.23</ele>
        <time>2013-12-23T14:58:23Z</time>
      </trkpt>
      <trkpt lat="42.66599" lon="1.93977">
        <ele>1790.11</ele>
        <time>2013-12-23T14:58:49Z</time>
      </trkpt>
      <trkpt lat="42.66599" lon="1.93977">
        <ele>1790.11</ele>
        <time>2013-12-23T14:58:58Z</time>
      </trkpt>
      <trkpt lat="42.66608" lon="1.93973">
        <ele>1788.19</ele>
        <time>2013-12-23T14:59:02Z</time>
      </trkpt>
      <trkpt lat="42.66627" lon="1.93969">
        <ele>1781.94</ele>
        <time>2013-12-23T14:59:08Z</time>
      </trkpt>
      <trkpt lat="42.66633" lon="1.93984">
        <ele>1779.06</ele>
        <time>2013-12-23T14:59:14Z</time>
      </trkpt>
      <trkpt lat="42.66632" lon="1.94017">
        <ele>1775.69</ele>
        <time>2013-12-23T14:59:19Z</time>
      </trkpt>
      <trkpt lat="42.66637" lon="1.9404">
        <ele>1772.33</ele>
        <time>2013-12-23T14:59:24Z</time>
      </trkpt>
      <trkpt lat="42.6664" lon="1.94048">
        <ele>1770.41</ele>
        <time>2013-12-23T14:59:26Z</time>
      </trkpt>
      <trkpt lat="42.66644" lon="1.94048">
        <ele>1767.52</ele>
        <time>2013-12-23T14:59:30Z</time>
      </trkpt>
      <trkpt lat="42.66653" lon="1.94042">
        <ele>1763.2</ele>
        <time>2013-12-23T14:59:36Z</time>
      </trkpt>
      <trkpt lat="42.6667" lon="1.94036">
        <ele>1758.39</ele>
        <time>2013-12-23T14:59:40Z</time>
      </trkpt>
      <trkpt lat="42.66698" lon="1.9405">
        <ele>1756.47</ele>
        <time>2013-12-23T14:59:45Z</time>
      </trkpt>
      <trkpt lat="42.66706" lon="1.94031">
        <ele>1755.99</ele>
        <time>2013-12-23T14:59:48Z</time>
      </trkpt>
      <trkpt lat="42.66708" lon="1.94029">
        <ele>1755.99</ele>
        <time>2013-12-23T14:59:50Z</time>
      </trkpt>
      <trkpt lat="42.66714" lon="1.94034">
        <ele>1755.99</ele>
        <time>2013-12-23T14:59:57Z</time>
      </trkpt>
      <trkpt lat="42.66719" lon="1.94032">
        <ele>1754.54</ele>
        <time>2013-12-23T15:00:02Z</time>
      </trkpt>
      <trkpt lat="42.66726" lon="1.94034">
        <ele>1752.62</ele>
        <time>2013-12-23T15:00:06Z</time>
      </trkpt>
      <trkpt lat="42.66735" lon="1.94027">
        <ele>1748.29</ele>
        <time>2013-12-23T15:00:11Z</time>
      </trkpt>
      <trkpt lat="42.6674" lon="1.94025">
        <ele>1743.49</ele>
        <time>2013-12-23T15:00:16Z</time>
      </trkpt>
      <trkpt lat="42.66743" lon="1.94033">
        <ele>1739.16</ele>
        <time>2013-12-23T15:00:24Z</time>
      </trkpt>
      <trkpt lat="42.66749" lon="1.94038">
        <ele>1737.24</ele>
        <time>2013-12-23T15:00:28Z</time>
      </trkpt>
      <trkpt lat="42.66766" lon="1.94044">
        <ele>1734.36</ele>
        <time>2013-12-23T15:00:33Z</time>
      </trkpt>
      <trkpt lat="42.66769" lon="1.94048">
        <ele>1733.39</ele>
        <time>2013-12-23T15:00:43Z</time>
      </trkpt>
      <trkpt lat="42.66769" lon="1.94046">
        <ele>1732.43</ele>
        <time>2013-12-23T15:00:49Z</time>
      </trkpt>
      <trkpt lat="42.66779" lon="1.94047">
        <ele>1731.95</ele>
        <time>2013-12-23T15:00:53Z</time>
      </trkpt>
      <trkpt lat="42.66799" lon="1.94053">
        <ele>1731.47</ele>
        <time>2013-12-23T15:00:59Z</time>
      </trkpt>
      <trkpt lat="42.66818" lon="1.94049">
        <ele>1728.11</ele>
        <time>2013-12-23T15:01:04Z</time>
      </trkpt>
      <trkpt lat="42.66821" lon="1.94056">
        <ele>1718.49</ele>
        <time>2013-12-23T15:01:11Z</time>
      </trkpt>
      <trkpt lat="42.6681" lon="1.94061">
        <ele>1701.67</ele>
        <time>2013-12-23T15:01:26Z</time>
      </trkpt>
      <trkpt lat="42.66808" lon="1.94062">
        <ele>1697.83</ele>
        <time>2013-12-23T15:01:36Z</time>
      </trkpt>
      <trkpt lat="42.66813" lon="1.94064">
        <ele>1696.86</ele>
        <time>2013-12-23T15:01:38Z</time>
      </trkpt>
      <trkpt lat="42.66833" lon="1.94076">
        <ele>1691.58</ele>
        <time>2013-12-23T15:01:43Z</time>
      </trkpt>
      <trkpt lat="42.66851" lon="1.94077">
        <ele>1680.52</ele>
        <time>2013-12-23T15:01:48Z</time>
      </trkpt>
      <trkpt lat="42.66869" lon="1.94092">
        <ele>1673.31</ele>
        <time>2013-12-23T15:01:53Z</time>
      </trkpt>
      <trkpt lat="42.66884" lon="1.9411">
        <ele>1667.54</ele>
        <time>2013-12-23T15:01:59Z</time>
      </trkpt>
      <trkpt lat="42.66905" lon="1.941">
        <ele>1661.3</ele>
        <time>2013-12-23T15:02:06Z</time>
      </trkpt>
      <trkpt lat="42.66926" lon="1.94108">
        <ele>1656.97</ele>
        <time>2013-12-23T15:02:11Z</time>
      </trkpt>
      <trkpt lat="42.66931" lon="1.94108">
        <ele>1656.01</ele>
        <time>2013-12-23T15:02:12Z</time>
      </trkpt>
      <trkpt lat="42.66946" lon="1.94107">
        <ele>1652.64</ele>
        <time>2013-12-23T15:02:15Z</time>
      </trkpt>
      <trkpt lat="42.66973" lon="1.9412">
        <ele>1647.84</ele>
        <time>2013-12-23T15:02:21Z</time>
      </trkpt>
      <trkpt lat="42.66985" lon="1.94121">
        <ele>1645.43</ele>
        <time>2013-12-23T15:02:23Z</time>
      </trkpt>
      <trkpt lat="42.6702" lon="1.94104">
        <ele>1635.34</ele>
        <time>2013-12-23T15:02:29Z</time>
      </trkpt>
      <trkpt lat="42.67038" lon="1.94094">
        <ele>1628.13</ele>
        <time>2013-12-23T15:02:35Z</time>
      </trkpt>
      <trkpt lat="42.6704" lon="1.94095">
        <ele>1622.36</ele>
        <time>2013-12-23T15:02:59Z</time>
      </trkpt>
      <trkpt lat="42.6704" lon="1.94095">
        <ele>1619.48</ele>
        <time>2013-12-23T15:03:17Z</time>
      </trkpt>
      <trkpt lat="42.67041" lon="1.94095">
        <ele>1619.48</ele>
        <time>2013-12-23T15:03:38Z</time>
      </trkpt>
      <trkpt lat="42.67044" lon="1.94089">
        <ele>1618.52</ele>
        <time>2013-12-23T15:03:48Z</time>
      </trkpt>
      <trkpt lat="42.67048" lon="1.94073">
        <ele>1615.15</ele>
        <time>2013-12-23T15:03:54Z</time>
      </trkpt>
      <trkpt lat="42.67055" lon="1.94066">
        <ele>1613.23</ele>
        <time>2013-12-23T15:03:56Z</time>
      </trkpt>
      <trkpt lat="42.67081" lon="1.94005">
        <ele>1603.62</ele>
        <time>2013-12-23T15:04:03Z</time>
      </trkpt>
      <trkpt lat="42.67087" lon="1.93996">
        <ele>1601.21</ele>
        <time>2013-12-23T15:04:06Z</time>
      </trkpt>
      <trkpt lat="42.67092" lon="1.93994">
        <ele>1601.21</ele>
        <time>2013-12-23T15:04:11Z</time>
      </trkpt>
      <trkpt lat="42.67095" lon="1.93992">
        <ele>1602.17</ele>
        <time>2013-12-23T15:04:17Z</time>
      </trkpt>
      <trkpt lat="42.67098" lon="1.93993">
        <ele>1602.66</ele>
        <time>2013-12-23T15:04:22Z</time>
      </trkpt>
      <trkpt lat="42.671" lon="1.93995">
        <ele>1602.66</ele>
        <time>2013-12-23T15:04:24Z</time>
      </trkpt>
      <trkpt lat="42.67101" lon="1.93995">
        <ele>1602.17</ele>
        <time>2013-12-23T15:04:31Z</time>
      </trkpt>
      <trkpt lat="42.67102" lon="1.93992">
        <ele>1604.1</ele>
        <time>2013-12-23T15:04:39Z</time>
      </trkpt>
      <trkpt lat="42.67103" lon="1.93991">
        <ele>1606.98</ele>
        <time>2013-12-23T15:04:50Z</time>
      </trkpt>
      <trkpt lat="42.67107" lon="1.93987">
        <ele>1608.9</ele>
        <time>2013-12-23T15:04:59Z</time>
      </trkpt>
      <trkpt lat="42.67108" lon="1.93986">
        <ele>1609.38</ele>
        <time>2013-12-23T15:05:00Z</time>
      </trkpt>
      <trkpt lat="42.67113" lon="1.93983">
        <ele>1609.86</ele>
        <time>2013-12-23T15:05:10Z</time>
      </trkpt>
      <trkpt lat="42.67113" lon="1.93982">
        <ele>1609.86</ele>
        <time>2013-12-23T15:05:11Z</time>
      </trkpt>
      <trkpt lat="42.67116" lon="1.93979">
        <ele>1611.79</ele>
        <time>2013-12-23T15:05:18Z</time>
      </trkpt>
      <trkpt lat="42.67125" lon="1.93961">
        <ele>1607.94</ele>
        <time>2013-12-23T15:05:27Z</time>
      </trkpt>
      <trkpt lat="42.67125" lon="1.93961">
        <ele>1606.98</ele>
        <time>2013-12-23T15:05:28Z</time>
      </trkpt>
      <trkpt lat="42.67128" lon="1.93964">
        <ele>1603.14</ele>
        <time>2013-12-23T15:05:38Z</time>
      </trkpt>
      <trkpt lat="42.67132" lon="1.93963">
        <ele>1605.06</ele>
        <time>2013-12-23T15:05:49Z</time>
      </trkpt>
      <trkpt lat="42.67135" lon="1.93957">
        <ele>1601.69</ele>
        <time>2013-12-23T15:05:59Z</time>
      </trkpt>
      <trkpt lat="42.67135" lon="1.93952">
        <ele>1599.29</ele>
        <time>2013-12-23T15:06:12Z</time>
      </trkpt>
      <trkpt lat="42.67135" lon="1.93947">
        <ele>1599.29</ele>
        <time>2013-12-23T15:06:18Z</time>
      </trkpt>
      <trkpt lat="42.67135" lon="1.93934">
        <ele>1596.89</ele>
        <time>2013-12-23T15:06:25Z</time>
      </trkpt>
      <trkpt lat="42.67136" lon="1.93931">
        <ele>1595.45</ele>
        <time>2013-12-23T15:06:28Z</time>
      </trkpt>
      <trkpt lat="42.67132" lon="1.93927">
        <ele>1593.04</ele>
        <time>2013-12-23T15:06:33Z</time>
      </trkpt>
      <trkpt lat="42.67146" lon="1.93907">
        <ele>1592.08</ele>
        <time>2013-12-23T15:06:40Z</time>
      </trkpt>
      <trkpt lat="42.67149" lon="1.93904">
        <ele>1591.6</ele>
        <time>2013-12-23T15:06:41Z</time>
      </trkpt>
      <trkpt lat="42.67156" lon="1.939">
        <ele>1589.68</ele>
        <time>2013-12-23T15:06:45Z</time>
      </trkpt>
      <trkpt lat="42.67169" lon="1.93902">
        <ele>1587.27</ele>
        <time>2013-12-23T15:06:50Z</time>
      </trkpt>
      <trkpt lat="42.67194" lon="1.93897">
        <ele>1583.91</ele>
        <time>2013-12-23T15:06:57Z</time>
      </trkpt>
      <trkpt lat="42.6721" lon="1.9391">
        <ele>1583.91</ele>
        <time>2013-12-23T15:07:05Z</time>
      </trkpt>
      <trkpt lat="42.67216" lon="1.93913">
        <ele>1577.66</ele>
        <time>2013-12-23T15:07:17Z</time>
      </trkpt>
      <trkpt lat="42.67219" lon="1.93916">
        <ele>1575.74</ele>
        <time>2013-12-23T15:07:21Z</time>
      </trkpt>
      <trkpt lat="42.6722" lon="1.93916">
        <ele>1574.78</ele>
        <time>2013-12-23T15:07:25Z</time>
      </trkpt>
      <trkpt lat="42.67225" lon="1.93913">
        <ele>1572.85</ele>
        <time>2013-12-23T15:07:28Z</time>
      </trkpt>
      <trkpt lat="42.67235" lon="1.9391">
        <ele>1570.45</ele>
        <time>2013-12-23T15:07:34Z</time>
      </trkpt>
      <trkpt lat="42.6724" lon="1.9391">
        <ele>1570.45</ele>
        <time>2013-12-23T15:07:37Z</time>
      </trkpt>
      <trkpt lat="42.67257" lon="1.93905">
        <ele>1572.37</ele>
        <time>2013-12-23T15:07:46Z</time>
      </trkpt>
      <trkpt lat="42.67267" lon="1.93909">
        <ele>1571.89</ele>
        <time>2013-12-23T15:08:03Z</time>
      </trkpt>
      <trkpt lat="42.67273" lon="1.93909">
        <ele>1571.89</ele>
        <time>2013-12-23T15:08:09Z</time>
      </trkpt>
      <trkpt lat="42.67286" lon="1.93907">
        <ele>1569.97</ele>
        <time>2013-12-23T15:08:15Z</time>
      </trkpt>
      <trkpt lat="42.67302" lon="1.93897">
        <ele>1558.43</ele>
        <time>2013-12-23T15:08:25Z</time>
      </trkpt>
      <trkpt lat="42.67305" lon="1.93897">
        <ele>1557.47</ele>
        <time>2013-12-23T15:08:41Z</time>
      </trkpt>
      <trkpt lat="42.67302" lon="1.93892">
        <ele>1551.22</ele>
        <time>2013-12-23T15:09:04Z</time>
      </trkpt>
      <trkpt lat="42.67303" lon="1.93892">
        <ele>1548.34</ele>
        <time>2013-12-23T15:09:17Z</time>
      </trkpt>
      <trkpt lat="42.67302" lon="1.93892">
        <ele>1546.9</ele>
        <time>2013-12-23T15:09:30Z</time>
      </trkpt>
      <trkpt lat="42.67302" lon="1.93891">
        <ele>1545.94</ele>
        <time>2013-12-23T15:09:42Z</time>
      </trkpt>
      <trkpt lat="42.67299" lon="1.93889">
        <ele>1546.42</ele>
        <time>2013-12-23T15:09:54Z</time>
      </trkpt>
      <trkpt lat="42.67301" lon="1.93886">
        <ele>1549.3</ele>
        <time>2013-12-23T15:10:10Z</time>
      </trkpt>
      <trkpt lat="42.67303" lon="1.93881">
        <ele>1547.86</ele>
        <time>2013-12-23T15:10:33Z</time>
      </trkpt>
      <trkpt lat="42.67301" lon="1.93885">
        <ele>1547.38</ele>
        <time>2013-12-23T15:10:52Z</time>
      </trkpt>
      <trkpt lat="42.67302" lon="1.93883">
        <ele>1548.34</ele>
        <time>2013-12-23T15:11:07Z</time>
      </trkpt>
      <trkpt lat="42.67307" lon="1.93885">
        <ele>1546.42</ele>
        <time>2013-12-23T15:11:24Z</time>
      </trkpt>
      <trkpt lat="42.67304" lon="1.93886">
        <ele>1548.34</ele>
        <time>2013-12-23T15:11:36Z</time>
      </trkpt>
      <trkpt lat="42.67304" lon="1.93886">
        <ele>1546.9</ele>
        <time>2013-12-23T15:11:48Z</time>
      </trkpt>
      <trkpt lat="42.67303" lon="1.93888">
        <ele>1548.82</ele>
        <time>2013-12-23T15:11:57Z</time>
      </trkpt>
      <trkpt lat="42.67303" lon="1.93889">
        <ele>1550.74</ele>
        <time>2013-12-23T15:12:09Z</time>
      </trkpt>
      <trkpt lat="42.67302" lon="1.93887">
        <ele>1550.74</ele>
        <time>2013-12-23T15:12:14Z</time>
      </trkpt>
      <trkpt lat="42.67302" lon="1.9389">
        <ele>1545.94</ele>
        <time>2013-12-23T15:12:28Z</time>
      </trkpt>
      <trkpt lat="42.67302" lon="1.93894">
        <ele>1546.9</ele>
        <time>2013-12-23T15:12:43Z</time>
      </trkpt>
      <trkpt lat="42.67302" lon="1.9389">
        <ele>1544.98</ele>
        <time>2013-12-23T15:13:02Z</time>
      </trkpt>
      <trkpt lat="42.67303" lon="1.93889">
        <ele>1547.86</ele>
        <time>2013-12-23T15:13:19Z</time>
      </trkpt>
      <trkpt lat="42.67302" lon="1.93889">
        <ele>1552.67</ele>
        <time>2013-12-23T15:13:35Z</time>
      </trkpt>
      <trkpt lat="42.67302" lon="1.93887">
        <ele>1552.67</ele>
        <time>2013-12-23T15:13:50Z</time>
      </trkpt>
      <trkpt lat="42.67301" lon="1.93889">
        <ele>1552.67</ele>
        <time>2013-12-23T15:14:01Z</time>
      </trkpt>
      <trkpt lat="42.67304" lon="1.93891">
        <ele>1551.71</ele>
        <time>2013-12-23T15:14:12Z</time>
      </trkpt>
      <trkpt lat="42.67304" lon="1.93889">
        <ele>1552.67</ele>
        <time>2013-12-23T15:14:19Z</time>
      </trkpt>
      <trkpt lat="42.67312" lon="1.93883">
        <ele>1554.11</ele>
        <time>2013-12-23T15:14:26Z</time>
      </trkpt>
      <trkpt lat="42.67318" lon="1.93881">
        <ele>1552.19</ele>
        <time>2013-12-23T15:14:36Z</time>
      </trkpt>
      <trkpt lat="42.67322" lon="1.93879">
        <ele>1549.78</ele>
        <time>2013-12-23T15:14:47Z</time>
      </trkpt>
      <trkpt lat="42.67328" lon="1.9388">
        <ele>1546.9</ele>
        <time>2013-12-23T15:14:52Z</time>
      </trkpt>
      <trkpt lat="42.67336" lon="1.93878">
        <ele>1545.46</ele>
        <time>2013-12-23T15:15:01Z</time>
      </trkpt>
      <trkpt lat="42.67338" lon="1.93877">
        <ele>1545.94</ele>
        <time>2013-12-23T15:15:03Z</time>
      </trkpt>
      <trkpt lat="42.67339" lon="1.93879">
        <ele>1544.98</ele>
        <time>2013-12-23T15:15:07Z</time>
      </trkpt>
      <trkpt lat="42.67343" lon="1.93882">
        <ele>1543.05</ele>
        <time>2013-12-23T15:15:10Z</time>
      </trkpt>
      <trkpt lat="42.67346" lon="1.9388">
        <ele>1542.09</ele>
        <time>2013-12-23T15:15:14Z</time>
      </trkpt>
      <trkpt lat="42.67351" lon="1.93875">
        <ele>1546.9</ele>
        <time>2013-12-23T15:15:24Z</time>
      </trkpt>
      <trkpt lat="42.67355" lon="1.93877">
        <ele>1545.94</ele>
        <time>2013-12-23T15:15:32Z</time>
      </trkpt>
      <trkpt lat="42.67357" lon="1.93878">
        <ele>1545.94</ele>
        <time>2013-12-23T15:15:34Z</time>
      </trkpt>
      <trkpt lat="42.67359" lon="1.93881">
        <ele>1544.98</ele>
        <time>2013-12-23T15:15:37Z</time>
      </trkpt>
      <trkpt lat="42.67366" lon="1.93876">
        <ele>1539.69</ele>
        <time>2013-12-23T15:15:48Z</time>
      </trkpt>
      <trkpt lat="42.67366" lon="1.93875">
        <ele>1539.21</ele>
        <time>2013-12-23T15:15:49Z</time>
      </trkpt>
      <trkpt lat="42.67368" lon="1.93876">
        <ele>1538.73</ele>
        <time>2013-12-23T15:15:54Z</time>
      </trkpt>
      <trkpt lat="42.67377" lon="1.93876">
        <ele>1537.77</ele>
        <time>2013-12-23T15:16:03Z</time>
      </trkpt>
      <trkpt lat="42.67384" lon="1.93874">
        <ele>1536.32</ele>
        <time>2013-12-23T15:16:14Z</time>
      </trkpt>
      <trkpt lat="42.67393" lon="1.93874">
        <ele>1531.04</ele>
        <time>2013-12-23T15:16:24Z</time>
      </trkpt>
      <trkpt lat="42.67394" lon="1.93875">
        <ele>1531.04</ele>
        <time>2013-12-23T15:16:25Z</time>
      </trkpt>
      <trkpt lat="42.67399" lon="1.93872">
        <ele>1524.79</ele>
        <time>2013-12-23T15:16:33Z</time>
      </trkpt>
      <trkpt lat="42.67402" lon="1.93871">
        <ele>1518.54</ele>
        <time>2013-12-23T15:16:41Z</time>
      </trkpt>
      <trkpt lat="42.67406" lon="1.93864">
        <ele>1513.25</ele>
        <time>2013-12-23T15:16:50Z</time>
      </trkpt>
      <trkpt lat="42.67414" lon="1.93855">
        <ele>1508.93</ele>
        <time>2013-12-23T15:17:00Z</time>
      </trkpt>
      <trkpt lat="42.67418" lon="1.93862">
        <ele>1506.52</ele>
        <time>2013-12-23T15:17:08Z</time>
      </trkpt>
      <trkpt lat="42.6742" lon="1.93861">
        <ele>1505.56</ele>
        <time>2013-12-23T15:17:10Z</time>
      </trkpt>
      <trkpt lat="42.67425" lon="1.93861">
        <ele>1505.08</ele>
        <time>2013-12-23T15:17:15Z</time>
      </trkpt>
      <trkpt lat="42.67432" lon="1.93868">
        <ele>1506.04</ele>
        <time>2013-12-23T15:17:29Z</time>
      </trkpt>
      <trkpt lat="42.67432" lon="1.93868">
        <ele>1505.56</ele>
        <time>2013-12-23T15:17:30Z</time>
      </trkpt>
      <trkpt lat="42.67435" lon="1.93869">
        <ele>1504.6</ele>
        <time>2013-12-23T15:17:34Z</time>
      </trkpt>
      <trkpt lat="42.67437" lon="1.93871">
        <ele>1503.64</ele>
        <time>2013-12-23T15:17:37Z</time>
      </trkpt>
      <trkpt lat="42.67442" lon="1.9387">
        <ele>1500.76</ele>
        <time>2013-12-23T15:17:52Z</time>
      </trkpt>
      <trkpt lat="42.67443" lon="1.9387">
        <ele>1499.79</ele>
        <time>2013-12-23T15:17:54Z</time>
      </trkpt>
      <trkpt lat="42.67448" lon="1.93873">
        <ele>1495.47</ele>
        <time>2013-12-23T15:18:00Z</time>
      </trkpt>
      <trkpt lat="42.67452" lon="1.93867">
        <ele>1490.66</ele>
        <time>2013-12-23T15:18:06Z</time>
      </trkpt>
      <trkpt lat="42.67455" lon="1.93867">
        <ele>1489.7</ele>
        <time>2013-12-23T15:18:10Z</time>
      </trkpt>
      <trkpt lat="42.67466" lon="1.9386">
        <ele>1490.66</ele>
        <time>2013-12-23T15:18:18Z</time>
      </trkpt>
      <trkpt lat="42.67473" lon="1.9386">
        <ele>1488.26</ele>
        <time>2013-12-23T15:18:24Z</time>
      </trkpt>
      <trkpt lat="42.67495" lon="1.93864">
        <ele>1485.85</ele>
        <time>2013-12-23T15:18:34Z</time>
      </trkpt>
      <trkpt lat="42.67507" lon="1.93853">
        <ele>1482.01</ele>
        <time>2013-12-23T15:18:46Z</time>
      </trkpt>
      <trkpt lat="42.67514" lon="1.93849">
        <ele>1476.72</ele>
        <time>2013-12-23T15:18:57Z</time>
      </trkpt>
      <trkpt lat="42.67516" lon="1.93846">
        <ele>1478.65</ele>
        <time>2013-12-23T15:19:10Z</time>
      </trkpt>
      <trkpt lat="42.67526" lon="1.93842">
        <ele>1473.84</ele>
        <time>2013-12-23T15:19:17Z</time>
      </trkpt>
      <trkpt lat="42.67537" lon="1.93838">
        <ele>1472.88</ele>
        <time>2013-12-23T15:19:26Z</time>
      </trkpt>
      <trkpt lat="42.67548" lon="1.93834">
        <ele>1467.59</ele>
        <time>2013-12-23T15:19:36Z</time>
      </trkpt>
      <trkpt lat="42.67551" lon="1.93834">
        <ele>1465.67</ele>
        <time>2013-12-23T15:19:40Z</time>
      </trkpt>
      <trkpt lat="42.67558" lon="1.93831">
        <ele>1462.3</ele>
        <time>2013-12-23T15:19:50Z</time>
      </trkpt>
      <trkpt lat="42.67559" lon="1.93832">
        <ele>1460.86</ele>
        <time>2013-12-23T15:19:54Z</time>
      </trkpt>
      <trkpt lat="42.67558" lon="1.93832">
        <ele>1452.69</ele>
        <time>2013-12-23T15:20:07Z</time>
      </trkpt>
      <trkpt lat="42.67556" lon="1.93832">
        <ele>1449.81</ele>
        <time>2013-12-23T15:20:30Z</time>
      </trkpt>
      <trkpt lat="42.67557" lon="1.9384">
        <ele>1446.92</ele>
        <time>2013-12-23T15:20:50Z</time>
      </trkpt>
      <trkpt lat="42.67558" lon="1.93839">
        <ele>1447.4</ele>
        <time>2013-12-23T15:20:58Z</time>
      </trkpt>
      <trkpt lat="42.67562" lon="1.93844">
        <ele>1447.4</ele>
        <time>2013-12-23T15:21:09Z</time>
      </trkpt>
      <trkpt lat="42.67563" lon="1.93845">
        <ele>1442.6</ele>
        <time>2013-12-23T15:21:22Z</time>
      </trkpt>
      <trkpt lat="42.67562" lon="1.93847">
        <ele>1437.79</ele>
        <time>2013-12-23T15:21:41Z</time>
      </trkpt>
      <trkpt lat="42.67562" lon="1.93849">
        <ele>1436.83</ele>
        <time>2013-12-23T15:21:47Z</time>
      </trkpt>
      <trkpt lat="42.67567" lon="1.93848">
        <ele>1434.42</ele>
        <time>2013-12-23T15:21:55Z</time>
      </trkpt>
      <trkpt lat="42.6757" lon="1.93846">
        <ele>1432.5</ele>
        <time>2013-12-23T15:21:57Z</time>
      </trkpt>
      <trkpt lat="42.67574" lon="1.93848">
        <ele>1430.1</ele>
        <time>2013-12-23T15:22:03Z</time>
      </trkpt>
      <trkpt lat="42.67572" lon="1.93854">
        <ele>1429.62</ele>
        <time>2013-12-23T15:22:07Z</time>
      </trkpt>
      <trkpt lat="42.67577" lon="1.93856">
        <ele>1428.66</ele>
        <time>2013-12-23T15:22:13Z</time>
      </trkpt>
      <trkpt lat="42.67587" lon="1.93855">
        <ele>1428.18</ele>
        <time>2013-12-23T15:22:23Z</time>
      </trkpt>
      <trkpt lat="42.67589" lon="1.93857">
        <ele>1424.81</ele>
        <time>2013-12-23T15:22:37Z</time>
      </trkpt>
      <trkpt lat="42.67589" lon="1.93858">
        <ele>1427.21</ele>
        <time>2013-12-23T15:22:50Z</time>
      </trkpt>
      <trkpt lat="42.67588" lon="1.93858">
        <ele>1426.25</ele>
        <time>2013-12-23T15:22:57Z</time>
      </trkpt>
      <trkpt lat="42.67587" lon="1.93861">
        <ele>1428.18</ele>
        <time>2013-12-23T15:23:01Z</time>
      </trkpt>
      <trkpt lat="42.6759" lon="1.93862">
        <ele>1427.7</ele>
        <time>2013-12-23T15:23:04Z</time>
      </trkpt>
      <trkpt lat="42.676" lon="1.93858">
        <ele>1423.37</ele>
        <time>2013-12-23T15:23:18Z</time>
      </trkpt>
      <trkpt lat="42.676" lon="1.93858">
        <ele>1423.37</ele>
        <time>2013-12-23T15:23:19Z</time>
      </trkpt>
      <trkpt lat="42.67601" lon="1.93863">
        <ele>1422.89</ele>
        <time>2013-12-23T15:23:24Z</time>
      </trkpt>
      <trkpt lat="42.67604" lon="1.93866">
        <ele>1419.52</ele>
        <time>2013-12-23T15:23:34Z</time>
      </trkpt>
      <trkpt lat="42.67603" lon="1.93871">
        <ele>1419.04</ele>
        <time>2013-12-23T15:23:49Z</time>
      </trkpt>
      <trkpt lat="42.67603" lon="1.93867">
        <ele>1418.56</ele>
        <time>2013-12-23T15:24:04Z</time>
      </trkpt>
      <trkpt lat="42.67604" lon="1.93868">
        <ele>1414.72</ele>
        <time>2013-12-23T15:24:25Z</time>
      </trkpt>
      <trkpt lat="42.67602" lon="1.93869">
        <ele>1415.2</ele>
        <time>2013-12-23T15:24:41Z</time>
      </trkpt>
      <trkpt lat="42.67605" lon="1.93871">
        <ele>1415.2</ele>
        <time>2013-12-23T15:24:58Z</time>
      </trkpt>
      <trkpt lat="42.67604" lon="1.9387">
        <ele>1415.68</ele>
        <time>2013-12-23T15:25:14Z</time>
      </trkpt>
      <trkpt lat="42.67606" lon="1.93865">
        <ele>1412.79</ele>
        <time>2013-12-23T15:25:23Z</time>
      </trkpt>
      <trkpt lat="42.67609" lon="1.9386">
        <ele>1412.79</ele>
        <time>2013-12-23T15:25:33Z</time>
      </trkpt>
      <trkpt lat="42.67609" lon="1.9386">
        <ele>1412.79</ele>
        <time>2013-12-23T15:25:34Z</time>
      </trkpt>
      <trkpt lat="42.67611" lon="1.93859">
        <ele>1411.35</ele>
        <time>2013-12-23T15:25:44Z</time>
      </trkpt>
      <trkpt lat="42.67614" lon="1.93861">
        <ele>1410.87</ele>
        <time>2013-12-23T15:25:57Z</time>
      </trkpt>
      <trkpt lat="42.67615" lon="1.93861">
        <ele>1410.39</ele>
        <time>2013-12-23T15:25:58Z</time>
      </trkpt>
      <trkpt lat="42.67617" lon="1.93864">
        <ele>1405.58</ele>
        <time>2013-12-23T15:26:09Z</time>
      </trkpt>
      <trkpt lat="42.67618" lon="1.93864">
        <ele>1400.3</ele>
        <time>2013-12-23T15:26:21Z</time>
      </trkpt>
      <trkpt lat="42.67625" lon="1.93861">
        <ele>1398.86</ele>
        <time>2013-12-23T15:26:45Z</time>
      </trkpt>
      <trkpt lat="42.67626" lon="1.93862">
        <ele>1397.41</ele>
        <time>2013-12-23T15:26:56Z</time>
      </trkpt>
      <trkpt lat="42.67626" lon="1.9386">
        <ele>1396.93</ele>
        <time>2013-12-23T15:27:05Z</time>
      </trkpt>
      <trkpt lat="42.67626" lon="1.93862">
        <ele>1395.49</ele>
        <time>2013-12-23T15:27:10Z</time>
      </trkpt>
      <trkpt lat="42.67628" lon="1.9386">
        <ele>1395.49</ele>
        <time>2013-12-23T15:27:13Z</time>
      </trkpt>
      <trkpt lat="42.67629" lon="1.93856">
        <ele>1395.01</ele>
        <time>2013-12-23T15:27:20Z</time>
      </trkpt>
      <trkpt lat="42.67633" lon="1.93864">
        <ele>1393.57</ele>
        <time>2013-12-23T15:27:26Z</time>
      </trkpt>
      <trkpt lat="42.67634" lon="1.93868">
        <ele>1392.61</ele>
        <time>2013-12-23T15:27:34Z</time>
      </trkpt>
      <trkpt lat="42.67637" lon="1.93865">
        <ele>1392.13</ele>
        <time>2013-12-23T15:27:38Z</time>
      </trkpt>
      <trkpt lat="42.67639" lon="1.93861">
        <ele>1390.2</ele>
        <time>2013-12-23T15:27:47Z</time>
      </trkpt>
      <trkpt lat="42.67643" lon="1.93867">
        <ele>1388.76</ele>
        <time>2013-12-23T15:27:57Z</time>
      </trkpt>
      <trkpt lat="42.67646" lon="1.93871">
        <ele>1386.36</ele>
        <time>2013-12-23T15:28:04Z</time>
      </trkpt>
      <trkpt lat="42.67651" lon="1.93871">
        <ele>1382.03</ele>
        <time>2013-12-23T15:28:11Z</time>
      </trkpt>
      <trkpt lat="42.67651" lon="1.93871">
        <ele>1381.07</ele>
        <time>2013-12-23T15:28:13Z</time>
      </trkpt>
      <trkpt lat="42.67654" lon="1.9387">
        <ele>1379.63</ele>
        <time>2013-12-23T15:28:18Z</time>
      </trkpt>
      <trkpt lat="42.67654" lon="1.93873">
        <ele>1377.71</ele>
        <time>2013-12-23T15:28:26Z</time>
      </trkpt>
      <trkpt lat="42.67662" lon="1.93888">
        <ele>1377.71</ele>
        <time>2013-12-23T15:28:34Z</time>
      </trkpt>
      <trkpt lat="42.67668" lon="1.93898">
        <ele>1376.75</ele>
        <time>2013-12-23T15:28:46Z</time>
      </trkpt>
      <trkpt lat="42.6767" lon="1.93902">
        <ele>1373.38</ele>
        <time>2013-12-23T15:28:59Z</time>
      </trkpt>
      <trkpt lat="42.67674" lon="1.9391">
        <ele>1371.46</ele>
        <time>2013-12-23T15:29:09Z</time>
      </trkpt>
      <trkpt lat="42.67675" lon="1.9391">
        <ele>1371.46</ele>
        <time>2013-12-23T15:29:11Z</time>
      </trkpt>
      <trkpt lat="42.6768" lon="1.93918">
        <ele>1370.98</ele>
        <time>2013-12-23T15:29:25Z</time>
      </trkpt>
      <trkpt lat="42.67681" lon="1.93922">
        <ele>1367.61</ele>
        <time>2013-12-23T15:29:39Z</time>
      </trkpt>
      <trkpt lat="42.67681" lon="1.93919">
        <ele>1360.4</ele>
        <time>2013-12-23T15:29:53Z</time>
      </trkpt>
      <trkpt lat="42.67684" lon="1.93918">
        <ele>1356.56</ele>
        <time>2013-12-23T15:30:07Z</time>
      </trkpt>
      <trkpt lat="42.67684" lon="1.93918">
        <ele>1356.08</ele>
        <time>2013-12-23T15:30:09Z</time>
      </trkpt>
      <trkpt lat="42.67687" lon="1.93907">
        <ele>1353.67</ele>
        <time>2013-12-23T15:30:19Z</time>
      </trkpt>
      <trkpt lat="42.6769" lon="1.93907">
        <ele>1348.39</ele>
        <time>2013-12-23T15:30:32Z</time>
      </trkpt>
      <trkpt lat="42.67692" lon="1.93907">
        <ele>1348.39</ele>
        <time>2013-12-23T15:30:34Z</time>
      </trkpt>
      <trkpt lat="42.67695" lon="1.93911">
        <ele>1347.91</ele>
        <time>2013-12-23T15:30:37Z</time>
      </trkpt>
      <trkpt lat="42.67698" lon="1.93915">
        <ele>1347.91</ele>
        <time>2013-12-23T15:30:41Z</time>
      </trkpt>
      <trkpt lat="42.677" lon="1.93921">
        <ele>1347.43</ele>
        <time>2013-12-23T15:30:45Z</time>
      </trkpt>
      <trkpt lat="42.67709" lon="1.9392">
        <ele>1344.06</ele>
        <time>2013-12-23T15:31:00Z</time>
      </trkpt>
      <trkpt lat="42.67712" lon="1.93919">
        <ele>1340.22</ele>
        <time>2013-12-23T15:31:09Z</time>
      </trkpt>
      <trkpt lat="42.67713" lon="1.93923">
        <ele>1339.25</ele>
        <time>2013-12-23T15:31:13Z</time>
      </trkpt>
      <trkpt lat="42.67715" lon="1.93925">
        <ele>1337.33</ele>
        <time>2013-12-23T15:31:19Z</time>
      </trkpt>
      <trkpt lat="42.67722" lon="1.93926">
        <ele>1335.89</ele>
        <time>2013-12-23T15:31:29Z</time>
      </trkpt>
      <trkpt lat="42.6773" lon="1.93937">
        <ele>1333.49</ele>
        <time>2013-12-23T15:31:36Z</time>
      </trkpt>
      <trkpt lat="42.67733" lon="1.93936">
        <ele>1328.68</ele>
        <time>2013-12-23T15:31:55Z</time>
      </trkpt>
      <trkpt lat="42.67736" lon="1.93943">
        <ele>1327.24</ele>
        <time>2013-12-23T15:32:01Z</time>
      </trkpt>
      <trkpt lat="42.67736" lon="1.93954">
        <ele>1325.8</ele>
        <time>2013-12-23T15:32:04Z</time>
      </trkpt>
      <trkpt lat="42.67741" lon="1.93963">
        <ele>1322.43</ele>
        <time>2013-12-23T15:32:10Z</time>
      </trkpt>
      <trkpt lat="42.67742" lon="1.93967">
        <ele>1315.7</ele>
        <time>2013-12-23T15:32:24Z</time>
      </trkpt>
      <trkpt lat="42.67746" lon="1.93971">
        <ele>1313.3</ele>
        <time>2013-12-23T15:32:29Z</time>
      </trkpt>
      <trkpt lat="42.67753" lon="1.93966">
        <ele>1307.53</ele>
        <time>2013-12-23T15:32:34Z</time>
      </trkpt>
      <trkpt lat="42.6776" lon="1.93965">
        <ele>1304.65</ele>
        <time>2013-12-23T15:32:39Z</time>
      </trkpt>
      <trkpt lat="42.67762" lon="1.93963">
        <ele>1303.69</ele>
        <time>2013-12-23T15:32:41Z</time>
      </trkpt>
      <trkpt lat="42.67767" lon="1.93962">
        <ele>1303.69</ele>
        <time>2013-12-23T15:32:46Z</time>
      </trkpt>
      <trkpt lat="42.67769" lon="1.93965">
        <ele>1301.28</ele>
        <time>2013-12-23T15:32:55Z</time>
      </trkpt>
      <trkpt lat="42.67771" lon="1.9397">
        <ele>1298.4</ele>
        <time>2013-12-23T15:33:01Z</time>
      </trkpt>
      <trkpt lat="42.67784" lon="1.93965">
        <ele>1291.67</ele>
        <time>2013-12-23T15:33:09Z</time>
      </trkpt>
      <trkpt lat="42.67785" lon="1.93965">
        <ele>1291.19</ele>
        <time>2013-12-23T15:33:10Z</time>
      </trkpt>
      <trkpt lat="42.67789" lon="1.93973">
        <ele>1289.27</ele>
        <time>2013-12-23T15:33:14Z</time>
      </trkpt>
      <trkpt lat="42.6779" lon="1.93977">
        <ele>1288.3</ele>
        <time>2013-12-23T15:33:16Z</time>
      </trkpt>
      <trkpt lat="42.67793" lon="1.93982">
        <ele>1283.02</ele>
        <time>2013-12-23T15:33:30Z</time>
      </trkpt>
      <trkpt lat="42.678" lon="1.93979">
        <ele>1280.13</ele>
        <time>2013-12-23T15:33:36Z</time>
      </trkpt>
      <trkpt lat="42.67805" lon="1.93992">
        <ele>1274.36</ele>
        <time>2013-12-23T15:33:42Z</time>
      </trkpt>
      <trkpt lat="42.67817" lon="1.93989">
        <ele>1270.52</ele>
        <time>2013-12-23T15:33:49Z</time>
      </trkpt>
      <trkpt lat="42.6782" lon="1.93995">
        <ele>1269.08</ele>
        <time>2013-12-23T15:33:54Z</time>
      </trkpt>
      <trkpt lat="42.67829" lon="1.9399">
        <ele>1265.23</ele>
        <time>2013-12-23T15:34:03Z</time>
      </trkpt>
      <trkpt lat="42.67833" lon="1.93986">
        <ele>1264.27</ele>
        <time>2013-12-23T15:34:18Z</time>
      </trkpt>
      <trkpt lat="42.67833" lon="1.93982">
        <ele>1264.27</ele>
        <time>2013-12-23T15:34:21Z</time>
      </trkpt>
      <trkpt lat="42.67837" lon="1.93987">
        <ele>1259.94</ele>
        <time>2013-12-23T15:34:34Z</time>
      </trkpt>
      <trkpt lat="42.67838" lon="1.93988">
        <ele>1259.94</ele>
        <time>2013-12-23T15:34:35Z</time>
      </trkpt>
      <trkpt lat="42.67845" lon="1.93985">
        <ele>1257.06</ele>
        <time>2013-12-23T15:34:44Z</time>
      </trkpt>
      <trkpt lat="42.67847" lon="1.93984">
        <ele>1255.14</ele>
        <time>2013-12-23T15:34:48Z</time>
      </trkpt>
      <trkpt lat="42.67852" lon="1.93985">
        <ele>1254.66</ele>
        <time>2013-12-23T15:34:51Z</time>
      </trkpt>
      <trkpt lat="42.67857" lon="1.93985">
        <ele>1252.25</ele>
        <time>2013-12-23T15:34:56Z</time>
      </trkpt>
      <trkpt lat="42.67864" lon="1.93986">
        <ele>1249.85</ele>
        <time>2013-12-23T15:35:05Z</time>
      </trkpt>
      <trkpt lat="42.67868" lon="1.9398">
        <ele>1246.49</ele>
        <time>2013-12-23T15:35:16Z</time>
      </trkpt>
      <trkpt lat="42.67871" lon="1.93972">
        <ele>1238.8</ele>
        <time>2013-12-23T15:35:28Z</time>
      </trkpt>
      <trkpt lat="42.67873" lon="1.93973">
        <ele>1235.43</ele>
        <time>2013-12-23T15:35:38Z</time>
      </trkpt>
      <trkpt lat="42.67873" lon="1.9397">
        <ele>1232.07</ele>
        <time>2013-12-23T15:35:40Z</time>
      </trkpt>
      <trkpt lat="42.67874" lon="1.93967">
        <ele>1228.7</ele>
        <time>2013-12-23T15:35:52Z</time>
      </trkpt>
      <trkpt lat="42.67879" lon="1.93962">
        <ele>1227.26</ele>
        <time>2013-12-23T15:36:03Z</time>
      </trkpt>
      <trkpt lat="42.67884" lon="1.93953">
        <ele>1223.9</ele>
        <time>2013-12-23T15:36:15Z</time>
      </trkpt>
      <trkpt lat="42.67884" lon="1.93952">
        <ele>1223.42</ele>
        <time>2013-12-23T15:36:16Z</time>
      </trkpt>
      <trkpt lat="42.67897" lon="1.93955">
        <ele>1220.05</ele>
        <time>2013-12-23T15:36:23Z</time>
      </trkpt>
      <trkpt lat="42.67903" lon="1.93963">
        <ele>1219.09</ele>
        <time>2013-12-23T15:36:29Z</time>
      </trkpt>
      <trkpt lat="42.67905" lon="1.93965">
        <ele>1219.09</ele>
        <time>2013-12-23T15:36:31Z</time>
      </trkpt>
      <trkpt lat="42.67915" lon="1.93967">
        <ele>1213.32</ele>
        <time>2013-12-23T15:36:41Z</time>
      </trkpt>
      <trkpt lat="42.67918" lon="1.93963">
        <ele>1211.4</ele>
        <time>2013-12-23T15:36:49Z</time>
      </trkpt>
      <trkpt lat="42.6792" lon="1.93966">
        <ele>1209.96</ele>
        <time>2013-12-23T15:36:53Z</time>
      </trkpt>
      <trkpt lat="42.67922" lon="1.93965">
        <ele>1208.03</ele>
        <time>2013-12-23T15:36:55Z</time>
      </trkpt>
      <trkpt lat="42.67928" lon="1.93961">
        <ele>1202.75</ele>
        <time>2013-12-23T15:37:02Z</time>
      </trkpt>
      <trkpt lat="42.67931" lon="1.93971">
        <ele>1202.75</ele>
        <time>2013-12-23T15:37:10Z</time>
      </trkpt>
      <trkpt lat="42.67931" lon="1.93972">
        <ele>1202.27</ele>
        <time>2013-12-23T15:37:12Z</time>
      </trkpt>
      <trkpt lat="42.67934" lon="1.93973">
        <ele>1201.3</ele>
        <time>2013-12-23T15:37:14Z</time>
      </trkpt>
      <trkpt lat="42.67943" lon="1.93972">
        <ele>1199.38</ele>
        <time>2013-12-23T15:37:21Z</time>
      </trkpt>
      <trkpt lat="42.67953" lon="1.93977">
        <ele>1195.06</ele>
        <time>2013-12-23T15:37:31Z</time>
      </trkpt>
      <trkpt lat="42.67954" lon="1.93975">
        <ele>1188.33</ele>
        <time>2013-12-23T15:37:49Z</time>
      </trkpt>
      <trkpt lat="42.67954" lon="1.93974">
        <ele>1187.85</ele>
        <time>2013-12-23T15:37:59Z</time>
      </trkpt>
      <trkpt lat="42.6795" lon="1.93981">
        <ele>1186.88</ele>
        <time>2013-12-23T15:38:03Z</time>
      </trkpt>
      <trkpt lat="42.67949" lon="1.93999">
        <ele>1184.48</ele>
        <time>2013-12-23T15:38:08Z</time>
      </trkpt>
      <trkpt lat="42.67957" lon="1.93992">
        <ele>1180.16</ele>
        <time>2013-12-23T15:38:13Z</time>
      </trkpt>
      <trkpt lat="42.67969" lon="1.93988">
        <ele>1174.87</ele>
        <time>2013-12-23T15:38:22Z</time>
      </trkpt>
      <trkpt lat="42.67969" lon="1.93988">
        <ele>1174.39</ele>
        <time>2013-12-23T15:38:23Z</time>
      </trkpt>
      <trkpt lat="42.67974" lon="1.9399">
        <ele>1171.98</ele>
        <time>2013-12-23T15:38:28Z</time>
      </trkpt>
      <trkpt lat="42.67979" lon="1.94003">
        <ele>1167.66</ele>
        <time>2013-12-23T15:38:34Z</time>
      </trkpt>
      <trkpt lat="42.67981" lon="1.94014">
        <ele>1166.7</ele>
        <time>2013-12-23T15:38:37Z</time>
      </trkpt>
      <trkpt lat="42.67981" lon="1.94024">
        <ele>1165.74</ele>
        <time>2013-12-23T15:38:39Z</time>
      </trkpt>
      <trkpt lat="42.67993" lon="1.94038">
        <ele>1160.45</ele>
        <time>2013-12-23T15:38:47Z</time>
      </trkpt>
      <trkpt lat="42.67995" lon="1.94039">
        <ele>1156.12</ele>
        <time>2013-12-23T15:38:52Z</time>
      </trkpt>
      <trkpt lat="42.67999" lon="1.94038">
        <ele>1151.8</ele>
        <time>2013-12-23T15:39:00Z</time>
      </trkpt>
      <trkpt lat="42.68014" lon="1.94033">
        <ele>1146.51</ele>
        <time>2013-12-23T15:39:07Z</time>
      </trkpt>
      <trkpt lat="42.68021" lon="1.94029">
        <ele>1144.11</ele>
        <time>2013-12-23T15:39:10Z</time>
      </trkpt>
      <trkpt lat="42.68029" lon="1.94051">
        <ele>1138.82</ele>
        <time>2013-12-23T15:39:17Z</time>
      </trkpt>
      <trkpt lat="42.68034" lon="1.9406">
        <ele>1137.86</ele>
        <time>2013-12-23T15:39:24Z</time>
      </trkpt>
      <trkpt lat="42.68033" lon="1.94063">
        <ele>1137.86</ele>
        <time>2013-12-23T15:39:37Z</time>
      </trkpt>
      <trkpt lat="42.68047" lon="1.94074">
        <ele>1136.42</ele>
        <time>2013-12-23T15:39:44Z</time>
      </trkpt>
      <trkpt lat="42.68063" lon="1.94091">
        <ele>1133.53</ele>
        <time>2013-12-23T15:39:50Z</time>
      </trkpt>
      <trkpt lat="42.6807" lon="1.94102">
        <ele>1132.57</ele>
        <time>2013-12-23T15:39:53Z</time>
      </trkpt>
      <trkpt lat="42.68082" lon="1.94106">
        <ele>1130.17</ele>
        <time>2013-12-23T15:39:56Z</time>
      </trkpt>
      <trkpt lat="42.68085" lon="1.94101">
        <ele>1129.21</ele>
        <time>2013-12-23T15:39:57Z</time>
      </trkpt>
      <trkpt lat="42.68087" lon="1.94096">
        <ele>1128.24</ele>
        <time>2013-12-23T15:39:58Z</time>
      </trkpt>
      <trkpt lat="42.6809" lon="1.9409">
        <ele>1127.28</ele>
        <time>2013-12-23T15:39:59Z</time>
      </trkpt>
      <trkpt lat="42.68093" lon="1.94085">
        <ele>1126.32</ele>
        <time>2013-12-23T15:40:00Z</time>
      </trkpt>
      <trkpt lat="42.681" lon="1.94073">
        <ele>1123.92</ele>
        <time>2013-12-23T15:40:02Z</time>
      </trkpt>
      <trkpt lat="42.68104" lon="1.94068">
        <ele>1122.48</ele>
        <time>2013-12-23T15:40:03Z</time>
      </trkpt>
      <trkpt lat="42.68107" lon="1.94062">
        <ele>1121.52</ele>
        <time>2013-12-23T15:40:04Z</time>
      </trkpt>
      <trkpt lat="42.6811" lon="1.94057">
        <ele>1120.07</ele>
        <time>2013-12-23T15:40:05Z</time>
      </trkpt>
      <trkpt lat="42.68113" lon="1.94053">
        <ele>1119.59</ele>
        <time>2013-12-23T15:40:06Z</time>
      </trkpt>
      <trkpt lat="42.68116" lon="1.94048">
        <ele>1119.11</ele>
        <time>2013-12-23T15:40:07Z</time>
      </trkpt>
      <trkpt lat="42.68125" lon="1.94031">
        <ele>1118.63</ele>
        <time>2013-12-23T15:40:11Z</time>
      </trkpt>
      <trkpt lat="42.68128" lon="1.94027">
        <ele>1118.15</ele>
        <time>2013-12-23T15:40:12Z</time>
      </trkpt>
      <trkpt lat="42.68131" lon="1.94025">
        <ele>1117.67</ele>
        <time>2013-12-23T15:40:13Z</time>
      </trkpt>
      <trkpt lat="42.68142" lon="1.94017">
        <ele>1115.75</ele>
        <time>2013-12-23T15:40:17Z</time>
      </trkpt>
      <trkpt lat="42.68143" lon="1.94015">
        <ele>1114.79</ele>
        <time>2013-12-23T15:40:18Z</time>
      </trkpt>
      <trkpt lat="42.68151" lon="1.94017">
        <ele>1111.42</ele>
        <time>2013-12-23T15:40:31Z</time>
      </trkpt>
      <trkpt lat="42.6815" lon="1.94013">
        <ele>1111.42</ele>
        <time>2013-12-23T15:40:51Z</time>
      </trkpt>
      <trkpt lat="42.6815" lon="1.9401">
        <ele>1111.42</ele>
        <time>2013-12-23T15:40:53Z</time>
      </trkpt>
      <trkpt lat="42.68144" lon="1.93972">
        <ele>1107.58</ele>
        <time>2013-12-23T15:41:04Z</time>
      </trkpt>
      <trkpt lat="42.68142" lon="1.93953">
        <ele>1106.61</ele>
        <time>2013-12-23T15:41:08Z</time>
      </trkpt>
      <trkpt lat="42.68142" lon="1.93949">
        <ele>1106.13</ele>
        <time>2013-12-23T15:41:09Z</time>
      </trkpt>
      <trkpt lat="42.68142" lon="1.93945">
        <ele>1105.65</ele>
        <time>2013-12-23T15:41:10Z</time>
      </trkpt>
      <trkpt lat="42.68142" lon="1.9394">
        <ele>1105.65</ele>
        <time>2013-12-23T15:41:11Z</time>
      </trkpt>
      <trkpt lat="42.68143" lon="1.93934">
        <ele>1105.17</ele>
        <time>2013-12-23T15:41:12Z</time>
      </trkpt>
      <trkpt lat="42.68145" lon="1.93915">
        <ele>1103.73</ele>
        <time>2013-12-23T15:41:15Z</time>
      </trkpt>
      <trkpt lat="42.68145" lon="1.93908">
        <ele>1103.25</ele>
        <time>2013-12-23T15:41:16Z</time>
      </trkpt>
      <trkpt lat="42.68146" lon="1.93902">
        <ele>1102.77</ele>
        <time>2013-12-23T15:41:17Z</time>
      </trkpt>
      <trkpt lat="42.68157" lon="1.93851">
        <ele>1099.89</ele>
        <time>2013-12-23T15:41:24Z</time>
      </trkpt>
      <trkpt lat="42.6816" lon="1.93845">
        <ele>1098.92</ele>
        <time>2013-12-23T15:41:25Z</time>
      </trkpt>
      <trkpt lat="42.68163" lon="1.9384">
        <ele>1097.48</ele>
        <time>2013-12-23T15:41:26Z</time>
      </trkpt>
      <trkpt lat="42.68167" lon="1.93835">
        <ele>1096.52</ele>
        <time>2013-12-23T15:41:27Z</time>
      </trkpt>
      <trkpt lat="42.68171" lon="1.9383">
        <ele>1095.56</ele>
        <time>2013-12-23T15:41:28Z</time>
      </trkpt>
      <trkpt lat="42.68175" lon="1.93825">
        <ele>1094.6</ele>
        <time>2013-12-23T15:41:29Z</time>
      </trkpt>
      <trkpt lat="42.68183" lon="1.93813">
        <ele>1092.2</ele>
        <time>2013-12-23T15:41:31Z</time>
      </trkpt>
      <trkpt lat="42.68186" lon="1.93806">
        <ele>1091.23</ele>
        <time>2013-12-23T15:41:32Z</time>
      </trkpt>
      <trkpt lat="42.68203" lon="1.93759">
        <ele>1084.5</ele>
        <time>2013-12-23T15:41:38Z</time>
      </trkpt>
      <trkpt lat="42.68209" lon="1.93744">
        <ele>1082.58</ele>
        <time>2013-12-23T15:41:40Z</time>
      </trkpt>
      <trkpt lat="42.68214" lon="1.93739">
        <ele>1081.62</ele>
        <time>2013-12-23T15:41:41Z</time>
      </trkpt>
      <trkpt lat="42.68234" lon="1.93722">
        <ele>1078.26</ele>
        <time>2013-12-23T15:41:45Z</time>
      </trkpt>
      <trkpt lat="42.68241" lon="1.93719">
        <ele>1077.29</ele>
        <time>2013-12-23T15:41:46Z</time>
      </trkpt>
      <trkpt lat="42.68246" lon="1.93715">
        <ele>1075.85</ele>
        <time>2013-12-23T15:41:47Z</time>
      </trkpt>
      <trkpt lat="42.68263" lon="1.93698">
        <ele>1072.97</ele>
        <time>2013-12-23T15:41:50Z</time>
      </trkpt>
      <trkpt lat="42.68267" lon="1.93692">
        <ele>1071.53</ele>
        <time>2013-12-23T15:41:51Z</time>
      </trkpt>
      <trkpt lat="42.68269" lon="1.93684">
        <ele>1070.57</ele>
        <time>2013-12-23T15:41:52Z</time>
      </trkpt>
      <trkpt lat="42.68271" lon="1.93675">
        <ele>1069.6</ele>
        <time>2013-12-23T15:41:53Z</time>
      </trkpt>
      <trkpt lat="42.68272" lon="1.93668">
        <ele>1068.64</ele>
        <time>2013-12-23T15:41:54Z</time>
      </trkpt>
      <trkpt lat="42.68285" lon="1.93572">
        <ele>1060.47</ele>
        <time>2013-12-23T15:42:04Z</time>
      </trkpt>
      <trkpt lat="42.68287" lon="1.93563">
        <ele>1059.51</ele>
        <time>2013-12-23T15:42:05Z</time>
      </trkpt>
      <trkpt lat="42.68289" lon="1.93557">
        <ele>1059.03</ele>
        <time>2013-12-23T15:42:06Z</time>
      </trkpt>
      <trkpt lat="42.68289" lon="1.93552">
        <ele>1058.07</ele>
        <time>2013-12-23T15:42:07Z</time>
      </trkpt>
      <trkpt lat="42.68287" lon="1.93549">
        <ele>1057.11</ele>
        <time>2013-12-23T15:42:08Z</time>
      </trkpt>
      <trkpt lat="42.68287" lon="1.93546">
        <ele>1056.63</ele>
        <time>2013-12-23T15:42:09Z</time>
      </trkpt>
      <trkpt lat="42.68287" lon="1.93542">
        <ele>1053.74</ele>
        <time>2013-12-23T15:42:17Z</time>
      </trkpt>
      <trkpt lat="42.68289" lon="1.93539">
        <ele>1052.78</ele>
        <time>2013-12-23T15:42:23Z</time>
      </trkpt>
      <trkpt lat="42.6829" lon="1.93538">
        <ele>1053.26</ele>
        <time>2013-12-23T15:42:24Z</time>
      </trkpt>
      <trkpt lat="42.6829" lon="1.93536">
        <ele>1053.74</ele>
        <time>2013-12-23T15:42:25Z</time>
      </trkpt>
      <trkpt lat="42.6829" lon="1.93534">
        <ele>1054.22</ele>
        <time>2013-12-23T15:42:26Z</time>
      </trkpt>
      <trkpt lat="42.6829" lon="1.93531">
        <ele>1054.22</ele>
        <time>2013-12-23T15:42:27Z</time>
      </trkpt>
      <trkpt lat="42.6829" lon="1.93527">
        <ele>1054.22</ele>
        <time>2013-12-23T15:42:28Z</time>
      </trkpt>
      <trkpt lat="42.68291" lon="1.93508">
        <ele>1054.22</ele>
        <time>2013-12-23T15:42:32Z</time>
      </trkpt>
      <trkpt lat="42.68295" lon="1.93497">
        <ele>1053.74</ele>
        <time>2013-12-23T15:42:34Z</time>
      </trkpt>
      <trkpt lat="42.68298" lon="1.93492">
        <ele>1053.74</ele>
        <time>2013-12-23T15:42:35Z</time>
      </trkpt>
      <trkpt lat="42.68301" lon="1.93487">
        <ele>1053.26</ele>
        <time>2013-12-23T15:42:36Z</time>
      </trkpt>
      <trkpt lat="42.68302" lon="1.93481">
        <ele>1052.78</ele>
        <time>2013-12-23T15:42:37Z</time>
      </trkpt>
      <trkpt lat="42.68303" lon="1.93475">
        <ele>1052.78</ele>
        <time>2013-12-23T15:42:38Z</time>
      </trkpt>
      <trkpt lat="42.68305" lon="1.9347">
        <ele>1052.78</ele>
        <time>2013-12-23T15:42:39Z</time>
      </trkpt>
      <trkpt lat="42.68307" lon="1.93465">
        <ele>1052.3</ele>
        <time>2013-12-23T15:42:40Z</time>
      </trkpt>
      <trkpt lat="42.68308" lon="1.93459">
        <ele>1052.3</ele>
        <time>2013-12-23T15:42:41Z</time>
      </trkpt>
      <trkpt lat="42.6831" lon="1.93453">
        <ele>1051.82</ele>
        <time>2013-12-23T15:42:42Z</time>
      </trkpt>
      <trkpt lat="42.68311" lon="1.93445">
        <ele>1051.34</ele>
        <time>2013-12-23T15:42:43Z</time>
      </trkpt>
      <trkpt lat="42.68312" lon="1.93437">
        <ele>1050.86</ele>
        <time>2013-12-23T15:42:44Z</time>
      </trkpt>
      <trkpt lat="42.68314" lon="1.9343">
        <ele>1050.38</ele>
        <time>2013-12-23T15:42:45Z</time>
      </trkpt>
      <trkpt lat="42.68316" lon="1.93423">
        <ele>1049.42</ele>
        <time>2013-12-23T15:42:46Z</time>
      </trkpt>
      <trkpt lat="42.68319" lon="1.93417">
        <ele>1048.45</ele>
        <time>2013-12-23T15:42:47Z</time>
      </trkpt>
      <trkpt lat="42.68323" lon="1.93413">
        <ele>1047.49</ele>
        <time>2013-12-23T15:42:48Z</time>
      </trkpt>
      <trkpt lat="42.68327" lon="1.93409">
        <ele>1046.53</ele>
        <time>2013-12-23T15:42:49Z</time>
      </trkpt>
      <trkpt lat="42.68332" lon="1.93405">
        <ele>1045.57</ele>
        <time>2013-12-23T15:42:50Z</time>
      </trkpt>
      <trkpt lat="42.68336" lon="1.93401">
        <ele>1044.61</ele>
        <time>2013-12-23T15:42:51Z</time>
      </trkpt>
      <trkpt lat="42.68353" lon="1.93387">
        <ele>1040.28</ele>
        <time>2013-12-23T15:42:55Z</time>
      </trkpt>
      <trkpt lat="42.68357" lon="1.93384">
        <ele>1039.32</ele>
        <time>2013-12-23T15:42:56Z</time>
      </trkpt>
      <trkpt lat="42.68362" lon="1.93381">
        <ele>1038.36</ele>
        <time>2013-12-23T15:42:57Z</time>
      </trkpt>
      <trkpt lat="42.68368" lon="1.93379">
        <ele>1037.4</ele>
        <time>2013-12-23T15:42:58Z</time>
      </trkpt>
      <trkpt lat="42.68373" lon="1.93376">
        <ele>1036.44</ele>
        <time>2013-12-23T15:42:59Z</time>
      </trkpt>
      <trkpt lat="42.68377" lon="1.93372">
        <ele>1035.96</ele>
        <time>2013-12-23T15:43:00Z</time>
      </trkpt>
      <trkpt lat="42.68381" lon="1.93369">
        <ele>1035</ele>
        <time>2013-12-23T15:43:01Z</time>
      </trkpt>
      <trkpt lat="42.68385" lon="1.93365">
        <ele>1034.52</ele>
        <time>2013-12-23T15:43:02Z</time>
      </trkpt>
      <trkpt lat="42.68388" lon="1.93361">
        <ele>1034.52</ele>
        <time>2013-12-23T15:43:03Z</time>
      </trkpt>
      <trkpt lat="42.68393" lon="1.93352">
        <ele>1035</ele>
        <time>2013-12-23T15:43:05Z</time>
      </trkpt>
      <trkpt lat="42.68411" lon="1.93325">
        <ele>1035</ele>
        <time>2013-12-23T15:43:12Z</time>
      </trkpt>
      <trkpt lat="42.68414" lon="1.9332">
        <ele>1035</ele>
        <time>2013-12-23T15:43:13Z</time>
      </trkpt>
      <trkpt lat="42.6842" lon="1.9331">
        <ele>1035.48</ele>
        <time>2013-12-23T15:43:15Z</time>
      </trkpt>
      <trkpt lat="42.68423" lon="1.93304">
        <ele>1035.48</ele>
        <time>2013-12-23T15:43:16Z</time>
      </trkpt>
      <trkpt lat="42.68431" lon="1.93287">
        <ele>1035.48</ele>
        <time>2013-12-23T15:43:19Z</time>
      </trkpt>
      <trkpt lat="42.6844" lon="1.93266">
        <ele>1035.48</ele>
        <time>2013-12-23T15:43:23Z</time>
      </trkpt>
      <trkpt lat="42.68447" lon="1.9325">
        <ele>1035.48</ele>
        <time>2013-12-23T15:43:26Z</time>
      </trkpt>
      <trkpt lat="42.68449" lon="1.93245">
        <ele>1035.48</ele>
        <time>2013-12-23T15:43:27Z</time>
      </trkpt>
      <trkpt lat="42.68452" lon="1.93241">
        <ele>1035</ele>
        <time>2013-12-23T15:43:28Z</time>
      </trkpt>
      <trkpt lat="42.68456" lon="1.93237">
        <ele>1034.52</ele>
        <time>2013-12-23T15:43:29Z</time>
      </trkpt>
      <trkpt lat="42.68459" lon="1.93233">
        <ele>1034.52</ele>
        <time>2013-12-23T15:43:30Z</time>
      </trkpt>
      <trkpt lat="42.68471" lon="1.93212">
        <ele>1034.52</ele>
        <time>2013-12-23T15:43:35Z</time>
      </trkpt>
      <trkpt lat="42.68482" lon="1.93188">
        <ele>1035.96</ele>
        <time>2013-12-23T15:43:41Z</time>
      </trkpt>
      <trkpt lat="42.6849" lon="1.93139">
        <ele>1037.88</ele>
        <time>2013-12-23T15:43:52Z</time>
      </trkpt>
      <trkpt lat="42.68497" lon="1.93095">
        <ele>1040.28</ele>
        <time>2013-12-23T15:44:01Z</time>
      </trkpt>
      <trkpt lat="42.68497" lon="1.93089">
        <ele>1040.76</ele>
        <time>2013-12-23T15:44:02Z</time>
      </trkpt>
      <trkpt lat="42.68497" lon="1.93083">
        <ele>1040.76</ele>
        <time>2013-12-23T15:44:03Z</time>
      </trkpt>
      <trkpt lat="42.68497" lon="1.93077">
        <ele>1040.28</ele>
        <time>2013-12-23T15:44:04Z</time>
      </trkpt>
      <trkpt lat="42.68497" lon="1.93071">
        <ele>1039.8</ele>
        <time>2013-12-23T15:44:05Z</time>
      </trkpt>
      <trkpt lat="42.68495" lon="1.9306">
        <ele>1039.8</ele>
        <time>2013-12-23T15:44:07Z</time>
      </trkpt>
      <trkpt lat="42.68491" lon="1.93048">
        <ele>1039.8</ele>
        <time>2013-12-23T15:44:09Z</time>
      </trkpt>
      <trkpt lat="42.68489" lon="1.93041">
        <ele>1039.8</ele>
        <time>2013-12-23T15:44:10Z</time>
      </trkpt>
      <trkpt lat="42.68477" lon="1.93009">
        <ele>1040.28</ele>
        <time>2013-12-23T15:44:15Z</time>
      </trkpt>
      <trkpt lat="42.68476" lon="1.93002">
        <ele>1040.28</ele>
        <time>2013-12-23T15:44:16Z</time>
      </trkpt>
      <trkpt lat="42.68474" lon="1.92989">
        <ele>1040.76</ele>
        <time>2013-12-23T15:44:18Z</time>
      </trkpt>
      <trkpt lat="42.68474" lon="1.92983">
        <ele>1041.25</ele>
        <time>2013-12-23T15:44:19Z</time>
      </trkpt>
      <trkpt lat="42.68474" lon="1.92976">
        <ele>1040.76</ele>
        <time>2013-12-23T15:44:20Z</time>
      </trkpt>
      <trkpt lat="42.68473" lon="1.92969">
        <ele>1041.25</ele>
        <time>2013-12-23T15:44:21Z</time>
      </trkpt>
      <trkpt lat="42.68474" lon="1.92962">
        <ele>1040.76</ele>
        <time>2013-12-23T15:44:22Z</time>
      </trkpt>
      <trkpt lat="42.68474" lon="1.92956">
        <ele>1040.76</ele>
        <time>2013-12-23T15:44:23Z</time>
      </trkpt>
      <trkpt lat="42.68474" lon="1.92949">
        <ele>1040.76</ele>
        <time>2013-12-23T15:44:24Z</time>
      </trkpt>
      <trkpt lat="42.68473" lon="1.92944">
        <ele>1040.76</ele>
        <time>2013-12-23T15:44:25Z</time>
      </trkpt>
      <trkpt lat="42.68473" lon="1.92938">
        <ele>1040.28</ele>
        <time>2013-12-23T15:44:26Z</time>
      </trkpt>
      <trkpt lat="42.68473" lon="1.92932">
        <ele>1040.28</ele>
        <time>2013-12-23T15:44:27Z</time>
      </trkpt>
      <trkpt lat="42.68472" lon="1.92926">
        <ele>1040.28</ele>
        <time>2013-12-23T15:44:28Z</time>
      </trkpt>
      <trkpt lat="42.68471" lon="1.9292">
        <ele>1040.28</ele>
        <time>2013-12-23T15:44:29Z</time>
      </trkpt>
      <trkpt lat="42.6847" lon="1.92914">
        <ele>1040.28</ele>
        <time>2013-12-23T15:44:30Z</time>
      </trkpt>
      <trkpt lat="42.68469" lon="1.92902">
        <ele>1040.76</ele>
        <time>2013-12-23T15:44:32Z</time>
      </trkpt>
      <trkpt lat="42.68469" lon="1.92896">
        <ele>1040.76</ele>
        <time>2013-12-23T15:44:33Z</time>
      </trkpt>
      <trkpt lat="42.6847" lon="1.92892">
        <ele>1040.76</ele>
        <time>2013-12-23T15:44:34Z</time>
      </trkpt>
      <trkpt lat="42.68471" lon="1.92887">
        <ele>1040.28</ele>
        <time>2013-12-23T15:44:35Z</time>
      </trkpt>
      <trkpt lat="42.68473" lon="1.92882">
        <ele>1040.28</ele>
        <time>2013-12-23T15:44:36Z</time>
      </trkpt>
      <trkpt lat="42.68476" lon="1.92878">
        <ele>1040.28</ele>
        <time>2013-12-23T15:44:37Z</time>
      </trkpt>
      <trkpt lat="42.68482" lon="1.9287">
        <ele>1039.8</ele>
        <time>2013-12-23T15:44:39Z</time>
      </trkpt>
      <trkpt lat="42.68485" lon="1.92866">
        <ele>1039.32</ele>
        <time>2013-12-23T15:44:40Z</time>
      </trkpt>
      <trkpt lat="42.68487" lon="1.92862">
        <ele>1038.84</ele>
        <time>2013-12-23T15:44:41Z</time>
      </trkpt>
      <trkpt lat="42.68497" lon="1.92852">
        <ele>1036.44</ele>
        <time>2013-12-23T15:44:44Z</time>
      </trkpt>
      <trkpt lat="42.68501" lon="1.92849">
        <ele>1035.96</ele>
        <time>2013-12-23T15:44:45Z</time>
      </trkpt>
      <trkpt lat="42.68503" lon="1.92845">
        <ele>1035.48</ele>
        <time>2013-12-23T15:44:46Z</time>
      </trkpt>
      <trkpt lat="42.68504" lon="1.92841">
        <ele>1035</ele>
        <time>2013-12-23T15:44:47Z</time>
      </trkpt>
      <trkpt lat="42.68506" lon="1.92837">
        <ele>1034.52</ele>
        <time>2013-12-23T15:44:48Z</time>
      </trkpt>
      <trkpt lat="42.68507" lon="1.92833">
        <ele>1034.52</ele>
        <time>2013-12-23T15:44:49Z</time>
      </trkpt>
      <trkpt lat="42.68508" lon="1.92828">
        <ele>1034.04</ele>
        <time>2013-12-23T15:44:50Z</time>
      </trkpt>
      <trkpt lat="42.68512" lon="1.92812">
        <ele>1033.07</ele>
        <time>2013-12-23T15:44:53Z</time>
      </trkpt>
      <trkpt lat="42.68513" lon="1.92807">
        <ele>1033.07</ele>
        <time>2013-12-23T15:44:54Z</time>
      </trkpt>
      <trkpt lat="42.68514" lon="1.92802">
        <ele>1032.59</ele>
        <time>2013-12-23T15:44:55Z</time>
      </trkpt>
      <trkpt lat="42.68524" lon="1.92779">
        <ele>1032.11</ele>
        <time>2013-12-23T15:45:00Z</time>
      </trkpt>
      <trkpt lat="42.68526" lon="1.92773">
        <ele>1032.11</ele>
        <time>2013-12-23T15:45:01Z</time>
      </trkpt>
      <trkpt lat="42.68533" lon="1.92764">
        <ele>1032.11</ele>
        <time>2013-12-23T15:45:03Z</time>
      </trkpt>
      <trkpt lat="42.68547" lon="1.92742">
        <ele>1031.63</ele>
        <time>2013-12-23T15:45:07Z</time>
      </trkpt>
      <trkpt lat="42.68549" lon="1.92736">
        <ele>1031.15</ele>
        <time>2013-12-23T15:45:08Z</time>
      </trkpt>
      <trkpt lat="42.68551" lon="1.9273">
        <ele>1030.67</ele>
        <time>2013-12-23T15:45:09Z</time>
      </trkpt>
      <trkpt lat="42.68552" lon="1.92724">
        <ele>1030.67</ele>
        <time>2013-12-23T15:45:10Z</time>
      </trkpt>
      <trkpt lat="42.68553" lon="1.92718">
        <ele>1030.67</ele>
        <time>2013-12-23T15:45:11Z</time>
      </trkpt>
      <trkpt lat="42.68553" lon="1.92713">
        <ele>1030.19</ele>
        <time>2013-12-23T15:45:12Z</time>
      </trkpt>
      <trkpt lat="42.68552" lon="1.92707">
        <ele>1030.67</ele>
        <time>2013-12-23T15:45:13Z</time>
      </trkpt>
      <trkpt lat="42.68552" lon="1.92701">
        <ele>1030.67</ele>
        <time>2013-12-23T15:45:14Z</time>
      </trkpt>
      <trkpt lat="42.68551" lon="1.92696">
        <ele>1030.67</ele>
        <time>2013-12-23T15:45:15Z</time>
      </trkpt>
      <trkpt lat="42.6855" lon="1.9269">
        <ele>1030.67</ele>
        <time>2013-12-23T15:45:16Z</time>
      </trkpt>
      <trkpt lat="42.6855" lon="1.92675">
        <ele>1031.15</ele>
        <time>2013-12-23T15:45:19Z</time>
      </trkpt>
      <trkpt lat="42.68551" lon="1.92671">
        <ele>1031.63</ele>
        <time>2013-12-23T15:45:20Z</time>
      </trkpt>
      <trkpt lat="42.68551" lon="1.92667">
        <ele>1031.63</ele>
        <time>2013-12-23T15:45:21Z</time>
      </trkpt>
      <trkpt lat="42.68552" lon="1.92663">
        <ele>1031.63</ele>
        <time>2013-12-23T15:45:22Z</time>
      </trkpt>
      <trkpt lat="42.68552" lon="1.92659">
        <ele>1031.63</ele>
        <time>2013-12-23T15:45:23Z</time>
      </trkpt>
      <trkpt lat="42.68552" lon="1.92655">
        <ele>1031.63</ele>
        <time>2013-12-23T15:45:24Z</time>
      </trkpt>
      <trkpt lat="42.68553" lon="1.92624">
        <ele>1033.55</ele>
        <time>2013-12-23T15:45:33Z</time>
      </trkpt>
      <trkpt lat="42.68554" lon="1.92618">
        <ele>1034.04</ele>
        <time>2013-12-23T15:45:35Z</time>
      </trkpt>
      <trkpt lat="42.68555" lon="1.92614">
        <ele>1034.04</ele>
        <time>2013-12-23T15:45:36Z</time>
      </trkpt>
      <trkpt lat="42.68556" lon="1.92611">
        <ele>1034.52</ele>
        <time>2013-12-23T15:45:37Z</time>
      </trkpt>
      <trkpt lat="42.68557" lon="1.92609">
        <ele>1034.52</ele>
        <time>2013-12-23T15:45:38Z</time>
      </trkpt>
      <trkpt lat="42.68557" lon="1.92606">
        <ele>1034.52</ele>
        <time>2013-12-23T15:45:39Z</time>
      </trkpt>
      <trkpt lat="42.68561" lon="1.9259">
        <ele>1035</ele>
        <time>2013-12-23T15:45:44Z</time>
      </trkpt>
      <trkpt lat="42.68562" lon="1.92588">
        <ele>1035</ele>
        <time>2013-12-23T15:45:45Z</time>
      </trkpt>
      <trkpt lat="42.68562" lon="1.92587">
        <ele>1035.48</ele>
        <time>2013-12-23T15:45:46Z</time>
      </trkpt>
      <trkpt lat="42.68563" lon="1.92585">
        <ele>1035.48</ele>
        <time>2013-12-23T15:45:47Z</time>
      </trkpt>
      <trkpt lat="42.68564" lon="1.92582">
        <ele>1035.96</ele>
        <time>2013-12-23T15:45:48Z</time>
      </trkpt>
      <trkpt lat="42.68565" lon="1.92579">
        <ele>1035.96</ele>
        <time>2013-12-23T15:45:49Z</time>
      </trkpt>
      <trkpt lat="42.68566" lon="1.92576">
        <ele>1035.96</ele>
        <time>2013-12-23T15:45:50Z</time>
      </trkpt>
      <trkpt lat="42.68567" lon="1.92574">
        <ele>1035.96</ele>
        <time>2013-12-23T15:45:51Z</time>
      </trkpt>
      <trkpt lat="42.68569" lon="1.92571">
        <ele>1035.96</ele>
        <time>2013-12-23T15:45:52Z</time>
      </trkpt>
      <trkpt lat="42.68569" lon="1.92568">
        <ele>1035.96</ele>
        <time>2013-12-23T15:45:53Z</time>
      </trkpt>
      <trkpt lat="42.6857" lon="1.92565">
        <ele>1035.96</ele>
        <time>2013-12-23T15:45:54Z</time>
      </trkpt>
      <trkpt lat="42.68571" lon="1.92561">
        <ele>1035.96</ele>
        <time>2013-12-23T15:45:55Z</time>
      </trkpt>
      <trkpt lat="42.68572" lon="1.92555">
        <ele>1036.92</ele>
        <time>2013-12-23T15:45:57Z</time>
      </trkpt>
      <trkpt lat="42.68573" lon="1.92553">
        <ele>1036.92</ele>
        <time>2013-12-23T15:45:58Z</time>
      </trkpt>
      <trkpt lat="42.68574" lon="1.92549">
        <ele>1037.4</ele>
        <time>2013-12-23T15:45:59Z</time>
      </trkpt>
      <trkpt lat="42.68575" lon="1.92537">
        <ele>1038.84</ele>
        <time>2013-12-23T15:46:03Z</time>
      </trkpt>
      <trkpt lat="42.68576" lon="1.92535">
        <ele>1039.32</ele>
        <time>2013-12-23T15:46:04Z</time>
      </trkpt>
      <trkpt lat="42.68576" lon="1.92532">
        <ele>1039.32</ele>
        <time>2013-12-23T15:46:05Z</time>
      </trkpt>
      <trkpt lat="42.68576" lon="1.92529">
        <ele>1039.8</ele>
        <time>2013-12-23T15:46:06Z</time>
      </trkpt>
      <trkpt lat="42.68576" lon="1.92526">
        <ele>1040.28</ele>
        <time>2013-12-23T15:46:07Z</time>
      </trkpt>
      <trkpt lat="42.68577" lon="1.92523">
        <ele>1040.76</ele>
        <time>2013-12-23T15:46:08Z</time>
      </trkpt>
      <trkpt lat="42.68577" lon="1.9252">
        <ele>1041.25</ele>
        <time>2013-12-23T15:46:09Z</time>
      </trkpt>
      <trkpt lat="42.68578" lon="1.92516">
        <ele>1041.25</ele>
        <time>2013-12-23T15:46:10Z</time>
      </trkpt>
      <trkpt lat="42.68578" lon="1.92512">
        <ele>1040.76</ele>
        <time>2013-12-23T15:46:11Z</time>
      </trkpt>
      <trkpt lat="42.68579" lon="1.92509">
        <ele>1040.76</ele>
        <time>2013-12-23T15:46:12Z</time>
      </trkpt>
      <trkpt lat="42.68579" lon="1.92504">
        <ele>1041.25</ele>
        <time>2013-12-23T15:46:13Z</time>
      </trkpt>
      <trkpt lat="42.6858" lon="1.92501">
        <ele>1040.76</ele>
        <time>2013-12-23T15:46:14Z</time>
      </trkpt>
      <trkpt lat="42.68583" lon="1.9247">
        <ele>1039.8</ele>
        <time>2013-12-23T15:46:22Z</time>
      </trkpt>
      <trkpt lat="42.68584" lon="1.92467">
        <ele>1039.8</ele>
        <time>2013-12-23T15:46:23Z</time>
      </trkpt>
      <trkpt lat="42.68584" lon="1.92462">
        <ele>1039.8</ele>
        <time>2013-12-23T15:46:24Z</time>
      </trkpt>
      <trkpt lat="42.68587" lon="1.92444">
        <ele>1039.8</ele>
        <time>2013-12-23T15:46:28Z</time>
      </trkpt>
      <trkpt lat="42.6859" lon="1.92439">
        <ele>1039.8</ele>
        <time>2013-12-23T15:46:29Z</time>
      </trkpt>
      <trkpt lat="42.68592" lon="1.92434">
        <ele>1039.32</ele>
        <time>2013-12-23T15:46:30Z</time>
      </trkpt>
      <trkpt lat="42.686" lon="1.92409">
        <ele>1038.84</ele>
        <time>2013-12-23T15:46:34Z</time>
      </trkpt>
      <trkpt lat="42.68603" lon="1.92397">
        <ele>1038.84</ele>
        <time>2013-12-23T15:46:36Z</time>
      </trkpt>
      <trkpt lat="42.68605" lon="1.92391">
        <ele>1038.84</ele>
        <time>2013-12-23T15:46:37Z</time>
      </trkpt>
      <trkpt lat="42.68608" lon="1.92377">
        <ele>1038.84</ele>
        <time>2013-12-23T15:46:39Z</time>
      </trkpt>
      <trkpt lat="42.68611" lon="1.92369">
        <ele>1038.36</ele>
        <time>2013-12-23T15:46:40Z</time>
      </trkpt>
      <trkpt lat="42.68617" lon="1.92356">
        <ele>1038.36</ele>
        <time>2013-12-23T15:46:42Z</time>
      </trkpt>
      <trkpt lat="42.68621" lon="1.92349">
        <ele>1037.88</ele>
        <time>2013-12-23T15:46:43Z</time>
      </trkpt>
      <trkpt lat="42.68627" lon="1.92342">
        <ele>1037.4</ele>
        <time>2013-12-23T15:46:44Z</time>
      </trkpt>
      <trkpt lat="42.68631" lon="1.92334">
        <ele>1037.4</ele>
        <time>2013-12-23T15:46:45Z</time>
      </trkpt>
      <trkpt lat="42.68635" lon="1.92325">
        <ele>1036.44</ele>
        <time>2013-12-23T15:46:46Z</time>
      </trkpt>
      <trkpt lat="42.68658" lon="1.92264">
        <ele>1033.55</ele>
        <time>2013-12-23T15:46:53Z</time>
      </trkpt>
      <trkpt lat="42.68662" lon="1.9224">
        <ele>1031.63</ele>
        <time>2013-12-23T15:46:56Z</time>
      </trkpt>
      <trkpt lat="42.68673" lon="1.92179">
        <ele>1023.46</ele>
        <time>2013-12-23T15:47:03Z</time>
      </trkpt>
      <trkpt lat="42.68676" lon="1.9217">
        <ele>1021.54</ele>
        <time>2013-12-23T15:47:04Z</time>
      </trkpt>
      <trkpt lat="42.68681" lon="1.92162">
        <ele>1019.62</ele>
        <time>2013-12-23T15:47:05Z</time>
      </trkpt>
      <trkpt lat="42.68686" lon="1.92155">
        <ele>1018.17</ele>
        <time>2013-12-23T15:47:06Z</time>
      </trkpt>
      <trkpt lat="42.6869" lon="1.92148">
        <ele>1016.25</ele>
        <time>2013-12-23T15:47:07Z</time>
      </trkpt>
      <trkpt lat="42.68694" lon="1.9214">
        <ele>1014.33</ele>
        <time>2013-12-23T15:47:08Z</time>
      </trkpt>
      <trkpt lat="42.68698" lon="1.92132">
        <ele>1012.89</ele>
        <time>2013-12-23T15:47:09Z</time>
      </trkpt>
      <trkpt lat="42.68706" lon="1.92118">
        <ele>1010</ele>
        <time>2013-12-23T15:47:11Z</time>
      </trkpt>
      <trkpt lat="42.68711" lon="1.92114">
        <ele>1008.08</ele>
        <time>2013-12-23T15:47:12Z</time>
      </trkpt>
      <trkpt lat="42.68715" lon="1.92111">
        <ele>1006.64</ele>
        <time>2013-12-23T15:47:13Z</time>
      </trkpt>
      <trkpt lat="42.68718" lon="1.92107">
        <ele>1005.2</ele>
        <time>2013-12-23T15:47:14Z</time>
      </trkpt>
      <trkpt lat="42.68721" lon="1.92104">
        <ele>1004.72</ele>
        <time>2013-12-23T15:47:15Z</time>
      </trkpt>
      <trkpt lat="42.68722" lon="1.92099">
        <ele>1005.2</ele>
        <time>2013-12-23T15:47:16Z</time>
      </trkpt>
      <trkpt lat="42.68723" lon="1.92094">
        <ele>1005.2</ele>
        <time>2013-12-23T15:47:17Z</time>
      </trkpt>
      <trkpt lat="42.68723" lon="1.92088">
        <ele>1005.2</ele>
        <time>2013-12-23T15:47:18Z</time>
      </trkpt>
      <trkpt lat="42.68724" lon="1.92082">
        <ele>1005.2</ele>
        <time>2013-12-23T15:47:19Z</time>
      </trkpt>
      <trkpt lat="42.68726" lon="1.92075">
        <ele>1005.2</ele>
        <time>2013-12-23T15:47:20Z</time>
      </trkpt>
      <trkpt lat="42.68728" lon="1.92069">
        <ele>1005.2</ele>
        <time>2013-12-23T15:47:21Z</time>
      </trkpt>
      <trkpt lat="42.68732" lon="1.92062">
        <ele>1005.2</ele>
        <time>2013-12-23T15:47:22Z</time>
      </trkpt>
      <trkpt lat="42.6874" lon="1.92048">
        <ele>1005.2</ele>
        <time>2013-12-23T15:47:24Z</time>
      </trkpt>
      <trkpt lat="42.68744" lon="1.92042">
        <ele>1005.2</ele>
        <time>2013-12-23T15:47:25Z</time>
      </trkpt>
      <trkpt lat="42.68748" lon="1.92035">
        <ele>1005.2</ele>
        <time>2013-12-23T15:47:26Z</time>
      </trkpt>
      <trkpt lat="42.68749" lon="1.92029">
        <ele>1005.2</ele>
        <time>2013-12-23T15:47:27Z</time>
      </trkpt>
      <trkpt lat="42.68748" lon="1.92021">
        <ele>1005.2</ele>
        <time>2013-12-23T15:47:28Z</time>
      </trkpt>
      <trkpt lat="42.68747" lon="1.92014">
        <ele>1005.68</ele>
        <time>2013-12-23T15:47:29Z</time>
      </trkpt>
      <trkpt lat="42.68747" lon="1.92">
        <ele>1005.68</ele>
        <time>2013-12-23T15:47:31Z</time>
      </trkpt>
      <trkpt lat="42.68749" lon="1.91993">
        <ele>1005.68</ele>
        <time>2013-12-23T15:47:32Z</time>
      </trkpt>
      <trkpt lat="42.6876" lon="1.91967">
        <ele>1005.68</ele>
        <time>2013-12-23T15:47:36Z</time>
      </trkpt>
      <trkpt lat="42.68764" lon="1.91961">
        <ele>1005.68</ele>
        <time>2013-12-23T15:47:37Z</time>
      </trkpt>
      <trkpt lat="42.68768" lon="1.91956">
        <ele>1005.68</ele>
        <time>2013-12-23T15:47:38Z</time>
      </trkpt>
      <trkpt lat="42.68785" lon="1.91937">
        <ele>1004.72</ele>
        <time>2013-12-23T15:47:43Z</time>
      </trkpt>
      <trkpt lat="42.68802" lon="1.91909">
        <ele>1003.75</ele>
        <time>2013-12-23T15:47:48Z</time>
      </trkpt>
      <trkpt lat="42.68806" lon="1.91903">
        <ele>1003.75</ele>
        <time>2013-12-23T15:47:49Z</time>
      </trkpt>
      <trkpt lat="42.68811" lon="1.91896">
        <ele>1003.75</ele>
        <time>2013-12-23T15:47:50Z</time>
      </trkpt>
      <trkpt lat="42.68836" lon="1.91858">
        <ele>1003.27</ele>
        <time>2013-12-23T15:47:56Z</time>
      </trkpt>
      <trkpt lat="42.6884" lon="1.91852">
        <ele>1003.27</ele>
        <time>2013-12-23T15:47:57Z</time>
      </trkpt>
      <trkpt lat="42.68843" lon="1.91844">
        <ele>1002.79</ele>
        <time>2013-12-23T15:47:58Z</time>
      </trkpt>
      <trkpt lat="42.68845" lon="1.91836">
        <ele>1002.79</ele>
        <time>2013-12-23T15:47:59Z</time>
      </trkpt>
      <trkpt lat="42.68848" lon="1.91828">
        <ele>1002.79</ele>
        <time>2013-12-23T15:48:00Z</time>
      </trkpt>
      <trkpt lat="42.68849" lon="1.9182">
        <ele>1002.79</ele>
        <time>2013-12-23T15:48:01Z</time>
      </trkpt>
      <trkpt lat="42.68849" lon="1.91812">
        <ele>1002.79</ele>
        <time>2013-12-23T15:48:02Z</time>
      </trkpt>
      <trkpt lat="42.68851" lon="1.91786">
        <ele>1002.79</ele>
        <time>2013-12-23T15:48:05Z</time>
      </trkpt>
      <trkpt lat="42.68852" lon="1.91777">
        <ele>1002.79</ele>
        <time>2013-12-23T15:48:06Z</time>
      </trkpt>
      <trkpt lat="42.68857" lon="1.9175">
        <ele>1002.79</ele>
        <time>2013-12-23T15:48:09Z</time>
      </trkpt>
      <trkpt lat="42.6886" lon="1.91741">
        <ele>1002.79</ele>
        <time>2013-12-23T15:48:10Z</time>
      </trkpt>
      <trkpt lat="42.68863" lon="1.91732">
        <ele>1003.27</ele>
        <time>2013-12-23T15:48:11Z</time>
      </trkpt>
      <trkpt lat="42.68865" lon="1.91724">
        <ele>1003.27</ele>
        <time>2013-12-23T15:48:12Z</time>
      </trkpt>
      <trkpt lat="42.68867" lon="1.91715">
        <ele>1003.27</ele>
        <time>2013-12-23T15:48:13Z</time>
      </trkpt>
      <trkpt lat="42.6887" lon="1.91707">
        <ele>1003.27</ele>
        <time>2013-12-23T15:48:14Z</time>
      </trkpt>
      <trkpt lat="42.68873" lon="1.917">
        <ele>1003.27</ele>
        <time>2013-12-23T15:48:15Z</time>
      </trkpt>
      <trkpt lat="42.68881" lon="1.91681">
        <ele>1003.27</ele>
        <time>2013-12-23T15:48:18Z</time>
      </trkpt>
      <trkpt lat="42.68888" lon="1.91662">
        <ele>1002.31</ele>
        <time>2013-12-23T15:48:21Z</time>
      </trkpt>
      <trkpt lat="42.6889" lon="1.91657">
        <ele>1001.83</ele>
        <time>2013-12-23T15:48:22Z</time>
      </trkpt>
      <trkpt lat="42.68893" lon="1.91652">
        <ele>1000.87</ele>
        <time>2013-12-23T15:48:23Z</time>
      </trkpt>
      <trkpt lat="42.68899" lon="1.91642">
        <ele>998.95</ele>
        <time>2013-12-23T15:48:25Z</time>
      </trkpt>
      <trkpt lat="42.68905" lon="1.91632">
        <ele>997.02</ele>
        <time>2013-12-23T15:48:27Z</time>
      </trkpt>
      <trkpt lat="42.68908" lon="1.91627">
        <ele>996.06</ele>
        <time>2013-12-23T15:48:28Z</time>
      </trkpt>
      <trkpt lat="42.68918" lon="1.91614">
        <ele>993.66</ele>
        <time>2013-12-23T15:48:31Z</time>
      </trkpt>
      <trkpt lat="42.68924" lon="1.91603">
        <ele>993.18</ele>
        <time>2013-12-23T15:48:33Z</time>
      </trkpt>
      <trkpt lat="42.68928" lon="1.91599">
        <ele>993.18</ele>
        <time>2013-12-23T15:48:34Z</time>
      </trkpt>
      <trkpt lat="42.68931" lon="1.91594">
        <ele>992.7</ele>
        <time>2013-12-23T15:48:35Z</time>
      </trkpt>
      <trkpt lat="42.68936" lon="1.91588">
        <ele>992.7</ele>
        <time>2013-12-23T15:48:36Z</time>
      </trkpt>
      <trkpt lat="42.68941" lon="1.91582">
        <ele>992.7</ele>
        <time>2013-12-23T15:48:37Z</time>
      </trkpt>
      <trkpt lat="42.68949" lon="1.91572">
        <ele>992.22</ele>
        <time>2013-12-23T15:48:39Z</time>
      </trkpt>
      <trkpt lat="42.68952" lon="1.91567">
        <ele>992.22</ele>
        <time>2013-12-23T15:48:40Z</time>
      </trkpt>
      <trkpt lat="42.68961" lon="1.91547">
        <ele>991.74</ele>
        <time>2013-12-23T15:48:44Z</time>
      </trkpt>
      <trkpt lat="42.68964" lon="1.91544">
        <ele>991.26</ele>
        <time>2013-12-23T15:48:45Z</time>
      </trkpt>
      <trkpt lat="42.68966" lon="1.9154">
        <ele>991.26</ele>
        <time>2013-12-23T15:48:46Z</time>
      </trkpt>
      <trkpt lat="42.68969" lon="1.91536">
        <ele>991.26</ele>
        <time>2013-12-23T15:48:47Z</time>
      </trkpt>
      <trkpt lat="42.68972" lon="1.91533">
        <ele>991.26</ele>
        <time>2013-12-23T15:48:48Z</time>
      </trkpt>
      <trkpt lat="42.68975" lon="1.91531">
        <ele>991.26</ele>
        <time>2013-12-23T15:48:49Z</time>
      </trkpt>
      <trkpt lat="42.68978" lon="1.91528">
        <ele>990.78</ele>
        <time>2013-12-23T15:48:50Z</time>
      </trkpt>
      <trkpt lat="42.68996" lon="1.9148">
        <ele>989.33</ele>
        <time>2013-12-23T15:49:01Z</time>
      </trkpt>
      <trkpt lat="42.69005" lon="1.91465">
        <ele>986.93</ele>
        <time>2013-12-23T15:49:11Z</time>
      </trkpt>
      <trkpt lat="42.6901" lon="1.91462">
        <ele>985.49</ele>
        <time>2013-12-23T15:49:15Z</time>
      </trkpt>
      <trkpt lat="42.69013" lon="1.91455">
        <ele>983.09</ele>
        <time>2013-12-23T15:49:19Z</time>
      </trkpt>
      <trkpt lat="42.69015" lon="1.91452">
        <ele>982.6</ele>
        <time>2013-12-23T15:49:20Z</time>
      </trkpt>
      <trkpt lat="42.69025" lon="1.9142">
        <ele>979.24</ele>
        <time>2013-12-23T15:49:29Z</time>
      </trkpt>
      <trkpt lat="42.69024" lon="1.91418">
        <ele>979.24</ele>
        <time>2013-12-23T15:49:30Z</time>
      </trkpt>
      <trkpt lat="42.69023" lon="1.91418">
        <ele>978.76</ele>
        <time>2013-12-23T15:49:31Z</time>
      </trkpt>
      <trkpt lat="42.69022" lon="1.91418">
        <ele>978.28</ele>
        <time>2013-12-23T15:49:32Z</time>
      </trkpt>
      <trkpt lat="42.6902" lon="1.91418">
        <ele>977.8</ele>
        <time>2013-12-23T15:49:33Z</time>
      </trkpt>
      <trkpt lat="42.69019" lon="1.91421">
        <ele>977.8</ele>
        <time>2013-12-23T15:49:34Z</time>
      </trkpt>
      <trkpt lat="42.69018" lon="1.91424">
        <ele>977.8</ele>
        <time>2013-12-23T15:49:35Z</time>
      </trkpt>
      <trkpt lat="42.69001" lon="1.91468">
        <ele>976.36</ele>
        <time>2013-12-23T15:49:46Z</time>
      </trkpt>
      <trkpt lat="42.68994" lon="1.91477">
        <ele>975.39</ele>
        <time>2013-12-23T15:49:49Z</time>
      </trkpt>
      <trkpt lat="42.6899" lon="1.91479">
        <ele>975.39</ele>
        <time>2013-12-23T15:49:50Z</time>
      </trkpt>
      <trkpt lat="42.68981" lon="1.9148">
        <ele>975.39</ele>
        <time>2013-12-23T15:49:52Z</time>
      </trkpt>
      <trkpt lat="42.68962" lon="1.91478">
        <ele>974.91</ele>
        <time>2013-12-23T15:49:56Z</time>
      </trkpt>
      <trkpt lat="42.68956" lon="1.91478">
        <ele>974.91</ele>
        <time>2013-12-23T15:49:57Z</time>
      </trkpt>
      <trkpt lat="42.68951" lon="1.91478">
        <ele>974.91</ele>
        <time>2013-12-23T15:49:58Z</time>
      </trkpt>
      <trkpt lat="42.68945" lon="1.91479">
        <ele>974.91</ele>
        <time>2013-12-23T15:49:59Z</time>
      </trkpt>
      <trkpt lat="42.68941" lon="1.91479">
        <ele>974.91</ele>
        <time>2013-12-23T15:50:00Z</time>
      </trkpt>
      <trkpt lat="42.68936" lon="1.9148">
        <ele>974.91</ele>
        <time>2013-12-23T15:50:01Z</time>
      </trkpt>
      <trkpt lat="42.6893" lon="1.9148">
        <ele>974.91</ele>
        <time>2013-12-23T15:50:02Z</time>
      </trkpt>
      <trkpt lat="42.68924" lon="1.91479">
        <ele>974.91</ele>
        <time>2013-12-23T15:50:03Z</time>
      </trkpt>
      <trkpt lat="42.68918" lon="1.91478">
        <ele>974.91</ele>
        <time>2013-12-23T15:50:04Z</time>
      </trkpt>
      <trkpt lat="42.68897" lon="1.91476">
        <ele>974.43</ele>
        <time>2013-12-23T15:50:08Z</time>
      </trkpt>
      <trkpt lat="42.68866" lon="1.91482">
        <ele>972.51</ele>
        <time>2013-12-23T15:50:18Z</time>
      </trkpt>
      <trkpt lat="42.68843" lon="1.91484">
        <ele>971.55</ele>
        <time>2013-12-23T15:50:25Z</time>
      </trkpt>
      <trkpt lat="42.68841" lon="1.91483">
        <ele>970.59</ele>
        <time>2013-12-23T15:50:26Z</time>
      </trkpt>
      <trkpt lat="42.68839" lon="1.91482">
        <ele>970.11</ele>
        <time>2013-12-23T15:50:27Z</time>
      </trkpt>
      <trkpt lat="42.68837" lon="1.91482">
        <ele>968.67</ele>
        <time>2013-12-23T15:50:28Z</time>
      </trkpt>
      <trkpt lat="42.68836" lon="1.91483">
        <ele>967.7</ele>
        <time>2013-12-23T15:50:29Z</time>
      </trkpt>
      <trkpt lat="42.68835" lon="1.91483">
        <ele>963.38</ele>
        <time>2013-12-23T15:50:30Z</time>
      </trkpt>
      <trkpt lat="42.68837" lon="1.91486">
        <ele>945.59</ele>
        <time>2013-12-23T15:50:39Z</time>
      </trkpt>
      <trkpt lat="42.68834" lon="1.91487">
        <ele>934.54</ele>
        <time>2013-12-23T15:50:52Z</time>
      </trkpt>
      <trkpt lat="42.68834" lon="1.91488">
        <ele>927.33</ele>
        <time>2013-12-23T15:51:04Z</time>
      </trkpt>
      <trkpt lat="42.68832" lon="1.91489">
        <ele>923.48</ele>
        <time>2013-12-23T15:51:21Z</time>
      </trkpt>
      <trkpt lat="42.68831" lon="1.91489">
        <ele>921.08</ele>
        <time>2013-12-23T15:51:37Z</time>
      </trkpt>
      <trkpt lat="42.68831" lon="1.9149">
        <ele>921.08</ele>
        <time>2013-12-23T15:51:59Z</time>
      </trkpt>
      <trkpt lat="42.68828" lon="1.91492">
        <ele>917.24</ele>
        <time>2013-12-23T15:52:12Z</time>
      </trkpt>
      <trkpt lat="42.68824" lon="1.91499">
        <ele>914.83</ele>
        <time>2013-12-23T15:52:26Z</time>
      </trkpt>
      <trkpt lat="42.68822" lon="1.91506">
        <ele>913.87</ele>
        <time>2013-12-23T15:52:33Z</time>
      </trkpt>
      <trkpt lat="42.68813" lon="1.91519">
        <ele>914.83</ele>
        <time>2013-12-23T15:52:46Z</time>
      </trkpt>
      <trkpt lat="42.68807" lon="1.91533">
        <ele>916.27</ele>
        <time>2013-12-23T15:52:59Z</time>
      </trkpt>
      <trkpt lat="42.68799" lon="1.91545">
        <ele>918.2</ele>
        <time>2013-12-23T15:53:12Z</time>
      </trkpt>
      <trkpt lat="42.68796" lon="1.91552">
        <ele>920.6</ele>
        <time>2013-12-23T15:53:25Z</time>
      </trkpt>
      <trkpt lat="42.68788" lon="1.91561">
        <ele>919.64</ele>
        <time>2013-12-23T15:53:38Z</time>
      </trkpt>
      <trkpt lat="42.68781" lon="1.91571">
        <ele>918.2</ele>
        <time>2013-12-23T15:53:50Z</time>
      </trkpt>
      <trkpt lat="42.68772" lon="1.91583">
        <ele>917.72</ele>
        <time>2013-12-23T15:54:04Z</time>
      </trkpt>
      <trkpt lat="42.68763" lon="1.91592">
        <ele>916.75</ele>
        <time>2013-12-23T15:54:18Z</time>
      </trkpt>
      <trkpt lat="42.68762" lon="1.91592">
        <ele>918.2</ele>
        <time>2013-12-23T15:54:31Z</time>
      </trkpt>
      <trkpt lat="42.6876" lon="1.9159">
        <ele>917.72</ele>
        <time>2013-12-23T15:54:48Z</time>
      </trkpt>
      <trkpt lat="42.68761" lon="1.9159">
        <ele>920.6</ele>
        <time>2013-12-23T15:55:24Z</time>
      </trkpt>
      <trkpt lat="42.68767" lon="1.9159">
        <ele>920.6</ele>
        <time>2013-12-23T15:55:53Z</time>
      </trkpt>
      <trkpt lat="42.68764" lon="1.91588">
        <ele>919.16</ele>
        <time>2013-12-23T15:56:21Z</time>
      </trkpt>
      <trkpt lat="42.68762" lon="1.91592">
        <ele>927.81</ele>
        <time>2013-12-23T15:56:56Z</time>
      </trkpt>
      <trkpt lat="42.6877" lon="1.91601">
        <ele>928.77</ele>
        <time>2013-12-23T15:57:31Z</time>
      </trkpt>
      <trkpt lat="42.68766" lon="1.91596">
        <ele>927.33</ele>
        <time>2013-12-23T15:58:00Z</time>
      </trkpt>
      <trkpt lat="42.68768" lon="1.91592">
        <ele>929.25</ele>
        <time>2013-12-23T15:58:31Z</time>
      </trkpt>
      <trkpt lat="42.68766" lon="1.91591">
        <ele>930.69</ele>
        <time>2013-12-23T15:59:10Z</time>
      </trkpt>
      <trkpt lat="42.68767" lon="1.91591">
        <ele>930.69</ele>
        <time>2013-12-23T15:59:41Z</time>
      </trkpt>
      <trkpt lat="42.68767" lon="1.91592">
        <ele>932.14</ele>
        <time>2013-12-23T16:00:11Z</time>
      </trkpt>
      <trkpt lat="42.68767" lon="1.91593">
        <ele>929.25</ele>
        <time>2013-12-23T16:00:41Z</time>
      </trkpt>
      <trkpt lat="42.68765" lon="1.91593">
        <ele>929.25</ele>
        <time>2013-12-23T16:01:12Z</time>
      </trkpt>
      <trkpt lat="42.68762" lon="1.91588">
        <ele>928.77</ele>
        <time>2013-12-23T16:01:27Z</time>
      </trkpt>
    </trkseg>
  </trk>
</gpx>